Darstellungsparameter: Aktuell verwendete Einstellungen:
Skalierung der Graphiken ... ?
xyx+y,   Skalierungsfaktor:      Skalierung: Modus: x, Faktor: 1
Darstellungszeitraum ... ?
Vom - - bis: - -   Zeitraum: 25.11.2019 - 24.12.2019
Min/Max/Avg-Anzeige ... ?
Zeige MMA aktuell
Zeige MMA Monat
Zeige MMA alles
Zeige --A aktuell
Zeige --A Monat
Zeige --A alles
Keine MMA-Anzeige
MMA:
Average (ber die Originaldaten)
MMA-Basis: 25.11.2019 - 24.12.2019
Quicknavigation für Darstellung... ?
Tage:      1T, 2T, 3T, 5T -1T -2T -3T -5T +1T +2T +3T +5T
Wochen: 1W, 2W, 3W -1W -2W -3W +1W +2W +3W
Monate: 1M, 3M, 6M -1M -3M -6M +1M +3M +6M
Jahre:    1J, 3J, 5J, 10J -1J -3J -5J -10J +1J +3J +5J +10J
Nutze für die Darstellung ... ?
Originaldaten oder Mittelwerte auf ...
Stundenbasis Tagesbasis Wochenbasis
Monatsbasis Jahresbasis      Datenbasis: Original-Daten
Darstellen als:
Statistik (Auto) Statistik J:M      Darstellung:
Zur Graphik,    zurück zur Übersicht aller Sensoren.
 
Tabellarische Datenbersicht: ?
 
Sensor: Nr:Datum:Temp:Feuchte:
Aussen-T/F 1 25-11-2019 00:00:18 0.8 C 43 %
2 25-11-2019 00:10:18 0.9 C 43 %
3 25-11-2019 00:20:17 1.2 C 42 %
4 25-11-2019 00:30:17 1.4 C 42 %
5 25-11-2019 00:40:17 1.5 C 42 %
6 25-11-2019 00:50:18 1.5 C 42 %
7 25-11-2019 01:00:18 1.5 C 42 %
8 25-11-2019 01:10:18 1.5 C 42 %
9 25-11-2019 01:20:17 1.6 C 42 %
10 25-11-2019 01:30:17 1.5 C 42 %
11 25-11-2019 01:40:17 1.4 C 42 %
12 25-11-2019 01:50:17 1.3 C 42 %
13 25-11-2019 02:00:17 1.3 C 42 %
14 25-11-2019 02:10:17 1.3 C 42 %
15 25-11-2019 02:20:17 1.2 C 42 %
16 25-11-2019 02:30:17 1.3 C 42 %
17 25-11-2019 02:40:17 1.4 C 42 %
18 25-11-2019 02:50:17 1.5 C 42 %
19 25-11-2019 03:00:17 1.6 C 42 %
20 25-11-2019 03:10:17 1.5 C 42 %
21 25-11-2019 03:20:17 1.5 C 42 %
22 25-11-2019 03:30:17 1.5 C 42 %
23 25-11-2019 03:40:17 1.6 C 42 %
24 25-11-2019 03:50:17 1.7 C 42 %
25 25-11-2019 04:00:17 1.8 C 42 %
Sensor: Nr:Datum:Temp:Feuchte:
Aussen-T/F 26 25-11-2019 04:10:17 1.8 C 42 %
27 25-11-2019 04:20:17 1.9 C 42 %
28 25-11-2019 04:30:17 2 C 41 %
29 25-11-2019 04:40:17 2.1 C 41 %
30 25-11-2019 04:50:17 2.1 C 41 %
31 25-11-2019 05:00:17 2.2 C 41 %
32 25-11-2019 05:10:17 2.1 C 41 %
33 25-11-2019 05:20:17 2.2 C 41 %
34 25-11-2019 05:30:17 2.4 C 41 %
35 25-11-2019 05:40:17 2.4 C 41 %
36 25-11-2019 05:50:17 2.5 C 41 %
37 25-11-2019 06:00:17 2.5 C 41 %
38 25-11-2019 06:10:17 2.5 C 41 %
39 25-11-2019 06:20:17 2.5 C 41 %
40 25-11-2019 06:30:17 2.6 C 41 %
41 25-11-2019 06:40:17 2.6 C 41 %
42 25-11-2019 06:50:17 2.8 C 41 %
43 25-11-2019 07:00:17 2.8 C 41 %
44 25-11-2019 07:10:17 2.8 C 41 %
45 25-11-2019 07:20:17 2.8 C 41 %
46 25-11-2019 07:30:17 2.8 C 41 %
47 25-11-2019 07:40:17 2.8 C 41 %
48 25-11-2019 07:50:17 2.8 C 41 %
49 25-11-2019 08:00:17 2.9 C 41 %
50 25-11-2019 08:10:17 3 C 41 %
Sensor: Nr:Datum:Temp:Feuchte:
Aussen-T/F 51 25-11-2019 08:20:17 3.1 C 41 %
52 25-11-2019 08:30:18 3.2 C 41 %
53 25-11-2019 08:40:18 3.3 C 42 %
54 25-11-2019 08:50:17 3.4 C 42 %
55 25-11-2019 09:00:17 3.6 C 43 %
56 25-11-2019 09:10:17 3.6 C 43 %
57 25-11-2019 09:20:17 3.7 C 43 %
58 25-11-2019 09:30:17 3.6 C 43 %
59 25-11-2019 09:40:17 3.8 C 43 %
60 25-11-2019 09:50:17 3.8 C 42 %
61 25-11-2019 10:00:17 4.1 C 42 %
62 25-11-2019 10:10:17 4.5 C 43 %
63 25-11-2019 10:20:17 4.5 C 43 %
64 25-11-2019 10:30:17 5.1 C 40 %
65 25-11-2019 10:40:17 5.1 C 38 %
66 25-11-2019 10:50:17 5.1 C 37 %
67 25-11-2019 11:00:17 5.1 C 37 %
68 25-11-2019 11:10:17 5.2 C 37 %
69 25-11-2019 11:20:17 5.3 C 37 %
70 25-11-2019 11:30:17 5.4 C 37 %
71 25-11-2019 11:40:17 5.8 C 37 %
72 25-11-2019 11:50:17 6.3 C 36 %
73 25-11-2019 12:00:17 6.1 C 33 %
74 25-11-2019 12:10:17 6.4 C 33 %
75 25-11-2019 12:20:17 6.3 C 33 %
Sensor: Nr:Datum:Temp:Feuchte:
Aussen-T/F 76 25-11-2019 12:30:17 6.3 C 32 %
77 25-11-2019 12:40:17 6.6 C 32 %
78 25-11-2019 12:50:17 6.6 C 32 %
79 25-11-2019 13:00:17 6.7 C 31 %
80 25-11-2019 13:10:17 6.8 C 33 %
81 25-11-2019 13:20:17 7 C 32 %
82 25-11-2019 13:30:17 7 C 32 %
83 25-11-2019 13:40:17 7 C 33 %
84 25-11-2019 13:50:17 6.9 C 32 %
85 25-11-2019 14:00:17 6.9 C 33 %
86 25-11-2019 14:10:17 6.8 C 31 %
87 25-11-2019 14:20:17 6.8 C 35 %
88 25-11-2019 14:30:17 6.8 C 36 %
89 25-11-2019 14:40:17 6.9 C 36 %
90 25-11-2019 14:50:17 6.8 C 35 %
91 25-11-2019 15:00:17 6.7 C 35 %
92 25-11-2019 15:10:17 6.7 C 35 %
93 25-11-2019 15:20:17 6.7 C 34 %
94 25-11-2019 15:30:17 6.7 C 35 %
95 25-11-2019 15:40:17 6.6 C 33 %
96 25-11-2019 15:50:17 6.5 C 34 %
97 25-11-2019 16:00:17 6.5 C 35 %
98 25-11-2019 16:10:17 6.4 C 36 %
99 25-11-2019 16:20:17 6.3 C 36 %
100 25-11-2019 16:30:17 6.2 C 37 %
Sensor: Nr:Datum:Temp:Feuchte:
Aussen-T/F 101 25-11-2019 16:40:17 6.1 C 38 %
102 25-11-2019 16:50:17 6.1 C 38 %
103 25-11-2019 17:00:17 6 C 38 %
104 25-11-2019 17:10:17 6 C 38 %
105 25-11-2019 17:20:17 5.9 C 38 %
106 25-11-2019 17:30:17 5.9 C 39 %
107 25-11-2019 17:40:17 5.8 C 39 %
108 25-11-2019 17:50:17 5.9 C 39 %
109 25-11-2019 18:00:18 5.9 C 39 %
110 25-11-2019 18:10:18 5.9 C 40 %
111 25-11-2019 18:20:17 5.9 C 39 %
112 25-11-2019 18:30:17 5.9 C 40 %
113 25-11-2019 18:40:17 5.9 C 40 %
114 25-11-2019 18:50:17 5.8 C 40 %
115 25-11-2019 19:00:17 5.8 C 39 %
116 25-11-2019 19:10:17 5.4 C 38 %
117 25-11-2019 19:20:17 5 C 38 %
118 25-11-2019 19:30:17 5.1 C 40 %
119 25-11-2019 19:40:17 5 C 40 %
120 25-11-2019 19:50:17 5.2 C 40 %
121 25-11-2019 20:00:17 5.1 C 41 %
122 25-11-2019 20:10:17 5.3 C 41 %
123 25-11-2019 20:20:17 5.4 C 41 %
124 25-11-2019 20:30:17 5.4 C 41 %
125 25-11-2019 20:40:17 5.2 C 40 %
Sensor: Nr:Datum:Temp:Feuchte:
Aussen-T/F 126 25-11-2019 20:50:17 5.1 C 40 %
127 25-11-2019 21:00:17 5.3 C 40 %
128 25-11-2019 21:10:17 5.1 C 39 %
129 25-11-2019 21:20:17 5.1 C 39 %
130 25-11-2019 21:30:17 5.2 C 40 %
131 25-11-2019 21:40:17 5 C 40 %
132 25-11-2019 21:50:17 4.7 C 40 %
133 25-11-2019 22:00:17 4.7 C 40 %
134 25-11-2019 22:10:17 4.3 C 40 %
135 25-11-2019 22:20:17 4.1 C 40 %
136 25-11-2019 22:30:17 3.9 C 41 %
137 25-11-2019 22:40:17 4.1 C 41 %
138 25-11-2019 22:50:17 3.8 C 42 %
139 25-11-2019 23:00:17 3.5 C 42 %
140 25-11-2019 23:10:17 3.3 C 42 %
141 25-11-2019 23:20:17 3.1 C 42 %
142 25-11-2019 23:30:17 2.7 C 42 %
143 25-11-2019 23:40:17 3 C 42 %
144 25-11-2019 23:50:17 2.8 C 43 %
145 26-11-2019 00:00:17 2.3 C 42 %
146 26-11-2019 00:10:17 2.3 C 42 %
147 26-11-2019 00:20:17 2.5 C 42 %
148 26-11-2019 00:30:17 2.4 C 42 %
149 26-11-2019 00:40:17 2.5 C 43 %
150 26-11-2019 00:50:17 3.1 C 42 %
Sensor: Nr:Datum:Temp:Feuchte:
Aussen-T/F 151 26-11-2019 01:00:17 3.3 C 42 %
152 26-11-2019 01:10:17 3.4 C 42 %
153 26-11-2019 01:20:17 3.4 C 42 %
154 26-11-2019 01:30:17 3.4 C 42 %
155 26-11-2019 01:40:17 3.5 C 42 %
156 26-11-2019 01:50:17 3.6 C 42 %
157 26-11-2019 02:00:17 3.8 C 42 %
158 26-11-2019 02:10:17 3.8 C 42 %
159 26-11-2019 02:20:17 3.8 C 41 %
160 26-11-2019 02:30:17 3.8 C 41 %
161 26-11-2019 02:40:17 3.9 C 41 %
162 26-11-2019 02:50:17 4.3 C 41 %
163 26-11-2019 03:00:17 4.5 C 41 %
164 26-11-2019 03:10:17 4.5 C 41 %
165 26-11-2019 03:20:17 4.5 C 41 %
166 26-11-2019 03:30:17 4.1 C 40 %
167 26-11-2019 03:40:17 4.4 C 40 %
168 26-11-2019 03:50:17 4.6 C 41 %
169 26-11-2019 04:00:17 4.8 C 41 %
170 26-11-2019 04:10:17 5.1 C 40 %
171 26-11-2019 04:20:17 5.2 C 40 %
172 26-11-2019 04:30:18 5.2 C 40 %
173 26-11-2019 04:40:18 5.4 C 40 %
174 26-11-2019 04:50:17 5.6 C 40 %
175 26-11-2019 05:00:18 5.7 C 40 %
Sensor: Nr:Datum:Temp:Feuchte:
Aussen-T/F 176 26-11-2019 05:10:18 5.7 C 40 %
177 26-11-2019 05:20:17 5.8 C 40 %
178 26-11-2019 05:30:17 5.8 C 40 %
179 26-11-2019 05:40:17 5.8 C 40 %
180 26-11-2019 05:50:17 5.9 C 40 %
181 26-11-2019 06:00:17 5.9 C 40 %
182 26-11-2019 06:10:17 5.9 C 40 %
183 26-11-2019 06:20:17 6 C 39 %
184 26-11-2019 06:30:17 6.2 C 40 %
185 26-11-2019 06:40:17 6.2 C 39 %
186 26-11-2019 06:50:17 6.2 C 39 %
187 26-11-2019 07:00:17 6.5 C 40 %
188 26-11-2019 07:10:17 6.5 C 40 %
189 26-11-2019 07:20:17 6.6 C 39 %
190 26-11-2019 07:30:17 6.6 C 39 %
191 26-11-2019 07:40:17 6.6 C 39 %
192 26-11-2019 07:50:17 6.7 C 39 %
193 26-11-2019 08:00:17 6.8 C 39 %
194 26-11-2019 08:10:17 6.9 C 39 %
195 26-11-2019 08:20:17 6.8 C 38 %
196 26-11-2019 08:30:17 6.8 C 38 %
197 26-11-2019 08:40:17 6.7 C 38 %
198 26-11-2019 08:50:17 6.8 C 38 %
199 26-11-2019 09:00:17 7 C 37 %
200 26-11-2019 09:10:17 7.4 C 38 %
Sensor: Nr:Datum:Temp:Feuchte:
Aussen-T/F 201 26-11-2019 09:20:17 7.6 C 37 %
202 26-11-2019 09:30:17 7.9 C 36 %
203 26-11-2019 09:40:17 8.3 C 33 %
204 26-11-2019 09:50:17 8.5 C 31 %
205 26-11-2019 10:00:17 8.8 C 32 %
206 26-11-2019 10:10:17 9.1 C 32 %
207 26-11-2019 10:20:17 9.4 C 32 %
208 26-11-2019 10:30:17 9.6 C 32 %
209 26-11-2019 10:40:17 9.7 C 31 %
210 26-11-2019 10:50:17 9.9 C 31 %
211 26-11-2019 11:00:17 10.3 C 29 %
212 26-11-2019 11:10:17 10.5 C 29 %
213 26-11-2019 11:20:17 10.6 C 26 %
214 26-11-2019 11:30:17 10.7 C 26 %
215 26-11-2019 11:40:17 10.6 C 26 %
216 26-11-2019 11:50:17 10.5 C 26 %
217 26-11-2019 12:00:17 10.6 C 27 %
218 26-11-2019 12:10:17 10.6 C 28 %
219 26-11-2019 12:20:17 10.4 C 26 %
220 26-11-2019 12:30:17 10.4 C 27 %
221 26-11-2019 12:40:17 10.8 C 27 %
222 26-11-2019 12:50:17 10.7 C 26 %
223 26-11-2019 13:00:17 10.8 C 27 %
224 26-11-2019 13:10:17 10.8 C 27 %
225 26-11-2019 13:20:17 11 C 26 %
Sensor: Nr:Datum:Temp:Feuchte:
Aussen-T/F 226 26-11-2019 13:30:17 10.8 C 26 %
227 26-11-2019 13:40:17 10.6 C 26 %
228 26-11-2019 13:50:17 10.5 C 27 %
229 26-11-2019 14:00:17 10.2 C 30 %
230 26-11-2019 14:10:17 10.2 C 30 %
231 26-11-2019 14:20:17 10.5 C 30 %
232 26-11-2019 14:30:17 10.2 C 28 %
233 26-11-2019 14:40:17 10.6 C 28 %
234 26-11-2019 14:50:17 10.6 C 28 %
235 26-11-2019 15:00:17 10.7 C 27 %
236 26-11-2019 15:10:17 10.9 C 26 %
237 26-11-2019 15:20:17 11.1 C 26 %
238 26-11-2019 15:30:17 11.1 C 26 %
239 26-11-2019 15:40:17 10.6 C 27 %
240 26-11-2019 15:50:17 10.5 C 28 %
241 26-11-2019 16:00:17 10.1 C 30 %
242 26-11-2019 16:10:17 10 C 30 %
243 26-11-2019 16:20:17 9.9 C 31 %
244 26-11-2019 16:30:17 10 C 30 %
245 26-11-2019 16:40:17 10 C 29 %
246 26-11-2019 16:50:17 9.7 C 30 %
247 26-11-2019 17:00:17 9.6 C 30 %
248 26-11-2019 17:10:17 9.4 C 31 %
249 26-11-2019 17:20:17 9.3 C 31 %
250 26-11-2019 17:30:17 9.2 C 31 %
Sensor: Nr:Datum:Temp:Feuchte:
Aussen-T/F 251 26-11-2019 17:40:17 9.1 C 31 %
252 26-11-2019 17:50:17 8.9 C 32 %
253 26-11-2019 18:00:17 8.8 C 34 %
254 26-11-2019 18:10:17 8.9 C 36 %
255 26-11-2019 18:20:17 8.9 C 37 %
256 26-11-2019 18:30:17 9 C 35 %
257 26-11-2019 18:40:17 8.9 C 35 %
258 26-11-2019 18:50:17 9.1 C 34 %
259 26-11-2019 19:00:17 9.7 C 31 %
260 26-11-2019 19:10:17 9.5 C 31 %
261 26-11-2019 19:20:17 9.6 C 30 %
262 26-11-2019 19:30:17 9.6 C 30 %
263 26-11-2019 19:40:17 9.7 C 30 %
264 26-11-2019 19:50:17 9.5 C 30 %
265 26-11-2019 20:00:17 9.5 C 30 %
266 26-11-2019 20:10:17 9.2 C 31 %
267 26-11-2019 20:20:17 8.9 C 32 %
268 26-11-2019 20:30:17 8.4 C 35 %
269 26-11-2019 20:40:17 8.2 C 35 %
270 26-11-2019 20:50:17 8 C 37 %
271 26-11-2019 21:00:17 7.9 C 38 %
272 26-11-2019 21:10:17 8.3 C 39 %
273 26-11-2019 21:20:17 8.5 C 37 %
274 26-11-2019 21:30:17 8.7 C 36 %
275 26-11-2019 21:40:17 8.8 C 35 %
Sensor: Nr:Datum:Temp:Feuchte:
Aussen-T/F 276 26-11-2019 21:50:17 8.8 C 35 %
277 26-11-2019 22:00:17 8.9 C 35 %
278 26-11-2019 22:10:17 8.8 C 34 %
279 26-11-2019 22:20:17 8.6 C 34 %
280 26-11-2019 22:30:17 8.4 C 35 %
281 26-11-2019 22:40:17 8.1 C 35 %
282 26-11-2019 22:50:17 7.8 C 36 %
283 26-11-2019 23:00:17 7.9 C 39 %
284 26-11-2019 23:10:17 7.9 C 39 %
285 26-11-2019 23:20:17 8 C 38 %
286 26-11-2019 23:30:17 7.8 C 38 %
287 26-11-2019 23:40:17 7.7 C 38 %
288 26-11-2019 23:50:17 7.8 C 39 %
289 27-11-2019 00:00:17 7.6 C 39 %
290 27-11-2019 00:10:17 7.5 C 39 %
291 27-11-2019 00:20:17 7.6 C 40 %
292 27-11-2019 00:30:17 7.6 C 39 %
293 27-11-2019 00:40:17 7.9 C 40 %
294 27-11-2019 00:50:17 7.7 C 39 %
295 27-11-2019 01:00:17 7.4 C 39 %
296 27-11-2019 01:10:17 7.6 C 40 %
297 27-11-2019 01:20:17 7.6 C 40 %
298 27-11-2019 01:30:17 7.8 C 40 %
299 27-11-2019 01:40:17 7.8 C 40 %
300 27-11-2019 01:50:17 8 C 39 %
Sensor: Nr:Datum:Temp:Feuchte:
Aussen-T/F 301 27-11-2019 02:00:17 8.1 C 39 %
302 27-11-2019 02:10:17 8.1 C 38 %
303 27-11-2019 02:20:17 8.1 C 38 %
304 27-11-2019 02:30:17 8 C 39 %
305 27-11-2019 02:40:17 7.8 C 40 %
306 27-11-2019 02:50:17 7.7 C 40 %
307 27-11-2019 03:00:17 7.8 C 40 %
308 27-11-2019 03:10:17 7.6 C 41 %
309 27-11-2019 03:20:17 7.5 C 40 %
310 27-11-2019 03:30:17 7.2 C 40 %
311 27-11-2019 03:40:17 7.1 C 40 %
312 27-11-2019 03:50:17 7 C 40 %
313 27-11-2019 04:00:17 7.1 C 40 %
314 27-11-2019 04:10:17 7.3 C 40 %
315 27-11-2019 04:20:17 7.5 C 40 %
316 27-11-2019 04:30:17 7.6 C 40 %
317 27-11-2019 04:40:17 7.6 C 40 %
318 27-11-2019 04:50:17 7.4 C 39 %
319 27-11-2019 05:00:17 7.1 C 38 %
320 27-11-2019 05:10:17 7.4 C 39 %
321 27-11-2019 05:20:17 7.8 C 37 %
322 27-11-2019 05:30:17 7.7 C 37 %
323 27-11-2019 05:40:17 8 C 35 %
324 27-11-2019 05:50:17 8 C 35 %
325 27-11-2019 06:00:18 8 C 34 %
Sensor: Nr:Datum:Temp:Feuchte:
Aussen-T/F 326 27-11-2019 06:10:18 7.8 C 35 %
327 27-11-2019 06:20:17 7.8 C 36 %
328 27-11-2019 06:30:17 7.6 C 37 %
329 27-11-2019 06:40:17 7.7 C 39 %
330 27-11-2019 06:50:17 7.6 C 39 %
331 27-11-2019 07:00:17 7.8 C 37 %
332 27-11-2019 07:10:17 7.8 C 35 %
333 27-11-2019 07:20:17 7.9 C 35 %
334 27-11-2019 07:30:17 8.1 C 34 %
335 27-11-2019 07:40:17 8 C 32 %
336 27-11-2019 07:50:17 8 C 34 %
337 27-11-2019 08:00:17 8.2 C 33 %
338 27-11-2019 08:10:17 8.2 C 33 %
339 27-11-2019 08:20:17 8.3 C 34 %
340 27-11-2019 08:30:17 8.4 C 33 %
341 27-11-2019 08:40:17 8.4 C 33 %
342 27-11-2019 08:50:17 8.4 C 35 %
343 27-11-2019 09:00:17 8.6 C 35 %
344 27-11-2019 09:10:17 8.6 C 36 %
345 27-11-2019 09:20:17 8.8 C 36 %
346 27-11-2019 09:30:17 9.1 C 33 %
347 27-11-2019 09:40:17 9 C 34 %
348 27-11-2019 09:50:17 9 C 34 %
349 27-11-2019 10:00:17 9.1 C 35 %
350 27-11-2019 10:10:17 9.2 C 35 %
Sensor: Nr:Datum:Temp:Feuchte:
Aussen-T/F 351 27-11-2019 10:20:17 9.3 C 35 %
352 27-11-2019 10:30:17 9.7 C 31 %
353 27-11-2019 10:40:17 10 C 29 %
354 27-11-2019 10:50:17 10.4 C 27 %
355 27-11-2019 11:00:17 11 C 25 %
356 27-11-2019 11:10:17 11.3 C 24 %
357 27-11-2019 11:20:17 11.6 C 22 %
358 27-11-2019 11:30:17 11.7 C 22 %
359 27-11-2019 11:40:17 12.1 C 20 %
360 27-11-2019 11:50:17 12.4 C 20 %
361 27-11-2019 12:00:17 12.7 C 20 %
362 27-11-2019 12:10:17 12.7 C 20 %
363 27-11-2019 12:20:18 12.7 C 20 %
364 27-11-2019 12:30:17 12.7 C 20 %
365 27-11-2019 12:40:17 12.8 C 20 %
366 27-11-2019 12:50:17 12.8 C 20 %
367 27-11-2019 13:00:17 12.7 C 20 %
368 27-11-2019 13:10:17 12.8 C 20 %
369 27-11-2019 13:20:17 12.8 C 20 %
370 27-11-2019 13:30:17 12.6 C 20 %
371 27-11-2019 13:40:17 12.7 C 20 %
372 27-11-2019 13:50:17 12.9 C 20 %
373 27-11-2019 14:00:17 13.1 C 20 %
374 27-11-2019 14:10:17 13 C 20 %
375 27-11-2019 14:20:17 12.9 C 20 %
Sensor: Nr:Datum:Temp:Feuchte:
Aussen-T/F 376 27-11-2019 14:30:17 12.9 C 20 %
377 27-11-2019 14:40:17 12.9 C 20 %
378 27-11-2019 14:50:17 12.9 C 20 %
379 27-11-2019 15:00:17 12.7 C 20 %
380 27-11-2019 15:10:17 12.8 C 20 %
381 27-11-2019 15:20:17 12.8 C 20 %
382 27-11-2019 15:30:17 12.8 C 20 %
383 27-11-2019 15:40:17 12.5 C 20 %
384 27-11-2019 15:50:17 12.2 C 20 %
385 27-11-2019 16:00:17 11.5 C 20 %
386 27-11-2019 16:10:17 11.1 C 20 %
387 27-11-2019 16:20:17 10.8 C 25 %
388 27-11-2019 16:30:17 10.3 C 26 %
389 27-11-2019 16:40:17 9.9 C 29 %
390 27-11-2019 16:50:18 9.7 C 30 %
391 27-11-2019 17:00:17 9.5 C 31 %
392 27-11-2019 17:10:17 9.8 C 31 %
393 27-11-2019 17:20:17 9.8 C 31 %
394 27-11-2019 17:30:17 9.8 C 31 %
395 27-11-2019 17:40:17 9.7 C 33 %
396 27-11-2019 17:50:17 9.6 C 33 %
397 27-11-2019 18:00:17 9.7 C 32 %
398 27-11-2019 18:10:17 9.7 C 32 %
399 27-11-2019 18:20:17 9.9 C 31 %
400 27-11-2019 18:30:17 9.9 C 31 %
Sensor: Nr:Datum:Temp:Feuchte:
Aussen-T/F 401 27-11-2019 18:40:17 9.8 C 32 %
402 27-11-2019 18:50:17 9.7 C 34 %
403 27-11-2019 19:00:17 9.7 C 36 %
404 27-11-2019 19:10:17 9.8 C 34 %
405 27-11-2019 19:20:17 9.7 C 33 %
406 27-11-2019 19:30:17 10 C 31 %
407 27-11-2019 19:40:17 10 C 31 %
408 27-11-2019 19:50:17 10.4 C 28 %
409 27-11-2019 20:00:17 10.8 C 26 %
410 27-11-2019 20:10:17 10.9 C 26 %
411 27-11-2019 20:20:17 11 C 25 %
412 27-11-2019 20:30:17 10.6 C 26 %
413 27-11-2019 20:40:17 9.9 C 30 %
414 27-11-2019 20:50:17 9.7 C 31 %
415 27-11-2019 21:00:17 9.8 C 33 %
416 27-11-2019 21:10:17 9.8 C 32 %
417 27-11-2019 21:20:17 9.6 C 33 %
418 27-11-2019 21:30:17 9.8 C 32 %
419 27-11-2019 21:40:17 10.1 C 31 %
420 27-11-2019 21:50:17 10.2 C 29 %
421 27-11-2019 22:00:17 10.3 C 28 %
422 27-11-2019 22:10:17 10.6 C 27 %
423 27-11-2019 22:20:17 10.9 C 26 %
424 27-11-2019 22:30:17 10.9 C 26 %
425 27-11-2019 22:40:17 10.8 C 25 %
Sensor: Nr:Datum:Temp:Feuchte:
Aussen-T/F 426 27-11-2019 22:50:17 10.7 C 25 %
427 27-11-2019 23:00:17 11.1 C 24 %
428 27-11-2019 23:10:17 11.3 C 23 %
429 27-11-2019 23:20:17 11.1 C 23 %
430 27-11-2019 23:30:17 11.5 C 21 %
431 27-11-2019 23:40:18 11.5 C 21 %
432 27-11-2019 23:50:17 11.2 C 21 %
433 28-11-2019 00:00:18 11.2 C 21 %
434 28-11-2019 00:10:18 11.3 C 20 %
435 28-11-2019 00:20:17 11.2 C 20 %
436 28-11-2019 00:30:17 11.2 C 20 %
437 28-11-2019 00:40:17 11.5 C 20 %
438 28-11-2019 00:50:17 11.3 C 20 %
439 28-11-2019 01:00:17 11.4 C 20 %
440 28-11-2019 01:10:17 11.4 C 20 %
441 28-11-2019 01:20:17 11.4 C 20 %
442 28-11-2019 01:30:17 11.4 C 20 %
443 28-11-2019 01:40:17 11.1 C 20 %
444 28-11-2019 01:50:17 11.1 C 20 %
445 28-11-2019 02:00:18 10.8 C 20 %
446 28-11-2019 02:10:18 10.5 C 20 %
447 28-11-2019 02:20:17 10.7 C 20 %
448 28-11-2019 02:30:17 11 C 20 %
449 28-11-2019 02:40:17 10.5 C 21 %
450 28-11-2019 02:50:17 10.8 C 20 %
Sensor: Nr:Datum:Temp:Feuchte:
Aussen-T/F 451 28-11-2019 03:00:17 10.9 C 20 %
452 28-11-2019 03:10:17 10.3 C 20 %
453 28-11-2019 03:20:18 10.8 C 20 %
454 28-11-2019 03:30:18 10.6 C 20 %
455 28-11-2019 03:40:18 10.9 C 20 %
456 28-11-2019 03:50:18 10.9 C 20 %
457 28-11-2019 04:00:18 10.7 C 20 %
458 28-11-2019 04:10:18 10.6 C 20 %
459 28-11-2019 04:20:17 10.6 C 20 %
460 28-11-2019 04:30:17 10.6 C 20 %
461 28-11-2019 04:40:17 10.5 C 20 %
462 28-11-2019 04:50:17 10.3 C 20 %
463 28-11-2019 05:00:17 10.5 C 20 %
464 28-11-2019 05:10:17 10.2 C 20 %
465 28-11-2019 05:20:17 10.1 C 20 %
466 28-11-2019 05:30:17 10.4 C 20 %
467 28-11-2019 05:40:17 10.1 C 20 %
468 28-11-2019 05:50:17 10.2 C 20 %
469 28-11-2019 06:00:17 9.9 C 20 %
470 28-11-2019 06:10:17 10.1 C 20 %
471 28-11-2019 06:20:17 10.2 C 20 %
472 28-11-2019 06:30:17 10.5 C 20 %
473 28-11-2019 06:40:17 10.6 C 20 %
474 28-11-2019 06:50:17 10.5 C 20 %
475 28-11-2019 07:00:17 10.4 C 20 %
Sensor: Nr:Datum:Temp:Feuchte:
Aussen-T/F 476 28-11-2019 07:10:17 10 C 20 %
477 28-11-2019 07:20:17 10 C 20 %
478 28-11-2019 07:30:17 10 C 20 %
479 28-11-2019 07:40:17 10.2 C 20 %
480 28-11-2019 07:50:17 10.3 C 20 %
481 28-11-2019 08:00:17 10.4 C 20 %
482 28-11-2019 08:10:17 10.2 C 20 %
483 28-11-2019 08:20:17 10.2 C 20 %
484 28-11-2019 08:30:17 10.1 C 20 %
485 28-11-2019 08:40:17 10.1 C 20 %
486 28-11-2019 08:50:17 10.1 C 20 %
487 28-11-2019 09:00:17 10.3 C 20 %
488 28-11-2019 09:10:17 10.7 C 20 %
489 28-11-2019 09:20:17 11 C 20 %
490 28-11-2019 09:30:17 11 C 20 %
491 28-11-2019 09:40:17 11.1 C 20 %
492 28-11-2019 09:50:17 11.1 C 20 %
493 28-11-2019 10:00:17 11.3 C 20 %
494 28-11-2019 10:10:17 11.3 C 20 %
495 28-11-2019 10:20:17 11.5 C 20 %
496 28-11-2019 10:30:17 11.6 C 20 %
497 28-11-2019 10:40:17 11.7 C 20 %
498 28-11-2019 10:50:17 11.7 C 20 %
499 28-11-2019 11:00:17 11.7 C 20 %
500 28-11-2019 11:10:17 11.8 C 20 %
Sensor: Nr:Datum:Temp:Feuchte:
Aussen-T/F 501 28-11-2019 11:20:17 11.9 C 20 %
502 28-11-2019 11:30:17 11.9 C 20 %
503 28-11-2019 11:40:17 12.2 C 20 %
504 28-11-2019 11:50:17 11.9 C 20 %
505 28-11-2019 12:00:17 11.6 C 20 %
506 28-11-2019 12:10:17 11.5 C 20 %
507 28-11-2019 12:20:17 11.1 C 20 %
508 28-11-2019 12:30:17 11.1 C 20 %
509 28-11-2019 12:40:17 10.9 C 20 %
510 28-11-2019 12:50:17 11.2 C 20 %
511 28-11-2019 13:00:17 11.2 C 20 %
512 28-11-2019 13:10:17 11.7 C 20 %
513 28-11-2019 13:20:17 11.8 C 20 %
514 28-11-2019 13:30:17 12.1 C 20 %
515 28-11-2019 13:40:17 11.4 C 20 %
516 28-11-2019 13:50:17 11.4 C 20 %
517 28-11-2019 14:00:17 11.3 C 20 %
518 28-11-2019 14:10:17 11.4 C 20 %
519 28-11-2019 14:20:17 11.2 C 20 %
520 28-11-2019 14:30:17 11.1 C 20 %
521 28-11-2019 14:40:17 11.2 C 20 %
522 28-11-2019 14:50:17 11.2 C 20 %
523 28-11-2019 15:00:17 11.2 C 20 %
524 28-11-2019 15:10:17 11.1 C 20 %
525 28-11-2019 15:20:17 11 C 20 %
Sensor: Nr:Datum:Temp:Feuchte:
Aussen-T/F 526 28-11-2019 15:30:17 10.2 C 23 %
527 28-11-2019 15:40:17 10.2 C 21 %
528 28-11-2019 15:50:17 10.3 C 21 %
529 28-11-2019 16:00:17 10.5 C 21 %
530 28-11-2019 16:10:17 10.3 C 22 %
531 28-11-2019 16:20:17 10.5 C 21 %
532 28-11-2019 16:30:17 10.6 C 21 %
533 28-11-2019 16:40:17 10.4 C 21 %
534 28-11-2019 16:50:17 10.4 C 21 %
535 28-11-2019 17:00:17 10.3 C 22 %
536 28-11-2019 17:10:17 9.7 C 27 %
537 28-11-2019 17:20:17 9.5 C 29 %
538 28-11-2019 17:30:17 9.4 C 30 %
539 28-11-2019 17:40:17 9.3 C 30 %
540 28-11-2019 17:50:17 9.6 C 28 %
541 28-11-2019 18:00:17 9.8 C 27 %
542 28-11-2019 18:10:17 10.2 C 25 %
543 28-11-2019 18:20:17 10.3 C 25 %
544 28-11-2019 18:30:17 10.2 C 25 %
545 28-11-2019 18:40:17 10.2 C 25 %
546 28-11-2019 18:50:17 10.2 C 25 %
547 28-11-2019 19:00:17 10.1 C 25 %
548 28-11-2019 19:10:17 9.8 C 26 %
549 28-11-2019 19:20:17 9.8 C 26 %
550 28-11-2019 19:30:17 9.8 C 26 %
Sensor: Nr:Datum:Temp:Feuchte:
Aussen-T/F 551 28-11-2019 19:40:17 9.9 C 26 %
552 28-11-2019 19:50:17 10.1 C 25 %
553 28-11-2019 20:00:17 10.1 C 26 %
554 28-11-2019 20:10:17 9.8 C 26 %
555 28-11-2019 20:20:17 9.8 C 26 %
556 28-11-2019 20:30:17 9.8 C 27 %
557 28-11-2019 20:40:17 10.1 C 26 %
558 28-11-2019 20:50:17 10 C 25 %
559 28-11-2019 21:00:17 10.1 C 25 %
560 28-11-2019 21:10:17 9.7 C 27 %
561 28-11-2019 21:20:17 9.9 C 27 %
562 28-11-2019 21:30:17 10.1 C 26 %
563 28-11-2019 21:40:17 10 C 26 %
564 28-11-2019 21:50:17 10 C 25 %
565 28-11-2019 22:00:17 9.6 C 27 %
566 28-11-2019 22:10:17 9.6 C 28 %
567 28-11-2019 22:20:17 9.6 C 28 %
568 28-11-2019 22:30:17 9.5 C 28 %
569 28-11-2019 22:40:17 9.6 C 28 %
570 28-11-2019 22:50:17 9.5 C 28 %
571 28-11-2019 23:00:17 9.5 C 28 %
572 28-11-2019 23:10:17 9.5 C 29 %
573 28-11-2019 23:20:17 9.6 C 28 %
574 28-11-2019 23:30:17 9.2 C 30 %
575 28-11-2019 23:40:17 9.1 C 32 %
Sensor: Nr:Datum:Temp:Feuchte:
Aussen-T/F 576 28-11-2019 23:50:17 8.9 C 35 %
577 29-11-2019 00:00:17 8.9 C 34 %
578 29-11-2019 00:10:17 8.7 C 36 %
579 29-11-2019 00:20:17 8.8 C 35 %
580 29-11-2019 00:30:17 8.7 C 36 %
581 29-11-2019 00:40:17 8.7 C 35 %
582 29-11-2019 00:50:17 8.6 C 35 %
583 29-11-2019 01:00:17 8.6 C 36 %
584 29-11-2019 01:10:17 8.5 C 37 %
585 29-11-2019 01:20:17 8.3 C 37 %
586 29-11-2019 01:30:17 8.3 C 36 %
587 29-11-2019 01:40:17 8.3 C 36 %
588 29-11-2019 01:50:17 8.1 C 39 %
589 29-11-2019 02:00:17 8.1 C 40 %
590 29-11-2019 02:10:17 8.1 C 40 %
591 29-11-2019 02:20:17 8.1 C 40 %
592 29-11-2019 02:30:17 8.1 C 40 %
593 29-11-2019 02:40:17 8.1 C 40 %
594 29-11-2019 02:50:17 8 C 40 %
595 29-11-2019 03:00:17 8 C 40 %
596 29-11-2019 03:10:17 8 C 40 %
597 29-11-2019 03:20:17 7.9 C 40 %
598 29-11-2019 03:30:17 7.8 C 40 %
599 29-11-2019 03:40:17 7.7 C 40 %
600 29-11-2019 03:50:17 7.6 C 40 %
Sensor: Nr:Datum:Temp:Feuchte:
Aussen-T/F 601 29-11-2019 04:00:17 7.6 C 40 %
602 29-11-2019 04:10:17 7.6 C 40 %
603 29-11-2019 04:20:17 7.6 C 40 %
604 29-11-2019 04:30:17 7.5 C 40 %
605 29-11-2019 04:40:17 7.5 C 40 %
606 29-11-2019 04:50:17 7.2 C 38 %
607 29-11-2019 05:00:17 6.8 C 34 %
608 29-11-2019 05:10:17 6.4 C 33 %
609 29-11-2019 05:20:17 6.2 C 34 %
610 29-11-2019 05:30:17 6.2 C 35 %
611 29-11-2019 05:40:18 6.1 C 36 %
612 29-11-2019 05:50:17 6 C 36 %
613 29-11-2019 06:00:17 6 C 38 %
614 29-11-2019 06:10:17 5.9 C 38 %
615 29-11-2019 06:20:17 5.9 C 38 %
616 29-11-2019 06:30:17 5.9 C 40 %
617 29-11-2019 06:40:17 5.9 C 40 %
618 29-11-2019 06:50:17 5.8 C 36 %
619 29-11-2019 07:00:17 5.7 C 35 %
620 29-11-2019 07:10:17 5.6 C 37 %
621 29-11-2019 07:20:17 5.4 C 37 %
622 29-11-2019 07:30:17 5.4 C 40 %
623 29-11-2019 07:40:17 5.4 C 37 %
624 29-11-2019 07:50:17 5.4 C 39 %
625 29-11-2019 08:00:17 5.3 C 40 %
Sensor: Nr:Datum:Temp:Feuchte:
Aussen-T/F 626 29-11-2019 08:10:17 5.2 C 40 %
627 29-11-2019 08:20:17 5.1 C 40 %
628 29-11-2019 08:30:17 5 C 40 %
629 29-11-2019 08:40:17 5 C 40 %
630 29-11-2019 08:50:17 5 C 39 %
631 29-11-2019 09:00:17 5 C 39 %
632 29-11-2019 09:10:17 5 C 39 %
633 29-11-2019 09:20:17 4.8 C 37 %
634 29-11-2019 09:30:17 4.6 C 37 %
635 29-11-2019 09:40:17 4.6 C 37 %
636 29-11-2019 09:50:17 4.7 C 36 %
637 29-11-2019 10:00:17 4.8 C 32 %
638 29-11-2019 10:10:17 5.1 C 31 %
639 29-11-2019 10:20:17 5.8 C 27 %
640 29-11-2019 10:30:17 5.9 C 29 %
641 29-11-2019 10:40:17 5.7 C 27 %
642 29-11-2019 10:50:17 5.4 C 28 %
643 29-11-2019 11:00:17 5.6 C 30 %
644 29-11-2019 11:10:17 5.9 C 26 %
645 29-11-2019 11:20:17 6 C 27 %
646 29-11-2019 11:30:17 6.4 C 26 %
647 29-11-2019 11:40:17 7 C 23 %
648 29-11-2019 11:50:17 7.3 C 21 %
649 29-11-2019 12:00:17 7.2 C 20 %
650 29-11-2019 12:10:17 7.2 C 20 %
Sensor: Nr:Datum:Temp:Feuchte:
Aussen-T/F 651 29-11-2019 12:20:17 7.1 C 20 %
652 29-11-2019 12:30:17 7.6 C 20 %
653 29-11-2019 12:40:17 7.2 C 20 %
654 29-11-2019 12:50:17 6.9 C 21 %
655 29-11-2019 13:00:17 6.6 C 21 %
656 29-11-2019 13:10:17 6.2 C 23 %
657 29-11-2019 13:20:17 5.9 C 25 %
658 29-11-2019 13:30:17 6.1 C 25 %
659 29-11-2019 13:40:17 6.1 C 25 %
660 29-11-2019 13:50:17 6.5 C 20 %
661 29-11-2019 14:00:17 6.5 C 20 %
662 29-11-2019 14:10:17 7 C 20 %
663 29-11-2019 14:20:17 7.3 C 20 %
664 29-11-2019 14:30:17 7.3 C 20 %
665 29-11-2019 14:40:17 6.9 C 20 %
666 29-11-2019 14:50:17 6.5 C 20 %
667 29-11-2019 15:00:17 7.3 C 20 %
668 29-11-2019 15:10:17 7.3 C 20 %
669 29-11-2019 15:20:17 7.2 C 20 %
670 29-11-2019 15:30:17 7.2 C 20 %
671 29-11-2019 15:40:17 7.2 C 20 %
672 29-11-2019 15:50:17 6.7 C 20 %
673 29-11-2019 16:00:17 6.4 C 20 %
674 29-11-2019 16:10:17 5.6 C 20 %
675 29-11-2019 16:20:17 6.2 C 20 %
Sensor: Nr:Datum:Temp:Feuchte:
Aussen-T/F 676 29-11-2019 16:30:17 6 C 20 %
677 29-11-2019 16:40:18 5.3 C 20 %
678 29-11-2019 16:50:17 5.3 C 20 %
679 29-11-2019 17:00:18 4.5 C 23 %
680 29-11-2019 17:10:18 4 C 26 %
681 29-11-2019 17:20:17 4 C 26 %
682 29-11-2019 17:30:18 3.9 C 27 %
683 29-11-2019 17:40:18 4 C 26 %
684 29-11-2019 17:50:17 3.8 C 27 %
685 29-11-2019 18:00:17 4.2 C 26 %
686 29-11-2019 18:10:18 4.6 C 25 %
687 29-11-2019 18:20:17 5 C 21 %
688 29-11-2019 18:30:17 5 C 21 %
689 29-11-2019 18:40:17 4.8 C 23 %
690 29-11-2019 18:50:17 4.7 C 26 %
691 29-11-2019 19:00:17 4.8 C 21 %
692 29-11-2019 19:10:17 4.8 C 21 %
693 29-11-2019 19:20:17 4.8 C 21 %
694 29-11-2019 19:30:17 4.4 C 25 %
695 29-11-2019 19:40:17 4.6 C 21 %
696 29-11-2019 19:50:17 4.4 C 25 %
697 29-11-2019 20:00:17 4 C 26 %
698 29-11-2019 20:10:17 4 C 26 %
699 29-11-2019 20:20:17 4.3 C 25 %
700 29-11-2019 20:30:17 4.7 C 23 %
Sensor: Nr:Datum:Temp:Feuchte:
Aussen-T/F 701 29-11-2019 20:40:17 4 C 25 %
702 29-11-2019 20:50:17 3.9 C 26 %
703 29-11-2019 21:00:17 3.8 C 28 %
704 29-11-2019 21:10:17 3.9 C 27 %
705 29-11-2019 21:20:17 3.8 C 27 %
706 29-11-2019 21:30:17 3.8 C 28 %
707 29-11-2019 21:40:17 3.9 C 28 %
708 29-11-2019 21:50:17 3.2 C 30 %
709 29-11-2019 22:00:17 3.3 C 29 %
710 29-11-2019 22:10:17 2.6 C 32 %
711 29-11-2019 22:20:17 2.1 C 35 %
712 29-11-2019 22:30:17 1.9 C 37 %
713 29-11-2019 22:40:17 1.7 C 40 %
714 29-11-2019 22:50:17 1.8 C 41 %
715 29-11-2019 23:00:17 1.5 C 38 %
716 29-11-2019 23:10:17 1.1 C 39 %
717 29-11-2019 23:20:17 1.3 C 41 %
718 29-11-2019 23:30:17 1.5 C 42 %
719 29-11-2019 23:40:17 1.6 C 41 %
720 29-11-2019 23:50:17 1.7 C 41 %
721 30-11-2019 00:00:17 1.9 C 40 %
722 30-11-2019 00:10:17 1.8 C 40 %
723 30-11-2019 00:20:17 1.8 C 40 %
724 30-11-2019 00:30:17 2 C 37 %
725 30-11-2019 00:40:17 1.7 C 37 %
Sensor: Nr:Datum:Temp:Feuchte:
Aussen-T/F 726 30-11-2019 00:50:17 1.6 C 40 %
727 30-11-2019 01:00:17 1.3 C 40 %
728 30-11-2019 01:10:17 1 C 40 %
729 30-11-2019 01:20:17 0.7 C 41 %
730 30-11-2019 01:30:17 0.5 C 42 %
731 30-11-2019 01:40:17 0.7 C 44 %
732 30-11-2019 01:50:17 0.5 C 43 %
733 30-11-2019 02:00:17 0.4 C 44 %
734 30-11-2019 02:10:17 0.9 C 45 %
735 30-11-2019 02:20:17 1.1 C 44 %
736 30-11-2019 02:30:17 1.2 C 44 %
737 30-11-2019 02:40:17 0.8 C 43 %
738 30-11-2019 02:50:17 0.8 C 43 %
739 30-11-2019 03:00:17 0.9 C 43 %
740 30-11-2019 03:10:17 0.7 C 43 %
741 30-11-2019 03:20:17 0.3 C 41 %
742 30-11-2019 03:30:17 0.5 C 44 %
743 30-11-2019 03:40:17 0.2 C 43 %
744 30-11-2019 03:50:17 0.6 C 44 %
745 30-11-2019 04:00:17 1 C 44 %
746 30-11-2019 04:10:17 1.3 C 43 %
747 30-11-2019 04:20:17 1.3 C 41 %
748 30-11-2019 04:30:17 1.4 C 40 %
749 30-11-2019 04:40:17 1.3 C 40 %
750 30-11-2019 04:50:17 1 C 38 %
Sensor: Nr:Datum:Temp:Feuchte:
Aussen-T/F 751 30-11-2019 05:00:17 0.6 C 40 %
752 30-11-2019 05:10:17 1.1 C 41 %
753 30-11-2019 05:20:17 0.8 C 40 %
754 30-11-2019 05:30:17 0.3 C 40 %
755 30-11-2019 05:40:17 -0.5 C 40 %
756 30-11-2019 05:50:17 -0.7 C 41 %
757 30-11-2019 06:00:17 -0.7 C 43 %
758 30-11-2019 06:10:17 -0.9 C 43 %
759 30-11-2019 06:20:17 -1 C 43 %
760 30-11-2019 06:30:17 -1.2 C 43 %
761 30-11-2019 06:40:17 -1.3 C 43 %
762 30-11-2019 06:50:17 -1.2 C 44 %
763 30-11-2019 07:00:17 -1.4 C 44 %
764 30-11-2019 07:10:17 -1.4 C 43 %
765 30-11-2019 07:20:17 -1.4 C 43 %
766 30-11-2019 07:30:17 -1.5 C 43 %
767 30-11-2019 07:40:17 -1.2 C 44 %
768 30-11-2019 07:50:17 -1.1 C 44 %
769 30-11-2019 08:00:17 -1 C 44 %
770 30-11-2019 08:10:17 -0.7 C 44 %
771 30-11-2019 08:20:17 -0.6 C 44 %
772 30-11-2019 08:30:17 -0.7 C 44 %
773 30-11-2019 08:40:17 -0.6 C 44 %
774 30-11-2019 08:50:17 -0.7 C 44 %
775 30-11-2019 09:00:17 -0.7 C 44 %
Sensor: Nr:Datum:Temp:Feuchte:
Aussen-T/F 776 30-11-2019 09:10:17 -0.6 C 44 %
777 30-11-2019 09:20:17 -0.7 C 44 %
778 30-11-2019 09:30:17 -0.7 C 44 %
779 30-11-2019 09:40:17 -0.6 C 44 %
780 30-11-2019 09:50:17 -0.3 C 44 %
781 30-11-2019 10:00:17 -0.3 C 44 %
782 30-11-2019 10:10:17 0 C 44 %
783 30-11-2019 10:20:17 0.1 C 43 %
784 30-11-2019 10:30:17 0.4 C 43 %
785 30-11-2019 10:40:17 0.5 C 43 %
786 30-11-2019 10:50:17 0.4 C 43 %
787 30-11-2019 11:00:18 0.5 C 42 %
788 30-11-2019 11:10:18 0.6 C 42 %
789 30-11-2019 11:20:17 0.6 C 42 %
790 30-11-2019 11:30:17 0.4 C 41 %
791 30-11-2019 11:40:17 0.6 C 41 %
792 30-11-2019 11:50:17 0.9 C 41 %
793 30-11-2019 12:00:17 1.1 C 40 %
794 30-11-2019 12:10:17 0.9 C 38 %
795 30-11-2019 12:20:17 1.3 C 39 %
796 30-11-2019 12:30:17 1.4 C 37 %
797 30-11-2019 12:40:17 1.4 C 36 %
798 30-11-2019 12:50:17 2.3 C 36 %
799 30-11-2019 13:00:17 2.4 C 36 %
800 30-11-2019 13:10:17 1.8 C 36 %
Sensor: Nr:Datum:Temp:Feuchte:
Aussen-T/F 801 30-11-2019 13:20:17 2.2 C 36 %
802 30-11-2019 13:30:17 2.1 C 36 %
803 30-11-2019 13:40:17 2.3 C 36 %
804 30-11-2019 13:50:17 2.3 C 36 %
805 30-11-2019 14:00:17 2 C 36 %
806 30-11-2019 14:10:17 2.1 C 38 %
807 30-11-2019 14:20:17 2.2 C 38 %
808 30-11-2019 14:30:17 2.2 C 38 %
809 30-11-2019 14:40:17 2.4 C 38 %
810 30-11-2019 14:50:17 2.2 C 37 %
811 30-11-2019 15:00:17 1.9 C 39 %
812 30-11-2019 15:10:17 1.8 C 40 %
813 30-11-2019 15:20:18 1.9 C 41 %
814 30-11-2019 15:30:17 1.8 C 41 %
815 30-11-2019 15:40:17 1.6 C 41 %
816 30-11-2019 15:50:17 1.7 C 42 %
817 30-11-2019 16:00:17 1.5 C 42 %
818 30-11-2019 16:10:17 1.5 C 42 %
819 30-11-2019 16:20:17 1.4 C 43 %
820 30-11-2019 16:30:17 1.3 C 43 %
821 30-11-2019 16:40:17 1.3 C 43 %
822 30-11-2019 16:50:17 1.1 C 43 %
823 30-11-2019 17:00:17 0.9 C 44 %
824 30-11-2019 17:10:17 0.9 C 44 %
825 30-11-2019 17:20:17 0.6 C 44 %
Sensor: Nr:Datum:Temp:Feuchte:
Aussen-T/F 826 30-11-2019 17:30:17 0.6 C 44 %
827 30-11-2019 17:40:17 0.6 C 44 %
828 30-11-2019 17:50:17 0.5 C 44 %
829 30-11-2019 18:00:17 0.4 C 44 %
830 30-11-2019 18:10:17 0.3 C 44 %
831 30-11-2019 18:20:17 0.3 C 44 %
832 30-11-2019 18:30:17 0.4 C 44 %
833 30-11-2019 18:40:17 0.4 C 44 %
834 30-11-2019 18:50:17 0.4 C 44 %
835 30-11-2019 19:00:17 0.2 C 44 %
836 30-11-2019 19:10:17 0 C 44 %
837 30-11-2019 19:20:17 0 C 44 %
838 30-11-2019 19:30:17 0 C 44 %
839 30-11-2019 19:40:17 -0.1 C 44 %
840 30-11-2019 19:50:17 -0.1 C 44 %
841 30-11-2019 20:00:17 -0.2 C 44 %
842 30-11-2019 20:10:18 -0.2 C 44 %
843 30-11-2019 20:20:18 -0.2 C 44 %
844 30-11-2019 20:30:17 -0.2 C 44 %
845 30-11-2019 20:40:17 -0.4 C 44 %
846 30-11-2019 20:50:17 -0.3 C 44 %
847 30-11-2019 21:00:17 -0.2 C 44 %
848 30-11-2019 21:10:17 -0.3 C 44 %
849 30-11-2019 21:20:17 -0.3 C 44 %
850 30-11-2019 21:30:17 -0.4 C 44 %
Sensor: Nr:Datum:Temp:Feuchte:
Aussen-T/F 851 30-11-2019 21:40:17 -0.2 C 44 %
852 30-11-2019 21:50:17 -0.3 C 44 %
853 30-11-2019 22:00:17 -0.3 C 44 %
854 30-11-2019 22:10:17 -0.3 C 44 %
855 30-11-2019 22:20:17 -0.3 C 44 %
856 30-11-2019 22:30:17 -0.1 C 44 %
857 30-11-2019 22:40:17 0 C 44 %
858 30-11-2019 22:50:17 0 C 44 %
859 30-11-2019 23:00:17 0 C 44 %
860 30-11-2019 23:10:17 0 C 44 %
861 30-11-2019 23:20:17 -0.1 C 44 %
862 30-11-2019 23:30:17 -0.4 C 43 %
863 30-11-2019 23:40:17 -0.5 C 43 %
864 30-11-2019 23:50:17 -0.4 C 43 %
865 01-12-2019 00:00:17 -0.2 C 43 %
866 01-12-2019 00:10:17 -0.3 C 43 %
867 01-12-2019 00:20:17 -0.3 C 43 %
868 01-12-2019 00:30:17 -0.3 C 43 %
869 01-12-2019 00:40:17 -0.3 C 43 %
870 01-12-2019 00:50:18 -0.2 C 43 %
871 01-12-2019 01:00:17 0 C 44 %
872 01-12-2019 01:10:17 -0.1 C 43 %
873 01-12-2019 01:20:17 -0.1 C 43 %
874 01-12-2019 01:30:17 -0.1 C 43 %
875 01-12-2019 01:40:17 -0.1 C 43 %
Sensor: Nr:Datum:Temp:Feuchte:
Aussen-T/F 876 01-12-2019 01:50:17 -0.2 C 43 %
877 01-12-2019 02:00:17 -0.1 C 43 %
878 01-12-2019 02:10:17 -0.2 C 43 %
879 01-12-2019 02:20:17 -0.2 C 43 %
880 01-12-2019 02:30:17 -0.2 C 43 %
881 01-12-2019 02:40:17 -0.3 C 43 %
882 01-12-2019 02:50:17 -0.2 C 43 %
883 01-12-2019 03:00:17 -0.3 C 43 %
884 01-12-2019 03:10:17 -0.3 C 43 %
885 01-12-2019 03:20:17 -0.4 C 43 %
886 01-12-2019 03:30:17 -0.4 C 43 %
887 01-12-2019 03:40:17 -0.4 C 43 %
888 01-12-2019 03:50:17 -0.4 C 43 %
889 01-12-2019 04:00:17 -0.4 C 43 %
890 01-12-2019 04:10:17 -0.8 C 42 %
891 01-12-2019 04:20:17 -1.1 C 42 %
892 01-12-2019 04:30:17 -1.3 C 42 %
893 01-12-2019 04:40:17 -0.9 C 43 %
894 01-12-2019 04:50:17 -0.9 C 43 %
895 01-12-2019 05:00:17 -0.7 C 43 %
896 01-12-2019 05:10:17 -0.8 C 43 %
897 01-12-2019 05:20:17 -0.9 C 43 %
898 01-12-2019 05:30:17 -1.1 C 43 %
899 01-12-2019 05:40:17 -1 C 43 %
900 01-12-2019 05:50:17 -0.9 C 43 %
Sensor: Nr:Datum:Temp:Feuchte:
Aussen-T/F 901 01-12-2019 06:00:17 -1 C 43 %
902 01-12-2019 06:10:17 -1.1 C 43 %
903 01-12-2019 06:20:17 -1.3 C 43 %
904 01-12-2019 06:30:17 -1 C 43 %
905 01-12-2019 06:40:17 -0.9 C 43 %
906 01-12-2019 06:50:17 -0.9 C 43 %
907 01-12-2019 07:00:17 -0.8 C 43 %
908 01-12-2019 07:10:17 -0.7 C 43 %
909 01-12-2019 07:20:17 -0.5 C 43 %
910 01-12-2019 07:30:17 -0.5 C 43 %
911 01-12-2019 07:40:17 -0.3 C 43 %
912 01-12-2019 07:50:17 -0.2 C 43 %
913 01-12-2019 08:00:17 -0.1 C 43 %
914 01-12-2019 08:10:17 -0.1 C 43 %
915 01-12-2019 08:20:17 -0.2 C 43 %
916 01-12-2019 08:30:17 -0.2 C 43 %
917 01-12-2019 08:40:17 -0.2 C 43 %
918 01-12-2019 08:50:17 0 C 43 %
919 01-12-2019 09:00:17 0 C 42 %
920 01-12-2019 09:10:17 0.2 C 42 %
921 01-12-2019 09:20:17 0.1 C 42 %
922 01-12-2019 09:30:17 0.1 C 42 %
923 01-12-2019 09:40:17 0.2 C 41 %
924 01-12-2019 09:50:17 0.3 C 41 %
925 01-12-2019 10:00:17 0.5 C 41 %
Sensor: Nr:Datum:Temp:Feuchte:
Aussen-T/F 926 01-12-2019 10:10:17 0.6 C 41 %
927 01-12-2019 10:20:17 0.7 C 40 %
928 01-12-2019 10:30:17 0.8 C 39 %
929 01-12-2019 10:40:17 1 C 38 %
930 01-12-2019 10:50:17 1.1 C 37 %
931 01-12-2019 11:00:17 1.4 C 36 %
932 01-12-2019 11:10:17 1.9 C 34 %
933 01-12-2019 11:20:17 2.1 C 32 %
934 01-12-2019 11:30:17 2.7 C 30 %
935 01-12-2019 11:40:17 3 C 27 %
936 01-12-2019 11:50:17 2.9 C 20 %
937 01-12-2019 12:00:17 3 C 21 %
938 01-12-2019 12:10:17 3.1 C 20 %
939 01-12-2019 12:20:17 3.3 C 20 %
940 01-12-2019 12:30:18 3.3 C 20 %
941 01-12-2019 12:40:18 3.3 C 20 %
942 01-12-2019 12:50:18 3.4 C 20 %
943 01-12-2019 13:00:17 3.3 C 20 %
944 01-12-2019 13:10:17 3.4 C 20 %
945 01-12-2019 13:20:18 3.5 C 20 %
946 01-12-2019 13:30:18 3.5 C 20 %
947 01-12-2019 13:40:18 3.6 C 20 %
948 01-12-2019 13:50:17 3.8 C 20 %
949 01-12-2019 14:00:17 3.9 C 20 %
950 01-12-2019 14:10:18 3.9 C 20 %
Sensor: Nr:Datum:Temp:Feuchte:
Aussen-T/F 951 01-12-2019 14:20:18 3.7 C 20 %
952 01-12-2019 14:30:17 3.7 C 20 %
953 01-12-2019 14:40:17 3.6 C 20 %
954 01-12-2019 14:50:17 3.6 C 20 %
955 01-12-2019 15:00:17 3.5 C 20 %
956 01-12-2019 15:10:17 3.3 C 20 %
957 01-12-2019 15:20:17 3.2 C 21 %
958 01-12-2019 15:30:17 3 C 20 %
959 01-12-2019 15:40:17 3 C 21 %
960 01-12-2019 15:50:17 2.7 C 25 %
961 01-12-2019 16:00:17 2.6 C 25 %
962 01-12-2019 16:10:17 2.5 C 25 %
963 01-12-2019 16:20:17 2.4 C 25 %
964 01-12-2019 16:30:18 2.4 C 25 %
965 01-12-2019 16:40:18 2.2 C 25 %
966 01-12-2019 16:50:18 2.2 C 25 %
967 01-12-2019 17:00:18 2.2 C 25 %
968 01-12-2019 17:10:18 2.2 C 25 %
969 01-12-2019 17:20:17 2.3 C 25 %
970 01-12-2019 17:30:17 2.3 C 25 %
971 01-12-2019 17:40:17 2.3 C 25 %
972 01-12-2019 17:50:17 2.3 C 25 %
973 01-12-2019 18:00:17 2.3 C 25 %
974 01-12-2019 18:10:17 2.3 C 25 %
975 01-12-2019 18:20:17 2.3 C 25 %
Sensor: Nr:Datum:Temp:Feuchte:
Aussen-T/F 976 01-12-2019 18:30:17 2.3 C 25 %
977 01-12-2019 18:40:17 2.3 C 25 %
978 01-12-2019 18:50:17 2.3 C 23 %
979 01-12-2019 19:00:17 2.3 C 23 %
980 01-12-2019 19:10:18 2.4 C 25 %
981 01-12-2019 19:20:17 2.3 C 25 %
982 01-12-2019 19:30:17 2.3 C 25 %
983 01-12-2019 19:40:17 2.3 C 25 %
984 01-12-2019 19:50:17 2.2 C 26 %
985 01-12-2019 20:00:17 2.5 C 25 %
986 01-12-2019 20:10:17 2.2 C 25 %
987 01-12-2019 20:20:17 2.1 C 25 %
988 01-12-2019 20:30:18 2.1 C 25 %
989 01-12-2019 20:40:18 2.1 C 25 %
990 01-12-2019 20:50:17 2 C 27 %
991 01-12-2019 21:00:17 1.9 C 27 %
992 01-12-2019 21:10:17 1.8 C 28 %
993 01-12-2019 21:20:17 1.6 C 30 %
994 01-12-2019 21:30:18 1.5 C 29 %
995 01-12-2019 21:40:18 1.6 C 28 %
996 01-12-2019 21:50:17 1.6 C 28 %
997 01-12-2019 22:00:17 1.5 C 29 %
998 01-12-2019 22:10:17 1.4 C 29 %
999 01-12-2019 22:20:17 1.4 C 30 %
1000 01-12-2019 22:30:18 1.3 C 28 %
Sensor: Nr:Datum:Temp:Feuchte:
Aussen-T/F 1001 01-12-2019 22:40:18 1.2 C 29 %
1002 01-12-2019 22:50:17 1.1 C 29 %
1003 01-12-2019 23:00:17 0.8 C 30 %
1004 01-12-2019 23:10:17 0.8 C 30 %
1005 01-12-2019 23:20:18 0.7 C 30 %
1006 01-12-2019 23:30:17 0.5 C 32 %
1007 01-12-2019 23:40:17 0.3 C 33 %
1008 01-12-2019 23:50:17 0.2 C 33 %
1009 02-12-2019 00:00:17 0.1 C 33 %
1010 02-12-2019 00:10:17 0.2 C 33 %
1011 02-12-2019 00:20:17 0.3 C 32 %
1012 02-12-2019 00:30:17 0.3 C 32 %
1013 02-12-2019 00:40:17 0.2 C 32 %
1014 02-12-2019 00:50:18 0.2 C 35 %
1015 02-12-2019 01:00:17 0.1 C 36 %
1016 02-12-2019 01:10:17 0 C 38 %
1017 02-12-2019 01:20:17 -0.2 C 36 %
1018 02-12-2019 01:30:17 0.2 C 34 %
1019 02-12-2019 01:40:17 -0.2 C 35 %
1020 02-12-2019 01:50:17 -0.9 C 35 %
1021 02-12-2019 02:00:18 -0.9 C 37 %
1022 02-12-2019 02:10:18 -0.9 C 37 %
1023 02-12-2019 02:20:17 -0.5 C 37 %
1024 02-12-2019 02:30:17 -1 C 36 %
1025 02-12-2019 02:40:17 -1.1 C 37 %
Sensor: Nr:Datum:Temp:Feuchte:
Aussen-T/F 1026 02-12-2019 02:50:17 -1.1 C 36 %
1027 02-12-2019 03:00:17 -1 C 37 %
1028 02-12-2019 03:10:17 -1.2 C 38 %
1029 02-12-2019 03:20:17 -1.3 C 37 %
1030 02-12-2019 03:30:18 -1.3 C 38 %
1031 02-12-2019 03:40:18 -1.4 C 37 %
1032 02-12-2019 03:50:17 -1.4 C 37 %
1033 02-12-2019 04:00:18 -1.7 C 39 %
1034 02-12-2019 04:10:18 -1.4 C 40 %
1035 02-12-2019 04:20:17 -1.1 C 40 %
1036 02-12-2019 04:30:17 -1 C 40 %
1037 02-12-2019 04:40:17 -0.8 C 36 %
1038 02-12-2019 04:50:17 -1.1 C 37 %
1039 02-12-2019 05:00:17 -1.4 C 40 %
1040 02-12-2019 05:10:17 -1.1 C 40 %
1041 02-12-2019 05:20:17 -1.2 C 39 %
1042 02-12-2019 05:30:17 -1.6 C 40 %
1043 02-12-2019 05:40:17 -1.4 C 41 %
1044 02-12-2019 05:50:17 -1.3 C 42 %
1045 02-12-2019 06:00:17 -1.2 C 41 %
1046 02-12-2019 06:10:17 -1.3 C 39 %
1047 02-12-2019 06:20:17 -1.2 C 39 %
1048 02-12-2019 06:30:17 -1.4 C 38 %
1049 02-12-2019 06:40:17 -1.4 C 40 %
1050 02-12-2019 06:50:17 -1.8 C 37 %
Sensor: Nr:Datum:Temp:Feuchte:
Aussen-T/F 1051 02-12-2019 07:00:17 -2.4 C 38 %
1052 02-12-2019 07:10:17 -2.6 C 40 %
1053 02-12-2019 07:20:17 -2.9 C 40 %
1054 02-12-2019 07:30:17 -2.7 C 42 %
1055 02-12-2019 07:40:17 -2.6 C 42 %
1056 02-12-2019 07:50:17 -2.4 C 43 %
1057 02-12-2019 08:00:17 -1.9 C 45 %
1058 02-12-2019 08:10:18 -1.6 C 44 %
1059 02-12-2019 08:20:17 -1.3 C 44 %
1060 02-12-2019 08:30:17 -1 C 43 %
1061 02-12-2019 08:40:17 -0.7 C 43 %
1062 02-12-2019 08:50:17 -0.5 C 42 %
1063 02-12-2019 09:00:17 -0.5 C 40 %
1064 02-12-2019 09:10:17 -0.4 C 38 %
1065 02-12-2019 09:20:17 -0.4 C 36 %
1066 02-12-2019 09:30:17 -0.4 C 36 %
1067 02-12-2019 09:40:17 0 C 36 %
1068 02-12-2019 09:50:17 0 C 35 %
1069 02-12-2019 10:00:17 0.1 C 35 %
1070 02-12-2019 10:10:17 0.1 C 34 %
1071 02-12-2019 10:20:17 0.2 C 35 %
1072 02-12-2019 10:30:17 0.5 C 36 %
1073 02-12-2019 10:40:17 1 C 31 %
1074 02-12-2019 10:50:17 0.8 C 31 %
1075 02-12-2019 11:00:17 1.2 C 30 %
Sensor: Nr:Datum:Temp:Feuchte:
Aussen-T/F 1076 02-12-2019 11:10:17 1.1 C 30 %
1077 02-12-2019 11:20:17 1.2 C 30 %
1078 02-12-2019 11:30:17 0.9 C 31 %
1079 02-12-2019 11:40:18 1 C 31 %
1080 02-12-2019 11:50:17 0.8 C 32 %
1081 02-12-2019 12:00:18 1.6 C 31 %
1082 02-12-2019 12:10:18 2.3 C 27 %
1083 02-12-2019 12:20:17 2.8 C 25 %
1084 02-12-2019 12:30:17 3.1 C 26 %
1085 02-12-2019 12:40:17 3 C 25 %
1086 02-12-2019 12:50:18 3.2 C 26 %
1087 02-12-2019 13:00:17 3.2 C 26 %
1088 02-12-2019 13:10:17 3.5 C 25 %
1089 02-12-2019 13:20:17 3.9 C 25 %
1090 02-12-2019 13:30:17 3.9 C 25 %
1091 02-12-2019 13:40:17 3.8 C 25 %
1092 02-12-2019 13:50:17 3.6 C 25 %
1093 02-12-2019 14:00:17 4 C 26 %
1094 02-12-2019 14:10:17 3.7 C 28 %
1095 02-12-2019 14:20:17 3.7 C 30 %
1096 02-12-2019 14:30:17 4.1 C 27 %
1097 02-12-2019 14:40:17 4.3 C 27 %
1098 02-12-2019 14:50:17 4.5 C 27 %
1099 02-12-2019 15:00:18 4.3 C 28 %
1100 02-12-2019 15:10:18 4.3 C 29 %
Sensor: Nr:Datum:Temp:Feuchte:
Aussen-T/F 1101 02-12-2019 15:20:17 4.7 C 27 %
1102 02-12-2019 15:30:17 4.4 C 27 %
1103 02-12-2019 15:40:17 4.1 C 31 %
1104 02-12-2019 15:50:17 3.9 C 36 %
1105 02-12-2019 16:00:18 3.7 C 37 %
1106 02-12-2019 16:10:18 3.6 C 37 %
1107 02-12-2019 16:20:17 3.5 C 40 %
1108 02-12-2019 16:30:17 3.5 C 38 %
1109 02-12-2019 16:40:17 3.5 C 35 %
1110 02-12-2019 16:50:17 3.5 C 35 %
1111 02-12-2019 17:00:17 3.3 C 36 %
1112 02-12-2019 17:10:17 3.2 C 39 %
1113 02-12-2019 17:20:17 3.2 C 36 %
1114 02-12-2019 17:30:18 3.3 C 36 %
1115 02-12-2019 17:40:18 3.4 C 35 %
1116 02-12-2019 17:50:17 3.3 C 35 %
1117 02-12-2019 18:01:17 3.1 C 36 %
1118 02-12-2019 18:11:17 3.2 C 37 %
1119 02-12-2019 18:21:17 3.2 C 36 %
1120 02-12-2019 18:30:17 3 C 36 %
1121 02-12-2019 18:40:17 2.5 C 40 %
1122 02-12-2019 18:50:17 2.2 C 40 %
1123 02-12-2019 19:00:17 2.1 C 42 %
1124 02-12-2019 19:10:17 2.7 C 43 %
1125 02-12-2019 19:21:17 2.7 C 42 %
Sensor: Nr:Datum:Temp:Feuchte:
Aussen-T/F 1126 02-12-2019 19:30:17 2.7 C 41 %
1127 02-12-2019 19:40:17 2.9 C 42 %
1128 02-12-2019 19:51:17 2.9 C 42 %
1129 02-12-2019 20:01:17 2.9 C 39 %
1130 02-12-2019 20:11:17 2.8 C 38 %
1131 02-12-2019 20:21:17 2.9 C 37 %
1132 02-12-2019 20:31:17 2.9 C 38 %
1133 02-12-2019 20:40:17 2.8 C 40 %
1134 02-12-2019 20:51:17 2.7 C 42 %
1135 02-12-2019 21:00:17 2.7 C 42 %
1136 02-12-2019 21:10:17 2.7 C 42 %
1137 02-12-2019 21:21:17 2.7 C 42 %
1138 02-12-2019 21:30:18 2.7 C 42 %
1139 02-12-2019 21:40:18 2.6 C 41 %
1140 02-12-2019 21:51:17 2.6 C 42 %
1141 02-12-2019 22:01:17 2.6 C 41 %
1142 02-12-2019 22:11:17 2.6 C 41 %
1143 02-12-2019 22:21:17 2.6 C 41 %
1144 02-12-2019 22:30:18 2.5 C 40 %
1145 02-12-2019 22:40:18 2.5 C 41 %
1146 02-12-2019 22:51:17 2.4 C 41 %
1147 02-12-2019 23:01:17 2.5 C 41 %
1148 02-12-2019 23:11:17 2.4 C 42 %
1149 02-12-2019 23:21:17 2.5 C 42 %
1150 02-12-2019 23:31:17 2.5 C 42 %
Sensor: Nr:Datum:Temp:Feuchte:
Aussen-T/F 1151 02-12-2019 23:41:17 2.5 C 42 %
1152 02-12-2019 23:50:18 2.5 C 42 %
1153 03-12-2019 00:01:17 2.5 C 42 %
1154 03-12-2019 00:11:17 2.5 C 42 %
1155 03-12-2019 00:21:17 2.5 C 41 %
1156 03-12-2019 00:30:18 2.5 C 41 %
1157 03-12-2019 00:40:18 2.6 C 41 %
1158 03-12-2019 00:51:17 2.6 C 41 %
1159 03-12-2019 01:01:18 2.6 C 41 %
1160 03-12-2019 01:11:18 2.6 C 41 %
1161 03-12-2019 01:21:17 2.7 C 41 %
1162 03-12-2019 01:31:17 2.7 C 41 %
1163 03-12-2019 01:41:17 2.7 C 42 %
1164 03-12-2019 01:51:17 2.7 C 42 %
1165 03-12-2019 02:01:17 2.7 C 42 %
1166 03-12-2019 02:11:17 2.8 C 42 %
1167 03-12-2019 02:21:17 2.8 C 42 %
1168 03-12-2019 02:31:17 2.8 C 42 %
1169 03-12-2019 02:41:17 2.9 C 42 %
1170 03-12-2019 02:51:17 2.8 C 42 %
1171 03-12-2019 03:01:17 2.8 C 42 %
1172 03-12-2019 03:11:17 2.8 C 42 %
1173 03-12-2019 03:21:17 2.8 C 42 %
1174 03-12-2019 03:31:17 2.9 C 42 %
1175 03-12-2019 03:41:17 3 C 42 %
Sensor: Nr:Datum:Temp:Feuchte:
Aussen-T/F 1176 03-12-2019 03:51:17 3 C 42 %
1177 03-12-2019 04:01:17 3 C 42 %
1178 03-12-2019 04:11:17 3 C 42 %
1179 03-12-2019 04:21:17 3 C 42 %
1180 03-12-2019 04:31:17 3.1 C 42 %
1181 03-12-2019 04:41:17 3.1 C 42 %
1182 03-12-2019 04:51:17 3.1 C 42 %
1183 03-12-2019 05:01:17 3.1 C 42 %
1184 03-12-2019 05:11:17 3.1 C 42 %
1185 03-12-2019 05:21:17 3.1 C 42 %
1186 03-12-2019 05:31:17 3.2 C 42 %
1187 03-12-2019 05:41:17 3.2 C 41 %
1188 03-12-2019 05:51:17 3.2 C 41 %
1189 03-12-2019 06:01:18 3.2 C 41 %
1190 03-12-2019 06:11:18 3.2 C 41 %
1191 03-12-2019 06:21:17 3.2 C 41 %
1192 03-12-2019 06:31:17 3.3 C 41 %
1193 03-12-2019 06:41:17 3.3 C 41 %
1194 03-12-2019 06:51:18 3.3 C 41 %
1195 03-12-2019 07:01:17 3.3 C 41 %
1196 03-12-2019 07:11:17 3.3 C 41 %
1197 03-12-2019 07:21:17 3.3 C 41 %
1198 03-12-2019 07:31:17 3.2 C 41 %
1199 03-12-2019 07:41:17 3.3 C 41 %
1200 03-12-2019 07:51:17 3.3 C 42 %
Sensor: Nr:Datum:Temp:Feuchte:
Aussen-T/F 1201 03-12-2019 08:01:17 3.3 C 42 %
1202 03-12-2019 08:11:17 3.4 C 42 %
1203 03-12-2019 08:21:17 3.3 C 42 %
1204 03-12-2019 08:31:17 3.4 C 42 %
1205 03-12-2019 08:41:17 3.4 C 41 %
1206 03-12-2019 08:51:17 3.4 C 41 %
1207 03-12-2019 09:01:17 3.5 C 42 %
1208 03-12-2019 09:11:17 3.5 C 42 %
1209 03-12-2019 09:21:17 3.5 C 41 %
1210 03-12-2019 09:31:17 3.6 C 41 %
1211 03-12-2019 09:41:17 3.6 C 41 %
1212 03-12-2019 09:51:17 3.7 C 41 %
1213 03-12-2019 10:01:17 3.7 C 41 %
1214 03-12-2019 10:11:17 3.8 C 41 %
1215 03-12-2019 10:21:17 3.8 C 41 %
1216 03-12-2019 10:31:17 3.8 C 41 %
1217 03-12-2019 10:41:17 4.1 C 40 %
1218 03-12-2019 10:51:17 4.1 C 40 %
1219 03-12-2019 11:01:18 4.3 C 39 %
1220 03-12-2019 11:11:18 4.3 C 37 %
1221 03-12-2019 11:21:17 4.4 C 37 %
1222 03-12-2019 11:31:17 4.6 C 37 %
1223 03-12-2019 11:41:17 4.6 C 37 %
1224 03-12-2019 11:51:17 4.7 C 37 %
1225 03-12-2019 12:01:17 4.7 C 37 %
Sensor: Nr:Datum:Temp:Feuchte:
Aussen-T/F 1226 03-12-2019 12:11:17 4.9 C 35 %
1227 03-12-2019 12:21:17 5 C 34 %
1228 03-12-2019 12:31:17 5 C 35 %
1229 03-12-2019 12:41:17 5.2 C 35 %
1230 03-12-2019 12:51:18 5.3 C 34 %
1231 03-12-2019 13:01:17 5.6 C 34 %
1232 03-12-2019 13:11:17 5.8 C 33 %
1233 03-12-2019 13:21:17 5.8 C 32 %
1234 03-12-2019 13:31:17 5.7 C 32 %
1235 03-12-2019 13:41:17 5.9 C 32 %
1236 03-12-2019 13:51:18 6.1 C 31 %
1237 03-12-2019 14:01:17 6.1 C 31 %
1238 03-12-2019 14:11:17 6.2 C 31 %
1239 03-12-2019 14:21:17 6.1 C 31 %
1240 03-12-2019 14:31:17 6.3 C 31 %
1241 03-12-2019 14:41:17 6.2 C 30 %
1242 03-12-2019 14:51:18 6.4 C 31 %
1243 03-12-2019 15:01:17 6.2 C 30 %
1244 03-12-2019 15:11:17 6.3 C 31 %
1245 03-12-2019 15:21:17 6.3 C 31 %
1246 03-12-2019 15:31:17 6.2 C 31 %
1247 03-12-2019 15:41:17 6.1 C 32 %
1248 03-12-2019 15:51:17 6 C 33 %
1249 03-12-2019 16:01:17 5.7 C 36 %
1250 03-12-2019 16:11:17 5.6 C 39 %
Sensor: Nr:Datum:Temp:Feuchte:
Aussen-T/F 1251 03-12-2019 16:21:17 5.4 C 40 %
1252 03-12-2019 16:31:18 5.3 C 41 %
1253 03-12-2019 16:41:18 5.2 C 41 %
1254 03-12-2019 16:51:17 5.2 C 41 %
1255 03-12-2019 17:01:18 5.1 C 41 %
1256 03-12-2019 17:11:18 5.1 C 41 %
1257 03-12-2019 17:21:17 5.1 C 41 %
1258 03-12-2019 17:31:17 5 C 41 %
1259 03-12-2019 17:41:17 5 C 41 %
1260 03-12-2019 17:51:17 5 C 41 %
1261 03-12-2019 18:01:18 4.8 C 41 %
1262 03-12-2019 18:11:18 4.7 C 40 %
1263 03-12-2019 18:21:17 4.7 C 40 %
1264 03-12-2019 18:31:18 4.7 C 40 %
1265 03-12-2019 18:41:18 4.7 C 40 %
1266 03-12-2019 18:51:17 4.7 C 40 %
1267 03-12-2019 19:01:17 4.7 C 40 %
1268 03-12-2019 19:11:17 4.6 C 39 %
1269 03-12-2019 19:21:17 4.6 C 38 %
1270 03-12-2019 19:31:17 4.6 C 38 %
1271 03-12-2019 19:41:17 4.4 C 37 %
1272 03-12-2019 19:51:17 4.3 C 38 %
1273 03-12-2019 20:01:17 4.3 C 39 %
1274 03-12-2019 20:11:17 4.3 C 38 %
1275 03-12-2019 20:21:18 4.2 C 37 %
Sensor: Nr:Datum:Temp:Feuchte:
Aussen-T/F 1276 03-12-2019 20:31:17 4.2 C 38 %
1277 03-12-2019 20:41:18 4.1 C 39 %
1278 03-12-2019 20:51:17 3.9 C 40 %
1279 03-12-2019 21:01:17 3.9 C 41 %
1280 03-12-2019 21:11:17 4 C 40 %
1281 03-12-2019 21:21:17 4 C 40 %
1282 03-12-2019 21:31:17 3.8 C 40 %
1283 03-12-2019 21:41:17 3.5 C 40 %
1284 03-12-2019 21:51:17 3.3 C 40 %
1285 03-12-2019 22:01:17 2.9 C 41 %
1286 03-12-2019 22:11:17 2.8 C 42 %
1287 03-12-2019 22:21:18 2.8 C 42 %
1288 03-12-2019 22:31:18 3.3 C 42 %
1289 03-12-2019 22:41:18 3.5 C 40 %
1290 03-12-2019 22:51:17 3.2 C 38 %
1291 03-12-2019 23:01:18 2.6 C 39 %
1292 03-12-2019 23:11:18 2.5 C 41 %
1293 03-12-2019 23:21:17 2.5 C 41 %
1294 03-12-2019 23:31:17 2.2 C 40 %
1295 03-12-2019 23:41:17 2.8 C 40 %
1296 03-12-2019 23:51:17 2.6 C 38 %
1297 04-12-2019 00:01:18 2.3 C 39 %
1298 04-12-2019 00:11:18 1.7 C 41 %
1299 04-12-2019 00:21:17 1.3 C 42 %
1300 04-12-2019 00:31:17 0.9 C 43 %
Sensor: Nr:Datum:Temp:Feuchte:
Aussen-T/F 1301 04-12-2019 00:41:17 0.4 C 43 %
1302 04-12-2019 00:51:17 0.6 C 45 %
1303 04-12-2019 01:01:18 0.2 C 44 %
1304 04-12-2019 01:11:18 0.2 C 45 %
1305 04-12-2019 01:21:17 0 C 44 %
1306 04-12-2019 01:31:17 -0.1 C 45 %
1307 04-12-2019 01:41:17 0.1 C 45 %
1308 04-12-2019 01:51:18 -0.3 C 45 %
1309 04-12-2019 02:01:17 -0.3 C 45 %
1310 04-12-2019 02:11:17 -0.2 C 45 %
1311 04-12-2019 02:21:17 -0.5 C 45 %
1312 04-12-2019 02:31:18 -0.4 C 45 %
1313 04-12-2019 02:41:18 0.1 C 45 %
1314 04-12-2019 02:51:17 0.3 C 45 %
1315 04-12-2019 03:01:18 0.6 C 45 %
1316 04-12-2019 03:11:18 0.9 C 45 %
1317 04-12-2019 03:21:17 0.9 C 45 %
1318 04-12-2019 03:31:17 1 C 44 %
1319 04-12-2019 03:41:17 1 C 44 %
1320 04-12-2019 03:51:17 1 C 44 %
1321 04-12-2019 04:01:18 0.8 C 45 %
1322 04-12-2019 04:11:18 0.9 C 45 %
1323 04-12-2019 04:21:17 0.8 C 45 %
1324 04-12-2019 04:31:17 0.8 C 45 %
1325 04-12-2019 04:41:17 0.8 C 45 %
Sensor: Nr:Datum:Temp:Feuchte:
Aussen-T/F 1326 04-12-2019 04:51:17 0.8 C 45 %
1327 04-12-2019 05:01:17 0.8 C 45 %
1328 04-12-2019 05:11:17 0.8 C 44 %
1329 04-12-2019 05:21:17 0.8 C 44 %
1330 04-12-2019 05:31:17 1 C 43 %
1331 04-12-2019 05:41:17 1 C 43 %
1332 04-12-2019 05:51:18 1 C 43 %
1333 04-12-2019 06:01:17 1 C 43 %
1334 04-12-2019 06:11:17 1.1 C 43 %
1335 04-12-2019 06:21:17 1.2 C 43 %
1336 04-12-2019 06:31:17 1.2 C 43 %
1337 04-12-2019 06:41:18 1.2 C 43 %
1338 04-12-2019 06:51:17 1.2 C 43 %
1339 04-12-2019 07:01:17 1.1 C 43 %
1340 04-12-2019 07:11:17 1.1 C 43 %
1341 04-12-2019 07:21:18 1.1 C 43 %
1342 04-12-2019 07:31:17 1 C 43 %
1343 04-12-2019 07:41:17 0.9 C 44 %
1344 04-12-2019 07:51:17 1 C 43 %
1345 04-12-2019 08:01:17 0.9 C 44 %
1346 04-12-2019 08:11:17 0.9 C 44 %
1347 04-12-2019 08:21:17 0.9 C 44 %
1348 04-12-2019 08:31:17 0.9 C 44 %
1349 04-12-2019 08:41:17 1 C 42 %
1350 04-12-2019 08:51:17 1 C 42 %
Sensor: Nr:Datum:Temp:Feuchte:
Aussen-T/F 1351 04-12-2019 09:01:18 1 C 42 %
1352 04-12-2019 09:11:18 1.2 C 42 %
1353 04-12-2019 09:21:18 1.2 C 42 %
1354 04-12-2019 09:31:17 1.2 C 41 %
1355 04-12-2019 09:41:17 1.2 C 41 %
1356 04-12-2019 09:51:17 1.4 C 41 %
1357 04-12-2019 10:01:17 1.5 C 41 %
1358 04-12-2019 10:11:18 1.4 C 39 %
1359 04-12-2019 10:21:17 1.3 C 38 %
1360 04-12-2019 10:31:17 1.1 C 37 %
1361 04-12-2019 10:41:17 1.1 C 37 %
1362 04-12-2019 10:51:18 1 C 38 %
1363 04-12-2019 11:01:17 1 C 38 %
1364 04-12-2019 11:11:17 1.1 C 39 %
1365 04-12-2019 11:21:17 1.1 C 39 %
1366 04-12-2019 11:31:18 1.1 C 40 %
1367 04-12-2019 11:41:18 1 C 40 %
1368 04-12-2019 11:51:17 1.1 C 41 %
1369 04-12-2019 12:01:17 1.2 C 41 %
1370 04-12-2019 12:11:17 1.3 C 41 %
1371 04-12-2019 12:21:18 1.3 C 41 %
1372 04-12-2019 12:31:17 1.5 C 41 %
1373 04-12-2019 12:41:17 1.5 C 41 %
1374 04-12-2019 12:51:17 1.6 C 41 %
1375 04-12-2019 13:01:17 1.6 C 41 %
Sensor: Nr:Datum:Temp:Feuchte:
Aussen-T/F 1376 04-12-2019 13:11:17 1.7 C 41 %
1377 04-12-2019 13:21:17 1.8 C 40 %
1378 04-12-2019 13:31:18 1.8 C 40 %
1379 04-12-2019 13:41:18 2.1 C 38 %
1380 04-12-2019 13:51:17 2.1 C 37 %
1381 04-12-2019 14:01:17 2.1 C 37 %
1382 04-12-2019 14:11:17 2.1 C 36 %
1383 04-12-2019 14:21:17 2.1 C 36 %
1384 04-12-2019 14:31:18 2 C 36 %
1385 04-12-2019 14:41:18 2.2 C 35 %
1386 04-12-2019 14:51:17 2.1 C 36 %
1387 04-12-2019 15:01:18 2 C 37 %
1388 04-12-2019 15:11:18 1.7 C 38 %
1389 04-12-2019 15:21:17 1.7 C 40 %
1390 04-12-2019 15:31:17 1.7 C 40 %
1391 04-12-2019 15:41:17 1.8 C 39 %
1392 04-12-2019 15:51:18 1.8 C 39 %
1393 04-12-2019 16:01:17 1.6 C 37 %
1394 04-12-2019 16:11:17 1.5 C 37 %
1395 04-12-2019 16:21:17 1.4 C 37 %
1396 04-12-2019 16:31:17 1.4 C 37 %
1397 04-12-2019 16:41:17 1.2 C 37 %
1398 04-12-2019 16:51:17 1.1 C 36 %
1399 04-12-2019 17:01:17 1 C 37 %
1400 04-12-2019 17:11:17 1 C 37 %
Sensor: Nr:Datum:Temp:Feuchte:
Aussen-T/F 1401 04-12-2019 17:21:18 1 C 36 %
1402 04-12-2019 17:31:17 0.9 C 38 %
1403 04-12-2019 17:41:17 0.6 C 38 %
1404 04-12-2019 17:51:18 0.7 C 39 %
1405 04-12-2019 18:01:17 0.8 C 38 %
1406 04-12-2019 18:11:17 0.3 C 39 %
1407 04-12-2019 18:21:17 0.4 C 40 %
1408 04-12-2019 18:31:17 0.6 C 40 %
1409 04-12-2019 18:41:17 -0.2 C 40 %
1410 04-12-2019 18:51:17 -0.5 C 41 %
1411 04-12-2019 19:01:17 -0.3 C 44 %
1412 04-12-2019 19:11:17 -0.7 C 42 %
1413 04-12-2019 19:21:17 -1.1 C 42 %
1414 04-12-2019 19:31:17 -1 C 44 %
1415 04-12-2019 19:41:17 -1.2 C 44 %
1416 04-12-2019 19:51:17 -1.4 C 43 %
1417 04-12-2019 20:01:17 -1.3 C 44 %
1418 04-12-2019 20:11:17 -1.1 C 45 %
1419 04-12-2019 20:21:17 -1.5 C 44 %
1420 04-12-2019 20:31:17 -1.5 C 44 %
1421 04-12-2019 20:41:17 -1.8 C 43 %
1422 04-12-2019 20:51:18 -1.9 C 44 %
1423 04-12-2019 21:01:18 -1.9 C 44 %
1424 04-12-2019 21:11:18 -1.7 C 44 %
1425 04-12-2019 21:21:17 -2 C 43 %
Sensor: Nr:Datum:Temp:Feuchte:
Aussen-T/F 1426 04-12-2019 21:31:17 -2 C 43 %
1427 04-12-2019 21:41:17 -2.4 C 43 %
1428 04-12-2019 21:51:17 -2.4 C 43 %
1429 04-12-2019 22:01:17 -2.5 C 43 %
1430 04-12-2019 22:11:17 -2.6 C 43 %
1431 04-12-2019 22:21:17 -2.7 C 44 %
1432 04-12-2019 22:31:18 -2.8 C 43 %
1433 04-12-2019 22:41:18 -2.7 C 43 %
1434 04-12-2019 22:51:17 -2.5 C 43 %
1435 04-12-2019 23:01:17 -2.6 C 42 %
1436 04-12-2019 23:11:17 -2.9 C 42 %
1437 04-12-2019 23:21:17 -2.7 C 42 %
1438 04-12-2019 23:31:17 -2.7 C 42 %
1439 04-12-2019 23:41:17 -2.9 C 41 %
1440 04-12-2019 23:51:18 -2.9 C 42 %
1441 05-12-2019 00:01:17 -3 C 41 %
1442 05-12-2019 00:11:17 -3 C 41 %
1443 05-12-2019 00:21:17 -3.1 C 41 %
1444 05-12-2019 00:31:18 -2.8 C 41 %
1445 05-12-2019 00:41:18 -2.8 C 41 %
1446 05-12-2019 00:51:17 -2.9 C 41 %
1447 05-12-2019 01:01:17 -2.9 C 41 %
1448 05-12-2019 01:11:17 -3.2 C 41 %
1449 05-12-2019 01:21:17 -2.5 C 43 %
1450 05-12-2019 01:31:18 -2.6 C 43 %
Sensor: Nr:Datum:Temp:Feuchte:
Aussen-T/F 1451 05-12-2019 01:41:18 -2.7 C 43 %
1452 05-12-2019 01:51:17 -2.6 C 43 %
1453 05-12-2019 02:01:17 -2.6 C 42 %
1454 05-12-2019 02:11:18 -2.8 C 41 %
1455 05-12-2019 02:21:17 -3 C 41 %
1456 05-12-2019 02:31:17 -3.2 C 41 %
1457 05-12-2019 02:41:17 -3.2 C 41 %
1458 05-12-2019 02:51:17 -3.2 C 41 %
1459 05-12-2019 03:01:17 -3.4 C 40 %
1460 05-12-2019 03:11:17 -3.5 C 40 %
1461 05-12-2019 03:21:17 -3.3 C 41 %
1462 05-12-2019 03:31:17 -3.2 C 41 %
1463 05-12-2019 03:41:17 -3.6 C 40 %
1464 05-12-2019 03:51:17 -3 C 43 %
1465 05-12-2019 04:01:17 -2.7 C 43 %
1466 05-12-2019 04:11:17 -2.7 C 43 %
1467 05-12-2019 04:21:17 -2.7 C 43 %
1468 05-12-2019 04:31:18 -2.9 C 42 %
1469 05-12-2019 04:41:18 -3.3 C 40 %
1470 05-12-2019 04:51:17 -2.9 C 42 %
1471 05-12-2019 05:01:17 -2.8 C 43 %
1472 05-12-2019 05:11:17 -2.8 C 42 %
1473 05-12-2019 05:21:17 -2.7 C 43 %
1474 05-12-2019 05:31:17 -2.7 C 43 %
1475 05-12-2019 05:41:18 -2.5 C 43 %
Sensor: Nr:Datum:Temp:Feuchte:
Aussen-T/F 1476 05-12-2019 05:51:17 -2.5 C 43 %
1477 05-12-2019 06:01:17 -2.6 C 43 %
1478 05-12-2019 06:11:17 -2.7 C 43 %
1479 05-12-2019 06:21:17 -2.9 C 43 %
1480 05-12-2019 06:31:17 -2.9 C 43 %
1481 05-12-2019 06:41:17 -3 C 42 %
1482 05-12-2019 06:51:17 -2.9 C 43 %
1483 05-12-2019 07:01:17 -2.9 C 42 %
1484 05-12-2019 07:11:17 -2.9 C 42 %
1485 05-12-2019 07:21:17 -3.2 C 42 %
1486 05-12-2019 07:31:17 -3.1 C 42 %
1487 05-12-2019 07:41:18 -2.9 C 42 %
1488 05-12-2019 07:51:17 -2.9 C 42 %
1489 05-12-2019 08:01:17 -3 C 42 %
1490 05-12-2019 08:11:17 -2.8 C 43 %
1491 05-12-2019 08:21:18 -2.9 C 42 %
1492 05-12-2019 08:31:17 -2.8 C 42 %
1493 05-12-2019 08:41:17 -3 C 42 %
1494 05-12-2019 08:51:17 -3 C 42 %
1495 05-12-2019 09:01:18 -2.7 C 43 %
1496 05-12-2019 09:11:18 -2.6 C 43 %
1497 05-12-2019 09:21:17 -2.6 C 42 %
1498 05-12-2019 09:31:17 -2.6 C 42 %
1499 05-12-2019 09:41:17 -2.5 C 43 %
1500 05-12-2019 09:51:17 -2.4 C 42 %
Sensor: Nr:Datum:Temp:Feuchte:
Aussen-T/F 1501 05-12-2019 10:01:18 -2.3 C 42 %
1502 05-12-2019 10:11:18 -2.4 C 42 %
1503 05-12-2019 10:21:17 -2.1 C 43 %
1504 05-12-2019 10:31:17 -1.7 C 43 %
1505 05-12-2019 10:41:17 -2 C 42 %
1506 05-12-2019 10:51:18 -1.7 C 42 %
1507 05-12-2019 11:01:17 -1.7 C 43 %
1508 05-12-2019 11:11:17 -1.4 C 42 %
1509 05-12-2019 11:21:17 -1.2 C 41 %
1510 05-12-2019 11:31:18 -1.2 C 41 %
1511 05-12-2019 11:41:18 -0.7 C 42 %
1512 05-12-2019 11:51:17 -0.9 C 42 %
1513 05-12-2019 12:01:18 -1 C 41 %
1514 05-12-2019 12:11:18 -0.8 C 41 %
1515 05-12-2019 12:21:17 -0.6 C 41 %
1516 05-12-2019 12:31:17 -0.8 C 40 %
1517 05-12-2019 12:41:17 -0.9 C 40 %
1518 05-12-2019 12:51:18 -0.6 C 41 %
1519 05-12-2019 13:01:17 -0.5 C 40 %
1520 05-12-2019 13:11:17 -0.6 C 40 %
1521 05-12-2019 13:21:17 -0.4 C 41 %
1522 05-12-2019 13:31:17 -0.4 C 41 %
1523 05-12-2019 13:41:17 -0.2 C 41 %
1524 05-12-2019 13:51:17 0.1 C 40 %
1525 05-12-2019 14:01:18 0.1 C 40 %
Sensor: Nr:Datum:Temp:Feuchte:
Aussen-T/F 1526 05-12-2019 14:11:18 0.2 C 40 %
1527 05-12-2019 14:21:17 0.2 C 40 %
1528 05-12-2019 14:31:17 0.2 C 40 %
1529 05-12-2019 14:41:17 0.2 C 40 %
1530 05-12-2019 14:51:17 0.2 C 41 %
1531 05-12-2019 15:01:17 0.1 C 41 %
1532 05-12-2019 15:11:17 0 C 41 %
1533 05-12-2019 15:21:17 -0.1 C 42 %
1534 05-12-2019 15:31:17 -0.1 C 43 %
1535 05-12-2019 15:41:17 -0.1 C 44 %
1536 05-12-2019 15:51:18 -0.1 C 44 %
1537 05-12-2019 16:01:17 -0.4 C 44 %
1538 05-12-2019 16:11:17 -0.5 C 44 %
1539 05-12-2019 16:21:17 -0.7 C 45 %
1540 05-12-2019 16:31:18 -0.8 C 44 %
1541 05-12-2019 16:41:18 -1 C 44 %
1542 05-12-2019 16:51:17 -1 C 44 %
1543 05-12-2019 17:01:17 -1.2 C 44 %
1544 05-12-2019 17:11:17 -1.1 C 45 %
1545 05-12-2019 17:21:18 -1.2 C 45 %
1546 05-12-2019 17:31:17 -1.3 C 44 %
1547 05-12-2019 17:41:17 -1.7 C 44 %
1548 05-12-2019 17:51:17 -1.6 C 44 %
1549 05-12-2019 18:01:18 -1.8 C 43 %
1550 05-12-2019 18:11:18 -2 C 43 %
Sensor: Nr:Datum:Temp:Feuchte:
Aussen-T/F 1551 05-12-2019 18:21:17 -2 C 43 %
1552 05-12-2019 18:31:17 -2 C 43 %
1553 05-12-2019 18:41:17 -2.2 C 43 %
1554 05-12-2019 18:51:18 -2.5 C 42 %
1555 05-12-2019 19:01:17 -2.1 C 43 %
1556 05-12-2019 19:11:17 -2.1 C 44 %
1557 05-12-2019 19:21:17 -2.6 C 42 %
1558 05-12-2019 19:31:17 -2.9 C 41 %
1559 05-12-2019 19:41:17 -2.6 C 42 %
1560 05-12-2019 19:51:18 -1.9 C 43 %
1561 05-12-2019 20:01:17 -1.5 C 44 %
1562 05-12-2019 20:11:17 -1.6 C 43 %
1563 05-12-2019 20:21:17 -1.5 C 43 %
1564 05-12-2019 20:31:17 -1.9 C 42 %
1565 05-12-2019 20:41:17 -2 C 42 %
1566 05-12-2019 20:51:18 -2.1 C 42 %
1567 05-12-2019 21:01:17 -2.3 C 42 %
1568 05-12-2019 21:11:17 -2.6 C 42 %
1569 05-12-2019 21:21:17 -2.1 C 43 %
1570 05-12-2019 21:31:17 -2 C 43 %
1571 05-12-2019 21:41:17 -2 C 43 %
1572 05-12-2019 21:51:17 -2 C 43 %
1573 05-12-2019 22:01:17 -2.3 C 42 %
1574 05-12-2019 22:11:17 -2.3 C 42 %
1575 05-12-2019 22:21:18 -2.2 C 42 %
Sensor: Nr:Datum:Temp:Feuchte:
Aussen-T/F 1576 05-12-2019 22:31:17 -2.4 C 42 %
1577 05-12-2019 22:41:17 -2.4 C 42 %
1578 05-12-2019 22:51:17 -2.3 C 42 %
1579 05-12-2019 23:01:17 -2.6 C 41 %
1580 05-12-2019 23:11:17 -2.7 C 41 %
1581 05-12-2019 23:21:18 -2.7 C 42 %
1582 05-12-2019 23:31:17 -3.1 C 41 %
1583 05-12-2019 23:41:17 -3.3 C 41 %
1584 05-12-2019 23:51:17 -3.2 C 42 %
1585 06-12-2019 00:01:18 -2.9 C 42 %
1586 06-12-2019 00:11:18 -3.4 C 40 %
1587 06-12-2019 00:21:17 -3.8 C 40 %
1588 06-12-2019 00:31:17 -3.4 C 42 %
1589 06-12-2019 00:41:17 -3.2 C 42 %
1590 06-12-2019 00:51:17 -2.7 C 43 %
1591 06-12-2019 01:01:17 -2.4 C 43 %
1592 06-12-2019 01:11:17 -2.1 C 43 %
1593 06-12-2019 01:21:17 -2 C 41 %
1594 06-12-2019 01:31:18 -1.8 C 42 %
1595 06-12-2019 01:41:18 -1.6 C 43 %
1596 06-12-2019 01:51:17 -1.6 C 43 %
1597 06-12-2019 02:01:17 -1.4 C 42 %
1598 06-12-2019 02:11:17 -1.4 C 40 %
1599 06-12-2019 02:21:17 -1.6 C 40 %
1600 06-12-2019 02:31:17 -1.5 C 40 %
Sensor: Nr:Datum:Temp:Feuchte:
Aussen-T/F 1601 06-12-2019 02:41:17 -1.7 C 39 %
1602 06-12-2019 02:51:17 -1.6 C 40 %
1603 06-12-2019 03:01:18 -1.4 C 39 %
1604 06-12-2019 03:11:18 -1.2 C 39 %
1605 06-12-2019 03:21:17 -1 C 38 %
1606 06-12-2019 03:31:17 -1 C 37 %
1607 06-12-2019 03:41:17 -1 C 38 %
1608 06-12-2019 03:51:17 -1.1 C 37 %
1609 06-12-2019 04:01:17 -1.2 C 38 %
1610 06-12-2019 04:11:17 -1.3 C 37 %
1611 06-12-2019 04:21:17 -1.3 C 38 %
1612 06-12-2019 04:31:17 -1.1 C 38 %
1613 06-12-2019 04:41:17 -1.1 C 38 %
1614 06-12-2019 04:51:17 -0.8 C 38 %
1615 06-12-2019 05:01:17 -1 C 38 %
1616 06-12-2019 05:11:17 -0.8 C 37 %
1617 06-12-2019 05:21:17 -0.9 C 36 %
1618 06-12-2019 05:31:18 -1 C 37 %
1619 06-12-2019 05:41:18 -0.8 C 38 %
1620 06-12-2019 05:51:17 -0.6 C 36 %
1621 06-12-2019 06:01:17 -0.6 C 35 %
1622 06-12-2019 06:11:17 -0.6 C 36 %
1623 06-12-2019 06:21:17 -0.5 C 36 %
1624 06-12-2019 06:31:17 -0.5 C 35 %
1625 06-12-2019 06:41:17 -0.4 C 36 %
Sensor: Nr:Datum:Temp:Feuchte:
Aussen-T/F 1626 06-12-2019 06:51:18 -0.4 C 37 %
1627 06-12-2019 07:01:17 -0.4 C 38 %
1628 06-12-2019 07:11:17 -0.4 C 38 %
1629 06-12-2019 07:21:17 -0.1 C 37 %
1630 06-12-2019 07:31:17 0 C 36 %
1631 06-12-2019 07:41:17 0.2 C 34 %
1632 06-12-2019 07:51:18 0.4 C 32 %
1633 06-12-2019 08:01:17 0.4 C 32 %
1634 06-12-2019 08:11:17 0.4 C 32 %
1635 06-12-2019 08:21:17 0.4 C 35 %
1636 06-12-2019 08:31:17 0.6 C 32 %
1637 06-12-2019 08:41:17 0.5 C 35 %
1638 06-12-2019 08:51:18 0.5 C 35 %
1639 06-12-2019 09:01:17 0.6 C 36 %
1640 06-12-2019 09:11:17 0.8 C 36 %
1641 06-12-2019 09:21:17 1.2 C 33 %
1642 06-12-2019 09:31:17 1.4 C 33 %
1643 06-12-2019 09:41:17 1.5 C 33 %
1644 06-12-2019 09:51:17 1.7 C 34 %
1645 06-12-2019 10:01:17 1.8 C 33 %
1646 06-12-2019 10:11:17 1.8 C 35 %
1647 06-12-2019 10:21:18 1.9 C 36 %
1648 06-12-2019 10:31:17 1.9 C 36 %
1649 06-12-2019 10:41:17 2.4 C 35 %
1650 06-12-2019 10:51:17 2.5 C 35 %
Sensor: Nr:Datum:Temp:Feuchte:
Aussen-T/F 1651 06-12-2019 11:01:18 2.7 C 35 %
1652 06-12-2019 11:11:18 3.2 C 32 %
1653 06-12-2019 11:21:17 3.3 C 32 %
1654 06-12-2019 11:31:17 3.5 C 32 %
1655 06-12-2019 11:41:17 3.5 C 32 %
1656 06-12-2019 11:51:17 3.5 C 33 %
1657 06-12-2019 12:01:17 3.6 C 33 %
1658 06-12-2019 12:11:17 3.6 C 33 %
1659 06-12-2019 12:21:17 3.6 C 35 %
1660 06-12-2019 12:31:18 3.7 C 37 %
1661 06-12-2019 12:41:18 3.7 C 39 %
1662 06-12-2019 12:51:17 3.7 C 40 %
1663 06-12-2019 13:01:17 3.8 C 39 %
1664 06-12-2019 13:11:17 3.9 C 38 %
1665 06-12-2019 13:21:17 4 C 36 %
1666 06-12-2019 13:31:18 4.2 C 35 %
1667 06-12-2019 13:41:18 4.2 C 35 %
1668 06-12-2019 13:51:17 4.1 C 36 %
1669 06-12-2019 14:01:17 4.1 C 39 %
1670 06-12-2019 14:11:17 4.2 C 40 %
1671 06-12-2019 14:21:17 4.2 C 38 %
1672 06-12-2019 14:31:18 4.2 C 38 %
1673 06-12-2019 14:41:18 4.4 C 38 %
1674 06-12-2019 14:51:17 4.4 C 39 %
1675 06-12-2019 15:01:17 4.3 C 38 %
Sensor: Nr:Datum:Temp:Feuchte:
Aussen-T/F 1676 06-12-2019 15:11:17 4.4 C 38 %
1677 06-12-2019 15:21:17 4.7 C 36 %
1678 06-12-2019 15:31:17 4.5 C 37 %
1679 06-12-2019 15:41:17 4.5 C 37 %
1680 06-12-2019 15:51:18 4.6 C 37 %
1681 06-12-2019 16:01:18 4.8 C 38 %
1682 06-12-2019 16:11:18 5 C 34 %
1683 06-12-2019 16:21:17 5.2 C 32 %
1684 06-12-2019 16:31:17 5.1 C 32 %
1685 06-12-2019 16:41:17 5.3 C 32 %
1686 06-12-2019 16:51:17 5.2 C 31 %
1687 06-12-2019 17:01:17 5.2 C 31 %
1688 06-12-2019 17:11:17 5.3 C 31 %
1689 06-12-2019 17:21:17 5.3 C 30 %
1690 06-12-2019 17:31:18 5.5 C 30 %
1691 06-12-2019 17:41:18 5.6 C 29 %
1692 06-12-2019 17:51:17 5.5 C 30 %
1693 06-12-2019 18:01:17 5.9 C 29 %
1694 06-12-2019 18:11:17 6 C 28 %
1695 06-12-2019 18:21:18 6.2 C 29 %
1696 06-12-2019 18:31:17 6.1 C 28 %
1697 06-12-2019 18:41:17 6.1 C 29 %
1698 06-12-2019 18:51:17 5.9 C 30 %
1699 06-12-2019 19:01:17 5.6 C 31 %
1700 06-12-2019 19:11:17 5.8 C 32 %
Sensor: Nr:Datum:Temp:Feuchte:
Aussen-T/F 1701 06-12-2019 19:21:17 5.9 C 31 %
1702 06-12-2019 19:31:17 6.2 C 30 %
1703 06-12-2019 19:41:17 6.5 C 28 %
1704 06-12-2019 19:51:17 6.5 C 28 %
1705 06-12-2019 20:01:17 6.8 C 28 %
1706 06-12-2019 20:11:17 6.7 C 28 %
1707 06-12-2019 20:21:17 6.8 C 28 %
1708 06-12-2019 20:31:17 6.7 C 28 %
1709 06-12-2019 20:41:17 6.7 C 28 %
1710 06-12-2019 20:51:18 6.7 C 28 %
1711 06-12-2019 21:01:17 6.8 C 27 %
1712 06-12-2019 21:11:17 6.7 C 28 %
1713 06-12-2019 21:21:17 6.7 C 28 %
1714 06-12-2019 21:31:17 6.6 C 28 %
1715 06-12-2019 21:41:17 6.5 C 28 %
1716 06-12-2019 21:51:17 6.5 C 29 %
1717 06-12-2019 22:01:17 6.6 C 29 %
1718 06-12-2019 22:11:17 6.7 C 28 %
1719 06-12-2019 22:21:17 6.7 C 28 %
1720 06-12-2019 22:31:17 6.7 C 28 %
1721 06-12-2019 22:41:17 6.9 C 28 %
1722 06-12-2019 22:51:17 6.9 C 27 %
1723 06-12-2019 23:01:18 7 C 27 %
1724 06-12-2019 23:11:18 6.9 C 28 %
1725 06-12-2019 23:21:17 6.8 C 29 %
Sensor: Nr:Datum:Temp:Feuchte:
Aussen-T/F 1726 06-12-2019 23:31:17 6.8 C 29 %
1727 06-12-2019 23:41:17 6.9 C 29 %
1728 06-12-2019 23:51:18 6.8 C 30 %
1729 07-12-2019 00:01:17 6.9 C 30 %
1730 07-12-2019 00:11:17 7 C 28 %
1731 07-12-2019 00:21:17 7.2 C 28 %
1732 07-12-2019 00:31:17 7.2 C 28 %
1733 07-12-2019 00:41:17 7.2 C 28 %
1734 07-12-2019 00:51:17 7.4 C 28 %
1735 07-12-2019 01:01:17 7.4 C 28 %
1736 07-12-2019 01:11:17 7.6 C 28 %
1737 07-12-2019 01:21:17 7.7 C 28 %
1738 07-12-2019 01:31:18 7.8 C 28 %
1739 07-12-2019 01:41:18 7.6 C 29 %
1740 07-12-2019 01:51:17 7.6 C 29 %
1741 07-12-2019 02:01:17 7.5 C 30 %
1742 07-12-2019 02:11:17 7.7 C 31 %
1743 07-12-2019 02:21:17 7.5 C 31 %
1744 07-12-2019 02:31:17 7.1 C 35 %
1745 07-12-2019 02:41:17 7.2 C 38 %
1746 07-12-2019 02:51:17 7.3 C 35 %
1747 07-12-2019 03:01:17 7.4 C 35 %
1748 07-12-2019 03:11:17 7.6 C 33 %
1749 07-12-2019 03:21:17 8.4 C 30 %
1750 07-12-2019 03:31:17 8.5 C 29 %
Sensor: Nr:Datum:Temp:Feuchte:
Aussen-T/F 1751 07-12-2019 03:41:17 8.7 C 28 %
1752 07-12-2019 03:51:17 9 C 27 %
1753 07-12-2019 04:01:18 8.4 C 29 %
1754 07-12-2019 04:11:18 8.5 C 29 %
1755 07-12-2019 04:21:17 8 C 30 %
1756 07-12-2019 04:31:17 7.9 C 30 %
1757 07-12-2019 04:41:17 8 C 30 %
1758 07-12-2019 04:51:17 8 C 30 %
1759 07-12-2019 05:01:17 7.7 C 30 %
1760 07-12-2019 05:11:17 8 C 30 %
1761 07-12-2019 05:21:17 8 C 30 %
1762 07-12-2019 05:31:17 7.8 C 31 %
1763 07-12-2019 05:41:17 8.2 C 30 %
1764 07-12-2019 05:51:18 7.2 C 31 %
1765 07-12-2019 06:01:18 7.6 C 30 %
1766 07-12-2019 06:11:18 8.7 C 26 %
1767 07-12-2019 06:21:17 8.6 C 26 %
1768 07-12-2019 06:31:18 8.2 C 26 %
1769 07-12-2019 06:41:18 8.1 C 26 %
1770 07-12-2019 06:51:17 7.5 C 27 %
1771 07-12-2019 07:01:17 6.8 C 30 %
1772 07-12-2019 07:11:17 7.1 C 28 %
1773 07-12-2019 07:21:17 7.3 C 27 %
1774 07-12-2019 07:31:17 6.8 C 30 %
1775 07-12-2019 07:41:17 6.3 C 31 %
Sensor: Nr:Datum:Temp:Feuchte:
Aussen-T/F 1776 07-12-2019 07:51:18 7.8 C 28 %
1777 07-12-2019 08:01:18 8 C 27 %
1778 07-12-2019 08:11:18 7.9 C 28 %
1779 07-12-2019 08:21:17 8.1 C 28 %
1780 07-12-2019 08:31:17 8.1 C 27 %
1781 07-12-2019 08:41:17 8.3 C 28 %
1782 07-12-2019 08:51:17 8.4 C 27 %
1783 07-12-2019 09:01:17 8.4 C 27 %
1784 07-12-2019 09:11:17 8.3 C 28 %
1785 07-12-2019 09:21:17 8.2 C 28 %
1786 07-12-2019 09:31:17 8.1 C 29 %
1787 07-12-2019 09:41:17 8.3 C 28 %
1788 07-12-2019 09:51:18 8.6 C 27 %
1789 07-12-2019 10:01:17 8.6 C 27 %
1790 07-12-2019 10:11:17 8.8 C 27 %
1791 07-12-2019 10:21:17 9 C 26 %
1792 07-12-2019 10:31:17 9.1 C 25 %
1793 07-12-2019 10:41:17 9.1 C 26 %
1794 07-12-2019 10:51:18 9.2 C 25 %
1795 07-12-2019 11:01:18 9 C 26 %
1796 07-12-2019 11:11:18 8.4 C 29 %
1797 07-12-2019 11:21:17 8.3 C 30 %
1798 07-12-2019 11:31:17 8.4 C 30 %
1799 07-12-2019 11:41:17 8.5 C 30 %
1800 07-12-2019 11:51:17 8.6 C 28 %
Sensor: Nr:Datum:Temp:Feuchte:
Aussen-T/F 1801 07-12-2019 12:01:17 8.8 C 27 %
1802 07-12-2019 12:11:17 8.9 C 27 %
1803 07-12-2019 12:21:17 9.2 C 25 %
1804 07-12-2019 12:31:18 9.4 C 25 %
1805 07-12-2019 12:41:18 9.5 C 25 %
1806 07-12-2019 12:51:17 9.5 C 25 %
1807 07-12-2019 13:01:17 9.7 C 23 %
1808 07-12-2019 13:11:17 10 C 20 %
1809 07-12-2019 13:21:17 9.8 C 20 %
1810 07-12-2019 13:31:17 9.8 C 20 %
1811 07-12-2019 13:41:17 9.9 C 20 %
1812 07-12-2019 13:51:17 9.9 C 20 %
1813 07-12-2019 14:01:17 9.8 C 20 %
1814 07-12-2019 14:11:17 9.7 C 20 %
1815 07-12-2019 14:21:17 9.9 C 20 %
1816 07-12-2019 14:31:18 9.9 C 20 %
1817 07-12-2019 14:41:18 9.9 C 20 %
1818 07-12-2019 14:51:17 9.9 C 20 %
1819 07-12-2019 15:01:17 9.9 C 20 %
1820 07-12-2019 15:11:17 9.7 C 21 %
1821 07-12-2019 15:21:17 9.6 C 21 %
1822 07-12-2019 15:31:17 9.7 C 21 %
1823 07-12-2019 15:41:17 9.6 C 20 %
1824 07-12-2019 15:51:17 9.4 C 23 %
1825 07-12-2019 16:01:17 9 C 25 %
Sensor: Nr:Datum:Temp:Feuchte:
Aussen-T/F 1826 07-12-2019 16:11:17 8.9 C 25 %
1827 07-12-2019 16:21:18 8.8 C 25 %
1828 07-12-2019 16:31:17 8.6 C 26 %
1829 07-12-2019 16:41:18 8.5 C 26 %
1830 07-12-2019 16:51:17 8.2 C 27 %
1831 07-12-2019 17:01:17 8.1 C 29 %
1832 07-12-2019 17:11:17 8.2 C 28 %
1833 07-12-2019 17:21:17 8.1 C 28 %
1834 07-12-2019 17:31:18 8.2 C 28 %
1835 07-12-2019 17:41:18 8.3 C 27 %
1836 07-12-2019 17:51:17 8.1 C 27 %
1837 07-12-2019 18:01:18 8 C 28 %
1838 07-12-2019 18:11:18 8 C 27 %
1839 07-12-2019 18:21:17 7.8 C 28 %
1840 07-12-2019 18:31:17 7.7 C 29 %
1841 07-12-2019 18:41:17 7.6 C 30 %
1842 07-12-2019 18:51:17 7.6 C 30 %
1843 07-12-2019 19:01:17 7.5 C 31 %
1844 07-12-2019 19:11:17 7.5 C 31 %
1845 07-12-2019 19:21:17 7.5 C 32 %
1846 07-12-2019 19:31:17 7.7 C 31 %
1847 07-12-2019 19:41:17 7.6 C 30 %
1848 07-12-2019 19:51:17 7.7 C 30 %
1849 07-12-2019 20:01:18 7.4 C 30 %
1850 07-12-2019 20:11:18 7.3 C 31 %
Sensor: Nr:Datum:Temp:Feuchte:
Aussen-T/F 1851 07-12-2019 20:21:17 7.3 C 31 %
1852 07-12-2019 20:31:17 7.4 C 30 %
1853 07-12-2019 20:41:17 7.6 C 30 %
1854 07-12-2019 20:51:17 7.6 C 30 %
1855 07-12-2019 21:01:17 7.5 C 30 %
1856 07-12-2019 21:11:17 7.6 C 30 %
1857 07-12-2019 21:21:17 8 C 28 %
1858 07-12-2019 21:31:17 8.1 C 28 %
1859 07-12-2019 21:41:17 8.2 C 28 %
1860 07-12-2019 21:51:17 7.9 C 28 %
1861 07-12-2019 22:01:17 8.2 C 28 %
1862 07-12-2019 22:11:17 8.1 C 27 %
1863 07-12-2019 22:21:17 7.8 C 28 %
1864 07-12-2019 22:31:18 7.7 C 30 %
1865 07-12-2019 22:41:18 7.6 C 30 %
1866 07-12-2019 22:51:17 7.5 C 31 %
1867 07-12-2019 23:01:17 7.4 C 32 %
1868 07-12-2019 23:11:17 7.6 C 31 %
1869 07-12-2019 23:21:17 7.6 C 32 %
1870 07-12-2019 23:31:17 7.5 C 32 %
1871 07-12-2019 23:41:17 7.7 C 31 %
1872 07-12-2019 23:51:18 7.9 C 28 %
1873 08-12-2019 00:01:17 8.1 C 27 %
1874 08-12-2019 00:11:17 8.9 C 23 %
1875 08-12-2019 00:21:17 8.9 C 21 %
Sensor: Nr:Datum:Temp:Feuchte:
Aussen-T/F 1876 08-12-2019 00:31:18 9 C 21 %
1877 08-12-2019 00:41:18 8.9 C 23 %
1878 08-12-2019 00:51:17 8.5 C 25 %
1879 08-12-2019 01:01:18 8.3 C 25 %
1880 08-12-2019 01:11:18 8.5 C 25 %
1881 08-12-2019 01:21:17 8.4 C 26 %
1882 08-12-2019 01:31:17 8.9 C 25 %
1883 08-12-2019 01:41:17 8.8 C 25 %
1884 08-12-2019 01:51:18 9.2 C 20 %
1885 08-12-2019 02:01:17 9.2 C 20 %
1886 08-12-2019 02:11:17 8.9 C 20 %
1887 08-12-2019 02:21:17 9 C 20 %
1888 08-12-2019 02:31:17 9.1 C 20 %
1889 08-12-2019 02:41:18 9 C 20 %
1890 08-12-2019 02:51:17 9.1 C 20 %
1891 08-12-2019 03:01:17 9 C 20 %
1892 08-12-2019 03:11:17 9.1 C 20 %
1893 08-12-2019 03:21:17 9.1 C 20 %
1894 08-12-2019 03:31:17 9.3 C 20 %
1895 08-12-2019 03:41:17 9.3 C 20 %
1896 08-12-2019 03:51:17 9.4 C 20 %
1897 08-12-2019 04:01:17 9.7 C 20 %
1898 08-12-2019 04:11:18 9.6 C 20 %
1899 08-12-2019 04:21:17 9.5 C 20 %
1900 08-12-2019 04:31:17 9.6 C 20 %
Sensor: Nr:Datum:Temp:Feuchte:
Aussen-T/F 1901 08-12-2019 04:41:17 9.6 C 20 %
1902 08-12-2019 04:51:17 9.5 C 20 %
1903 08-12-2019 05:01:17 9.6 C 20 %
1904 08-12-2019 05:11:17 9.5 C 21 %
1905 08-12-2019 05:21:17 9.5 C 21 %
1906 08-12-2019 05:31:17 9.4 C 23 %
1907 08-12-2019 05:41:17 9.5 C 23 %
1908 08-12-2019 05:51:17 9.2 C 25 %
1909 08-12-2019 06:01:17 9.3 C 25 %
1910 08-12-2019 06:11:18 9.5 C 25 %
1911 08-12-2019 06:21:17 9.9 C 21 %
1912 08-12-2019 06:31:17 9.8 C 23 %
1913 08-12-2019 06:41:17 9.7 C 25 %
1914 08-12-2019 06:51:17 9.9 C 23 %
1915 08-12-2019 07:01:18 10 C 21 %
1916 08-12-2019 07:11:18 10.1 C 20 %
1917 08-12-2019 07:21:17 9.9 C 21 %
1918 08-12-2019 07:31:17 10 C 21 %
1919 08-12-2019 07:41:17 10.1 C 20 %
1920 08-12-2019 07:51:17 10 C 20 %
1921 08-12-2019 08:01:17 10 C 20 %
1922 08-12-2019 08:11:17 10.2 C 20 %
1923 08-12-2019 08:21:17 10.1 C 20 %
1924 08-12-2019 08:31:17 10.3 C 21 %
1925 08-12-2019 08:41:17 10.1 C 21 %
Sensor: Nr:Datum:Temp:Feuchte:
Aussen-T/F 1926 08-12-2019 08:51:17 10.3 C 21 %
1927 08-12-2019 09:01:17 10.3 C 21 %
1928 08-12-2019 09:11:17 10.1 C 21 %
1929 08-12-2019 09:21:17 10.2 C 21 %
1930 08-12-2019 09:31:17 10.3 C 21 %
1931 08-12-2019 09:41:17 10.4 C 21 %
1932 08-12-2019 09:51:17 10.4 C 21 %
1933 08-12-2019 10:01:17 10.4 C 21 %
1934 08-12-2019 10:11:17 10.5 C 21 %
1935 08-12-2019 10:21:17 10.5 C 22 %
1936 08-12-2019 10:31:17 10.5 C 22 %
1937 08-12-2019 10:41:17 10.1 C 25 %
1938 08-12-2019 10:51:17 10.2 C 25 %
1939 08-12-2019 11:01:17 10.5 C 25 %
1940 08-12-2019 11:11:17 10.6 C 23 %
1941 08-12-2019 11:21:17 10.8 C 23 %
1942 08-12-2019 11:31:17 10.8 C 23 %
1943 08-12-2019 11:41:17 10.8 C 22 %
1944 08-12-2019 11:51:17 11 C 22 %
1945 08-12-2019 12:01:18 11.1 C 22 %
1946 08-12-2019 12:11:18 11.3 C 22 %
1947 08-12-2019 12:21:17 11.4 C 22 %
1948 08-12-2019 12:31:17 11.4 C 22 %
1949 08-12-2019 12:41:17 11.4 C 23 %
1950 08-12-2019 12:51:17 11.3 C 24 %
Sensor: Nr:Datum:Temp:Feuchte:
Aussen-T/F 1951 08-12-2019 13:01:18 11.5 C 24 %
1952 08-12-2019 13:11:18 11.5 C 22 %
1953 08-12-2019 13:21:17 11.3 C 25 %
1954 08-12-2019 13:31:17 11.1 C 25 %
1955 08-12-2019 13:41:17 11.4 C 25 %
1956 08-12-2019 13:51:17 11.4 C 25 %
1957 08-12-2019 14:01:17 11.5 C 25 %
1958 08-12-2019 14:11:17 11.5 C 25 %
1959 08-12-2019 14:21:17 11.5 C 25 %
1960 08-12-2019 14:31:18 11.7 C 25 %
1961 08-12-2019 14:41:18 11.7 C 25 %
1962 08-12-2019 14:51:17 11.7 C 25 %
1963 08-12-2019 15:01:18 11.8 C 25 %
1964 08-12-2019 15:11:18 11.8 C 25 %
1965 08-12-2019 15:21:18 11.7 C 25 %
1966 08-12-2019 15:31:18 11.7 C 25 %
1967 08-12-2019 15:41:18 11.8 C 25 %
1968 08-12-2019 15:51:17 11.8 C 25 %
1969 08-12-2019 16:01:17 11.7 C 25 %
1970 08-12-2019 16:11:17 11.8 C 25 %
1971 08-12-2019 16:21:18 11.7 C 25 %
1972 08-12-2019 16:31:18 11.6 C 26 %
1973 08-12-2019 16:41:18 11.4 C 27 %
1974 08-12-2019 16:51:17 9.4 C 31 %
1975 08-12-2019 17:01:17 8.9 C 33 %
Sensor: Nr:Datum:Temp:Feuchte:
Aussen-T/F 1976 08-12-2019 17:11:17 8.8 C 33 %
1977 08-12-2019 17:21:17 8.7 C 34 %
1978 08-12-2019 17:31:17 9.2 C 27 %
1979 08-12-2019 17:41:17 8.5 C 33 %
1980 08-12-2019 17:51:17 8.5 C 33 %
1981 08-12-2019 18:01:17 8.5 C 32 %
1982 08-12-2019 18:11:17 8.6 C 31 %
1983 08-12-2019 18:21:17 8.2 C 33 %
1984 08-12-2019 18:31:18 8.5 C 29 %
1985 08-12-2019 18:41:18 8.5 C 29 %
1986 08-12-2019 18:51:17 8.6 C 28 %
1987 08-12-2019 19:01:17 8.9 C 27 %
1988 08-12-2019 19:11:17 8.5 C 28 %
1989 08-12-2019 19:21:17 8.5 C 28 %
1990 08-12-2019 19:31:17 8.6 C 27 %
1991 08-12-2019 19:41:17 8 C 31 %
1992 08-12-2019 19:51:18 7.8 C 33 %
1993 08-12-2019 20:01:17 7.5 C 36 %
1994 08-12-2019 20:11:17 8.1 C 33 %
1995 08-12-2019 20:21:17 8.2 C 30 %
1996 08-12-2019 20:31:17 8.3 C 29 %
1997 08-12-2019 20:41:17 8.5 C 28 %
1998 08-12-2019 20:51:17 8.6 C 26 %
1999 08-12-2019 21:01:18 8.8 C 26 %
2000 08-12-2019 21:11:18 8.9 C 25 %
Sensor: Nr:Datum:Temp:Feuchte:
Aussen-T/F 2001 08-12-2019 21:21:17 8.4 C 26 %
2002 08-12-2019 21:31:17 8.7 C 26 %
2003 08-12-2019 21:41:17 8.4 C 26 %
2004 08-12-2019 21:51:18 8.4 C 26 %
2005 08-12-2019 22:01:17 8.5 C 26 %
2006 08-12-2019 22:11:17 7.9 C 27 %
2007 08-12-2019 22:21:17 8.1 C 26 %
2008 08-12-2019 22:31:17 8.6 C 26 %
2009 08-12-2019 22:41:17 8.8 C 26 %
2010 08-12-2019 22:51:17 8.7 C 25 %
2011 08-12-2019 23:01:17 8.8 C 25 %
2012 08-12-2019 23:11:17 8.7 C 26 %
2013 08-12-2019 23:21:17 8.8 C 25 %
2014 08-12-2019 23:31:18 8.7 C 25 %
2015 08-12-2019 23:41:18 8.5 C 25 %
2016 08-12-2019 23:51:17 8.4 C 21 %
2017 09-12-2019 00:01:18 8.7 C 20 %
2018 09-12-2019 00:11:18 8.1 C 21 %
2019 09-12-2019 00:21:17 8.4 C 21 %
2020 09-12-2019 00:31:17 8.4 C 21 %
2021 09-12-2019 00:41:17 8.5 C 20 %
2022 09-12-2019 00:51:17 8.4 C 20 %
2023 09-12-2019 01:01:17 8.4 C 20 %
2024 09-12-2019 01:11:17 8.5 C 20 %
2025 09-12-2019 01:21:18 8.1 C 20 %
Sensor: Nr:Datum:Temp:Feuchte:
Aussen-T/F 2026 09-12-2019 01:31:17 8 C 20 %
2027 09-12-2019 01:41:17 8.3 C 20 %
2028 09-12-2019 01:51:17 8.2 C 20 %
2029 09-12-2019 02:01:17 7.8 C 20 %
2030 09-12-2019 02:11:17 7.6 C 20 %
2031 09-12-2019 02:21:17 7.4 C 21 %
2032 09-12-2019 02:31:18 7.4 C 21 %
2033 09-12-2019 02:41:18 7.1 C 23 %
2034 09-12-2019 02:51:18 7.5 C 20 %
2035 09-12-2019 03:01:17 7.5 C 20 %
2036 09-12-2019 03:11:17 7.5 C 20 %
2037 09-12-2019 03:21:17 7.5 C 20 %
2038 09-12-2019 03:31:17 7.3 C 20 %
2039 09-12-2019 03:41:17 6.8 C 23 %
2040 09-12-2019 03:51:17 7.3 C 21 %
2041 09-12-2019 04:01:17 7.3 C 20 %
2042 09-12-2019 04:11:17 7.9 C 20 %
2043 09-12-2019 04:21:18 8 C 20 %
2044 09-12-2019 04:31:18 7.6 C 20 %
2045 09-12-2019 04:41:18 7.4 C 21 %
2046 09-12-2019 04:51:17 6.9 C 25 %
2047 09-12-2019 05:01:17 6.9 C 25 %
2048 09-12-2019 05:11:17 7.4 C 20 %
2049 09-12-2019 05:21:17 7.5 C 20 %
2050 09-12-2019 05:31:17 7.4 C 20 %
Sensor: Nr:Datum:Temp:Feuchte:
Aussen-T/F 2051 09-12-2019 05:41:18 7.1 C 20 %
2052 09-12-2019 05:51:17 7.2 C 20 %
2053 09-12-2019 06:01:17 7.4 C 20 %
2054 09-12-2019 06:11:17 7.4 C 20 %
2055 09-12-2019 06:21:17 7.4 C 20 %
2056 09-12-2019 06:31:17 7.6 C 20 %
2057 09-12-2019 06:41:17 7.8 C 20 %
2058 09-12-2019 06:51:18 7.7 C 20 %
2059 09-12-2019 07:01:17 7.6 C 20 %
2060 09-12-2019 07:11:18 7.5 C 20 %
2061 09-12-2019 07:21:17 7.2 C 20 %
2062 09-12-2019 07:31:17 7.2 C 20 %
2063 09-12-2019 07:41:17 7.6 C 20 %
2064 09-12-2019 07:51:18 7.5 C 20 %
2065 09-12-2019 08:01:17 7.9 C 20 %
2066 09-12-2019 08:11:17 7.8 C 20 %
2067 09-12-2019 08:21:17 7.9 C 20 %
2068 09-12-2019 08:31:17 8 C 20 %
2069 09-12-2019 08:41:17 7.9 C 20 %
2070 09-12-2019 08:51:17 7.9 C 20 %
2071 09-12-2019 09:01:17 7.8 C 20 %
2072 09-12-2019 09:11:17 7.9 C 20 %
2073 09-12-2019 09:21:17 7.5 C 20 %
2074 09-12-2019 09:31:17 7.4 C 23 %
2075 09-12-2019 09:41:17 7.5 C 21 %
Sensor: Nr:Datum:Temp:Feuchte:
Aussen-T/F 2076 09-12-2019 09:51:17 7.7 C 21 %
2077 09-12-2019 10:01:17 7.9 C 21 %
2078 09-12-2019 10:11:17 7.9 C 21 %
2079 09-12-2019 10:21:17 7.9 C 20 %
2080 09-12-2019 10:31:18 7.9 C 21 %
2081 09-12-2019 10:41:18 7.9 C 21 %
2082 09-12-2019 10:51:17 8.1 C 20 %
2083 09-12-2019 11:01:17 8 C 20 %
2084 09-12-2019 11:11:17 8.2 C 20 %
2085 09-12-2019 11:21:17 8.4 C 20 %
2086 09-12-2019 11:31:18 8.4 C 20 %
2087 09-12-2019 11:41:18 8.3 C 20 %
2088 09-12-2019 11:51:17 8.1 C 20 %
2089 09-12-2019 12:01:17 8.2 C 20 %
2090 09-12-2019 12:11:17 8 C 20 %
2091 09-12-2019 12:21:18 8.1 C 20 %
2092 09-12-2019 12:31:17 8.3 C 20 %
2093 09-12-2019 12:41:17 8.2 C 20 %
2094 09-12-2019 12:51:17 8.3 C 20 %
2095 09-12-2019 13:01:18 8.3 C 20 %
2096 09-12-2019 13:11:18 8.3 C 20 %
2097 09-12-2019 13:21:17 8.2 C 20 %
2098 09-12-2019 13:31:17 8.1 C 20 %
2099 09-12-2019 13:41:17 8.5 C 20 %
2100 09-12-2019 13:51:17 8.8 C 20 %
Sensor: Nr:Datum:Temp:Feuchte:
Aussen-T/F 2101 09-12-2019 14:01:17 8.6 C 20 %
2102 09-12-2019 14:11:17 8.5 C 20 %
2103 09-12-2019 14:21:17 8.6 C 20 %
2104 09-12-2019 14:31:17 8.4 C 20 %
2105 09-12-2019 14:41:17 7.9 C 20 %
2106 09-12-2019 14:51:18 8.4 C 20 %
2107 09-12-2019 15:01:17 7.9 C 20 %
2108 09-12-2019 15:11:17 7.3 C 25 %
2109 09-12-2019 15:21:17 7 C 27 %
2110 09-12-2019 15:31:18 7.1 C 26 %
2111 09-12-2019 15:41:18 7.1 C 25 %
2112 09-12-2019 15:51:17 7.4 C 23 %
2113 09-12-2019 16:01:18 7.5 C 20 %
2114 09-12-2019 16:11:18 7.5 C 20 %
2115 09-12-2019 16:21:17 7.6 C 20 %
2116 09-12-2019 16:31:18 7.3 C 20 %
2117 09-12-2019 16:41:18 7.4 C 20 %
2118 09-12-2019 16:51:17 7.3 C 20 %
2119 09-12-2019 17:01:18 7.1 C 20 %
2120 09-12-2019 17:11:18 7.2 C 20 %
2121 09-12-2019 17:21:17 6.7 C 25 %
2122 09-12-2019 17:31:17 6.1 C 32 %
2123 09-12-2019 17:41:17 5.9 C 36 %
2124 09-12-2019 17:51:17 6 C 34 %
2125 09-12-2019 18:01:18 6 C 30 %
Sensor: Nr:Datum:Temp:Feuchte:
Aussen-T/F 2126 09-12-2019 18:11:18 6.1 C 31 %
2127 09-12-2019 18:21:17 6 C 33 %
2128 09-12-2019 18:31:17 5.8 C 35 %
2129 09-12-2019 18:41:17 5.7 C 37 %
2130 09-12-2019 18:51:18 5.7 C 38 %
2131 09-12-2019 19:01:17 5.6 C 35 %
2132 09-12-2019 19:11:17 5.5 C 38 %
2133 09-12-2019 19:21:17 5.6 C 39 %
2134 09-12-2019 19:31:17 5.6 C 38 %
2135 09-12-2019 19:41:17 5.6 C 38 %
2136 09-12-2019 19:51:17 5.6 C 37 %
2137 09-12-2019 20:01:17 5.6 C 35 %
2138 09-12-2019 20:11:17 5.6 C 34 %
2139 09-12-2019 20:21:17 5.6 C 35 %
2140 09-12-2019 20:31:17 5.6 C 32 %
2141 09-12-2019 20:41:17 5.4 C 33 %
2142 09-12-2019 20:51:17 5.3 C 34 %
2143 09-12-2019 21:01:17 5.2 C 33 %
2144 09-12-2019 21:11:18 5.1 C 34 %
2145 09-12-2019 21:21:17 5.2 C 35 %
2146 09-12-2019 21:31:17 5.3 C 32 %
2147 09-12-2019 21:41:17 5.1 C 31 %
2148 09-12-2019 21:51:17 5 C 31 %
2149 09-12-2019 22:01:17 4.8 C 32 %
2150 09-12-2019 22:11:17 4.7 C 31 %
Sensor: Nr:Datum:Temp:Feuchte:
Aussen-T/F 2151 09-12-2019 22:21:17 4.9 C 30 %
2152 09-12-2019 22:31:17 4.9 C 30 %
2153 09-12-2019 22:41:17 4.9 C 30 %
2154 09-12-2019 22:51:18 4.7 C 30 %
2155 09-12-2019 23:01:17 4.6 C 29 %
2156 09-12-2019 23:11:17 4.5 C 29 %
2157 09-12-2019 23:21:17 4.1 C 30 %
2158 09-12-2019 23:31:18 4 C 30 %
2159 09-12-2019 23:41:18 4.1 C 29 %
2160 09-12-2019 23:51:17 4.1 C 29 %
2161 10-12-2019 00:01:17 3.7 C 30 %
2162 10-12-2019 00:11:17 4.1 C 28 %
2163 10-12-2019 00:21:17 3.4 C 30 %
2164 10-12-2019 00:31:17 3.6 C 30 %
2165 10-12-2019 00:41:17 3.1 C 31 %
2166 10-12-2019 00:51:17 3 C 31 %
2167 10-12-2019 01:01:17 2.4 C 33 %
2168 10-12-2019 01:11:17 2.4 C 36 %
2169 10-12-2019 01:21:17 2.5 C 36 %
2170 10-12-2019 01:31:18 2.8 C 34 %
2171 10-12-2019 01:41:18 2.4 C 34 %
2172 10-12-2019 01:51:17 2.4 C 33 %
2173 10-12-2019 02:01:18 2.7 C 33 %
2174 10-12-2019 02:11:18 2.9 C 32 %
2175 10-12-2019 02:21:17 2.3 C 33 %
Sensor: Nr:Datum:Temp:Feuchte:
Aussen-T/F 2176 10-12-2019 02:31:17 2.1 C 35 %
2177 10-12-2019 02:41:17 1.7 C 37 %
2178 10-12-2019 02:51:17 1.6 C 39 %
2179 10-12-2019 03:01:17 1.8 C 40 %
2180 10-12-2019 03:11:17 1.8 C 40 %
2181 10-12-2019 03:21:17 1.8 C 40 %
2182 10-12-2019 03:31:17 2 C 40 %
2183 10-12-2019 03:41:17 1.4 C 41 %
2184 10-12-2019 03:51:17 1.4 C 43 %
2185 10-12-2019 04:01:17 1.1 C 43 %
2186 10-12-2019 04:11:17 1.3 C 41 %
2187 10-12-2019 04:21:17 0.6 C 41 %
2188 10-12-2019 04:31:18 0.6 C 44 %
2189 10-12-2019 04:41:18 0.7 C 45 %
2190 10-12-2019 04:51:17 0.9 C 46 %
2191 10-12-2019 05:01:17 1.1 C 44 %
2192 10-12-2019 05:11:17 1.8 C 41 %
2193 10-12-2019 05:21:18 2.2 C 35 %
2194 10-12-2019 05:31:18 2 C 35 %
2195 10-12-2019 05:41:18 2 C 35 %
2196 10-12-2019 05:51:17 1.8 C 36 %
2197 10-12-2019 06:01:17 1.5 C 36 %
2198 10-12-2019 06:11:17 1.6 C 37 %
2199 10-12-2019 06:21:18 1.4 C 36 %
2200 10-12-2019 06:31:17 1.1 C 38 %
Sensor: Nr:Datum:Temp:Feuchte:
Aussen-T/F 2201 10-12-2019 06:41:17 0.9 C 42 %
2202 10-12-2019 06:51:17 1.2 C 42 %
2203 10-12-2019 07:01:18 1.3 C 40 %
2204 10-12-2019 07:11:18 1.5 C 40 %
2205 10-12-2019 07:21:17 1.7 C 36 %
2206 10-12-2019 07:31:17 1.2 C 37 %
2207 10-12-2019 07:41:17 0.8 C 41 %
2208 10-12-2019 07:51:17 0.8 C 41 %
2209 10-12-2019 08:01:17 0.7 C 41 %
2210 10-12-2019 08:11:17 0.8 C 41 %
2211 10-12-2019 08:21:17 0.4 C 42 %
2212 10-12-2019 08:31:18 0.6 C 42 %
2213 10-12-2019 08:41:18 0.4 C 42 %
2214 10-12-2019 08:51:17 0.4 C 43 %
2215 10-12-2019 09:01:17 0.1 C 42 %
2216 10-12-2019 09:11:17 0.5 C 44 %
2217 10-12-2019 09:21:17 0.8 C 44 %
2218 10-12-2019 09:31:17 1.4 C 42 %
2219 10-12-2019 09:41:17 1.7 C 39 %
2220 10-12-2019 09:51:17 1.8 C 39 %
2221 10-12-2019 10:01:17 2.2 C 36 %
2222 10-12-2019 10:11:17 2.5 C 35 %
2223 10-12-2019 10:21:17 2.7 C 33 %
2224 10-12-2019 10:31:17 2.7 C 33 %
2225 10-12-2019 10:41:17 2.5 C 33 %
Sensor: Nr:Datum:Temp:Feuchte:
Aussen-T/F 2226 10-12-2019 10:51:17 2.4 C 35 %
2227 10-12-2019 11:01:17 2.4 C 34 %
2228 10-12-2019 11:11:17 2.5 C 34 %
2229 10-12-2019 11:21:17 2.3 C 35 %
2230 10-12-2019 11:31:18 2.2 C 36 %
2231 10-12-2019 11:41:18 2.9 C 34 %
2232 10-12-2019 11:51:17 3.5 C 30 %
2233 10-12-2019 12:01:17 3.7 C 30 %
2234 10-12-2019 12:11:17 3.8 C 30 %
2235 10-12-2019 12:21:17 3.9 C 30 %
2236 10-12-2019 12:31:17 3.9 C 30 %
2237 10-12-2019 12:41:17 4.3 C 27 %
2238 10-12-2019 12:51:17 4.5 C 27 %
2239 10-12-2019 13:01:17 4.6 C 27 %
2240 10-12-2019 13:11:17 4.7 C 27 %
2241 10-12-2019 13:21:17 4.7 C 27 %
2242 10-12-2019 13:31:17 4.9 C 27 %
2243 10-12-2019 13:41:17 5.1 C 25 %
2244 10-12-2019 13:51:17 5 C 25 %
2245 10-12-2019 14:01:17 4.6 C 27 %
2246 10-12-2019 14:11:17 4.2 C 28 %
2247 10-12-2019 14:21:17 3.8 C 30 %
2248 10-12-2019 14:31:18 3.9 C 30 %
2249 10-12-2019 14:41:18 3.8 C 30 %
2250 10-12-2019 14:51:17 3.5 C 30 %
Sensor: Nr:Datum:Temp:Feuchte:
Aussen-T/F 2251 10-12-2019 15:01:17 3.5 C 30 %
2252 10-12-2019 15:11:17 3.3 C 31 %
2253 10-12-2019 15:21:17 3.2 C 31 %
2254 10-12-2019 15:31:17 3.1 C 31 %
2255 10-12-2019 15:41:18 3.2 C 31 %
2256 10-12-2019 15:51:17 2.9 C 31 %
2257 10-12-2019 16:01:17 2.4 C 32 %
2258 10-12-2019 16:11:17 3.1 C 31 %
2259 10-12-2019 16:21:17 3.4 C 30 %
2260 10-12-2019 16:31:17 3.5 C 28 %
2261 10-12-2019 16:41:17 3.3 C 28 %
2262 10-12-2019 16:51:17 3.3 C 26 %
2263 10-12-2019 17:01:17 2.8 C 27 %
2264 10-12-2019 17:11:17 2.7 C 27 %
2265 10-12-2019 17:21:18 2.7 C 27 %
2266 10-12-2019 17:31:17 2.7 C 27 %
2267 10-12-2019 17:41:17 2.6 C 27 %
2268 10-12-2019 17:51:17 2.4 C 28 %
2269 10-12-2019 18:01:17 2.3 C 27 %
2270 10-12-2019 18:11:17 1.7 C 31 %
2271 10-12-2019 18:21:17 1.9 C 32 %
2272 10-12-2019 18:31:17 1.8 C 33 %
2273 10-12-2019 18:41:17 1.7 C 34 %
2274 10-12-2019 18:51:17 1.6 C 35 %
2275 10-12-2019 19:01:17 1.5 C 36 %
Sensor: Nr:Datum:Temp:Feuchte:
Aussen-T/F 2276 10-12-2019 19:11:17 1.5 C 36 %
2277 10-12-2019 19:21:17 1.6 C 36 %
2278 10-12-2019 19:31:17 1.5 C 36 %
2279 10-12-2019 19:41:18 1.7 C 36 %
2280 10-12-2019 19:51:17 1.7 C 35 %
2281 10-12-2019 20:01:17 2.2 C 32 %
2282 10-12-2019 20:11:17 2.1 C 32 %
2283 10-12-2019 20:21:17 2.7 C 29 %
2284 10-12-2019 20:31:18 2.9 C 28 %
2285 10-12-2019 20:41:18 2.6 C 30 %
2286 10-12-2019 20:51:17 2.3 C 30 %
2287 10-12-2019 21:01:17 2.5 C 31 %
2288 10-12-2019 21:11:17 2.3 C 31 %
2289 10-12-2019 21:21:17 2.1 C 32 %
2290 10-12-2019 21:31:17 2 C 33 %
2291 10-12-2019 21:41:18 1.8 C 35 %
2292 10-12-2019 21:51:17 1.8 C 36 %
2293 10-12-2019 22:01:17 1.8 C 36 %
2294 10-12-2019 22:11:17 2.1 C 35 %
2295 10-12-2019 22:21:17 2.2 C 34 %
2296 10-12-2019 22:31:17 2.4 C 32 %
2297 10-12-2019 22:41:17 2.5 C 33 %
2298 10-12-2019 22:51:18 2.8 C 31 %
2299 10-12-2019 23:01:17 2.9 C 30 %
2300 10-12-2019 23:11:17 3 C 30 %
Sensor: Nr:Datum:Temp:Feuchte:
Aussen-T/F 2301 10-12-2019 23:21:17 3 C 30 %
2302 10-12-2019 23:31:17 2.9 C 31 %
2303 10-12-2019 23:41:17 3.3 C 28 %
2304 10-12-2019 23:51:17 3.3 C 30 %
2305 11-12-2019 00:01:18 3.2 C 30 %
2306 11-12-2019 00:11:18 3.3 C 29 %
2307 11-12-2019 00:21:17 3.4 C 28 %
2308 11-12-2019 00:31:17 3.4 C 29 %
2309 11-12-2019 00:41:17 3.5 C 27 %
2310 11-12-2019 00:51:17 3.4 C 27 %
2311 11-12-2019 01:01:17 3.5 C 25 %
2312 11-12-2019 01:11:17 3.4 C 27 %
2313 11-12-2019 01:21:18 3.4 C 28 %
2314 11-12-2019 01:31:17 3.4 C 29 %
2315 11-12-2019 01:41:17 3.2 C 30 %
2316 11-12-2019 01:51:17 3.1 C 32 %
2317 11-12-2019 02:01:17 3 C 33 %
2318 11-12-2019 02:11:17 2.9 C 33 %
2319 11-12-2019 02:21:17 2.9 C 32 %
2320 11-12-2019 02:31:18 2.8 C 34 %
2321 11-12-2019 02:41:18 2.9 C 31 %
2322 11-12-2019 02:51:17 3 C 30 %
2323 11-12-2019 03:01:18 3.1 C 30 %
2324 11-12-2019 03:11:18 3 C 32 %
2325 11-12-2019 03:21:17 2.9 C 30 %
Sensor: Nr:Datum:Temp:Feuchte:
Aussen-T/F 2326 11-12-2019 03:31:17 3 C 30 %
2327 11-12-2019 03:41:17 3 C 35 %
2328 11-12-2019 03:51:17 2.8 C 36 %
2329 11-12-2019 04:01:17 2.7 C 35 %
2330 11-12-2019 04:11:17 2.8 C 35 %
2331 11-12-2019 04:21:17 2.8 C 35 %
2332 11-12-2019 04:31:18 2.8 C 38 %
2333 11-12-2019 04:41:18 2.7 C 38 %
2334 11-12-2019 04:51:17 2.7 C 39 %
2335 11-12-2019 05:01:17 2.7 C 39 %
2336 11-12-2019 05:11:17 2.7 C 39 %
2337 11-12-2019 05:21:18 2.7 C 40 %
2338 11-12-2019 05:31:17 2.6 C 42 %
2339 11-12-2019 05:41:17 2.6 C 43 %
2340 11-12-2019 05:51:17 2.5 C 44 %
2341 11-12-2019 06:01:18 2.5 C 44 %
2342 11-12-2019 06:11:18 2.5 C 44 %
2343 11-12-2019 06:21:17 2.5 C 44 %
2344 11-12-2019 06:31:17 2.5 C 44 %
2345 11-12-2019 06:41:17 2.5 C 44 %
2346 11-12-2019 06:51:17 2.5 C 44 %
2347 11-12-2019 07:01:17 2.4 C 44 %
2348 11-12-2019 07:11:17 2.5 C 44 %
2349 11-12-2019 07:21:17 2.4 C 44 %
2350 11-12-2019 07:31:17 2.4 C 44 %
Sensor: Nr:Datum:Temp:Feuchte:
Aussen-T/F 2351 11-12-2019 07:41:18 2.4 C 43 %
2352 11-12-2019 07:51:17 2.4 C 43 %
2353 11-12-2019 08:01:17 2.4 C 43 %
2354 11-12-2019 08:11:17 2.4 C 43 %
2355 11-12-2019 08:21:17 2.4 C 43 %
2356 11-12-2019 08:31:18 2.3 C 43 %
2357 11-12-2019 08:41:18 2.3 C 43 %
2358 11-12-2019 08:51:17 2.3 C 43 %
2359 11-12-2019 09:01:18 2.3 C 43 %
2360 11-12-2019 09:11:18 2.4 C 43 %
2361 11-12-2019 09:21:17 2.5 C 43 %
2362 11-12-2019 09:31:17 2.5 C 43 %
2363 11-12-2019 09:41:17 2.5 C 43 %
2364 11-12-2019 09:51:17 2.5 C 43 %
2365 11-12-2019 10:01:17 2.6 C 43 %
2366 11-12-2019 10:11:17 2.7 C 43 %
2367 11-12-2019 10:21:17 2.7 C 42 %
2368 11-12-2019 10:31:17 2.7 C 42 %
2369 11-12-2019 10:41:17 2.8 C 41 %
2370 11-12-2019 10:51:17 3.1 C 40 %
2371 11-12-2019 11:01:17 3 C 39 %
2372 11-12-2019 11:11:17 3.1 C 39 %
2373 11-12-2019 11:21:17 3.2 C 39 %
2374 11-12-2019 11:31:17 3.1 C 38 %
2375 11-12-2019 11:41:17 3.1 C 38 %
Sensor: Nr:Datum:Temp:Feuchte:
Aussen-T/F 2376 11-12-2019 11:51:17 3.2 C 39 %
2377 11-12-2019 12:01:18 3.2 C 39 %
2378 11-12-2019 12:11:18 3.1 C 39 %
2379 11-12-2019 12:21:17 3.1 C 39 %
2380 11-12-2019 12:31:17 3.1 C 40 %
2381 11-12-2019 12:41:17 3.1 C 40 %
2382 11-12-2019 12:51:17 3.1 C 40 %
2383 11-12-2019 13:01:18 3.2 C 40 %
2384 11-12-2019 13:11:18 3.2 C 40 %
2385 11-12-2019 13:21:17 3.2 C 40 %
2386 11-12-2019 13:31:17 3.2 C 40 %
2387 11-12-2019 13:41:17 3.2 C 40 %
2388 11-12-2019 13:51:17 3.2 C 40 %
2389 11-12-2019 14:01:17 3.2 C 41 %
2390 11-12-2019 14:11:18 3.2 C 41 %
2391 11-12-2019 14:21:17 3.2 C 41 %
2392 11-12-2019 14:31:17 3.3 C 41 %
2393 11-12-2019 14:41:17 3.3 C 42 %
2394 11-12-2019 14:51:17 3.3 C 42 %
2395 11-12-2019 15:01:17 3.3 C 42 %
2396 11-12-2019 15:11:17 3.4 C 42 %
2397 11-12-2019 15:21:17 3.3 C 42 %
2398 11-12-2019 15:31:18 3.3 C 42 %
2399 11-12-2019 15:41:18 3.3 C 42 %
2400 11-12-2019 15:51:17 3.3 C 42 %
Sensor: Nr:Datum:Temp:Feuchte:
Aussen-T/F 2401 11-12-2019 16:01:17 3.2 C 42 %
2402 11-12-2019 16:11:17 3.2 C 42 %
2403 11-12-2019 16:21:17 3.2 C 42 %
2404 11-12-2019 16:31:17 3.2 C 42 %
2405 11-12-2019 16:41:17 3.1 C 42 %
2406 11-12-2019 16:51:17 3.1 C 42 %
2407 11-12-2019 17:01:17 3.1 C 43 %
2408 11-12-2019 17:11:17 3.1 C 42 %
2409 11-12-2019 17:21:17 3.1 C 42 %
2410 11-12-2019 17:31:17 3.1 C 42 %
2411 11-12-2019 17:41:17 3.1 C 42 %
2412 11-12-2019 17:51:18 3.2 C 43 %
2413 11-12-2019 18:01:17 3.2 C 43 %
2414 11-12-2019 18:11:17 3.3 C 43 %
2415 11-12-2019 18:21:17 3.3 C 43 %
2416 11-12-2019 18:31:18 3.4 C 43 %
2417 11-12-2019 18:41:18 3.4 C 43 %
2418 11-12-2019 18:51:17 3.5 C 43 %
2419 11-12-2019 19:01:17 3.5 C 42 %
2420 11-12-2019 19:11:17 3.5 C 42 %
2421 11-12-2019 19:21:18 3.5 C 42 %
2422 11-12-2019 19:31:17 3.5 C 42 %
2423 11-12-2019 19:41:17 3.6 C 42 %
2424 11-12-2019 19:51:18 3.6 C 42 %
2425 11-12-2019 20:01:17 3.6 C 42 %
Sensor: Nr:Datum:Temp:Feuchte:
Aussen-T/F 2426 11-12-2019 20:11:17 3.7 C 42 %
2427 11-12-2019 20:21:17 3.8 C 42 %
2428 11-12-2019 20:31:18 3.8 C 42 %
2429 11-12-2019 20:41:18 3.9 C 42 %
2430 11-12-2019 20:51:17 4.1 C 41 %
2431 11-12-2019 21:01:17 4.1 C 40 %
2432 11-12-2019 21:11:17 4.3 C 39 %
2433 11-12-2019 21:21:17 4.4 C 37 %
2434 11-12-2019 21:31:17 4.1 C 37 %
2435 11-12-2019 21:41:17 4.3 C 37 %
2436 11-12-2019 21:51:17 4.3 C 36 %
2437 11-12-2019 22:01:17 4.5 C 35 %
2438 11-12-2019 22:11:17 4.1 C 35 %
2439 11-12-2019 22:21:17 3.9 C 37 %
2440 11-12-2019 22:31:17 3.6 C 39 %
2441 11-12-2019 22:41:17 3.8 C 39 %
2442 11-12-2019 22:51:18 3.5 C 40 %
2443 11-12-2019 23:01:17 3.8 C 40 %
2444 11-12-2019 23:11:17 3.8 C 40 %
2445 11-12-2019 23:21:17 3.4 C 40 %
2446 11-12-2019 23:31:17 3 C 41 %
2447 11-12-2019 23:41:17 3.4 C 43 %
2448 11-12-2019 23:51:18 3.2 C 42 %
2449 12-12-2019 00:01:17 3 C 42 %
2450 12-12-2019 00:11:17 2.9 C 43 %
Sensor: Nr:Datum:Temp:Feuchte:
Aussen-T/F 2451 12-12-2019 00:21:17 2.8 C 43 %
2452 12-12-2019 00:31:17 2.5 C 43 %
2453 12-12-2019 00:41:17 2.4 C 43 %
2454 12-12-2019 00:51:17 2.3 C 43 %
2455 12-12-2019 01:01:17 2.7 C 44 %
2456 12-12-2019 01:11:17 2.8 C 44 %
2457 12-12-2019 01:21:18 2.6 C 43 %
2458 12-12-2019 01:31:17 2.2 C 43 %
2459 12-12-2019 01:41:17 2.5 C 43 %
2460 12-12-2019 01:51:18 2.1 C 43 %
2461 12-12-2019 02:01:17 1.8 C 44 %
2462 12-12-2019 02:11:17 1.6 C 44 %
2463 12-12-2019 02:21:17 1.7 C 44 %
2464 12-12-2019 02:31:18 1.6 C 44 %
2465 12-12-2019 02:41:18 2 C 43 %
2466 12-12-2019 02:51:17 2 C 43 %
2467 12-12-2019 03:01:17 2.3 C 43 %
2468 12-12-2019 03:11:17 2.4 C 43 %
2469 12-12-2019 03:21:17 2.5 C 43 %
2470 12-12-2019 03:31:17 2.4 C 43 %
2471 12-12-2019 03:41:17 2.5 C 43 %
2472 12-12-2019 03:51:17 2.7 C 43 %
2473 12-12-2019 04:01:17 2.6 C 43 %
2474 12-12-2019 04:11:17 2.7 C 43 %
2475 12-12-2019 04:21:17 2.8 C 43 %
Sensor: Nr:Datum:Temp:Feuchte:
Aussen-T/F 2476 12-12-2019 04:31:17 2.8 C 43 %
2477 12-12-2019 04:41:17 2.9 C 43 %
2478 12-12-2019 04:51:17 2.4 C 42 %
2479 12-12-2019 05:01:17 2 C 42 %
2480 12-12-2019 05:11:17 2.1 C 42 %
2481 12-12-2019 05:21:17 2.2 C 42 %
2482 12-12-2019 05:31:18 2.1 C 42 %
2483 12-12-2019 05:41:18 2.1 C 42 %
2484 12-12-2019 05:51:17 2.1 C 42 %
2485 12-12-2019 06:01:17 1.9 C 43 %
2486 12-12-2019 06:11:17 2 C 42 %
2487 12-12-2019 06:21:17 2.1 C 42 %
2488 12-12-2019 06:31:17 2.1 C 42 %
2489 12-12-2019 06:41:17 2.3 C 42 %
2490 12-12-2019 06:51:17 2.7 C 43 %
2491 12-12-2019 07:01:17 3 C 42 %
2492 12-12-2019 07:11:17 3 C 42 %
2493 12-12-2019 07:21:17 3 C 42 %
2494 12-12-2019 07:31:17 3 C 42 %
2495 12-12-2019 07:41:17 2.8 C 42 %
2496 12-12-2019 07:51:17 2.9 C 42 %
2497 12-12-2019 08:01:17 2.9 C 42 %
2498 12-12-2019 08:11:17 3.1 C 42 %
2499 12-12-2019 08:21:17 3.2 C 42 %
2500 12-12-2019 08:31:18 3.3 C 42 %
Sensor: Nr:Datum:Temp:Feuchte:
Aussen-T/F 2501 12-12-2019 08:41:18 3.5 C 42 %
2502 12-12-2019 08:51:17 3.5 C 42 %
2503 12-12-2019 09:01:18 3.5 C 42 %
2504 12-12-2019 09:11:18 3.6 C 42 %
2505 12-12-2019 09:21:17 3.9 C 42 %
2506 12-12-2019 09:31:17 3.9 C 42 %
2507 12-12-2019 09:41:17 3.7 C 41 %
2508 12-12-2019 09:51:17 3.5 C 41 %
2509 12-12-2019 10:01:17 3.9 C 41 %
2510 12-12-2019 10:11:17 4 C 40 %
2511 12-12-2019 10:21:18 4.4 C 37 %
2512 12-12-2019 10:31:17 4.6 C 35 %
2513 12-12-2019 10:41:17 4.7 C 32 %
2514 12-12-2019 10:51:17 4.8 C 31 %
2515 12-12-2019 11:01:18 4.7 C 32 %
2516 12-12-2019 11:11:18 4.6 C 31 %
2517 12-12-2019 11:21:17 4.4 C 31 %
2518 12-12-2019 11:31:17 4.4 C 32 %
2519 12-12-2019 11:41:17 4.7 C 31 %
2520 12-12-2019 11:51:18 4.9 C 29 %
2521 12-12-2019 12:01:17 5.1 C 29 %
2522 12-12-2019 12:11:17 5.1 C 27 %
2523 12-12-2019 12:21:17 5 C 26 %
2524 12-12-2019 12:31:18 4.7 C 27 %
2525 12-12-2019 12:41:18 4.7 C 28 %
Sensor: Nr:Datum:Temp:Feuchte:
Aussen-T/F 2526 12-12-2019 12:51:17 4.7 C 27 %
2527 12-12-2019 13:01:17 4.6 C 28 %
2528 12-12-2019 13:11:18 5 C 26 %
2529 12-12-2019 13:21:17 4.8 C 27 %
2530 12-12-2019 13:31:17 4.6 C 26 %
2531 12-12-2019 13:41:17 4.2 C 26 %
2532 12-12-2019 13:51:17 4.6 C 25 %
2533 12-12-2019 14:01:17 4.6 C 25 %
2534 12-12-2019 14:11:17 4.3 C 25 %
2535 12-12-2019 14:21:17 4 C 27 %
2536 12-12-2019 14:31:18 4.5 C 25 %
2537 12-12-2019 14:41:18 4.8 C 25 %
2538 12-12-2019 14:51:17 4.7 C 25 %
2539 12-12-2019 15:01:18 4 C 26 %
2540 12-12-2019 15:11:18 4.2 C 26 %
2541 12-12-2019 15:21:17 3.6 C 29 %
2542 12-12-2019 15:31:17 3.5 C 29 %
2543 12-12-2019 15:41:17 3.8 C 28 %
2544 12-12-2019 15:51:17 3.7 C 28 %
2545 12-12-2019 16:01:17 3.6 C 28 %
2546 12-12-2019 16:11:17 3.7 C 26 %
2547 12-12-2019 16:21:18 3.5 C 27 %
2548 12-12-2019 16:31:17 3.4 C 26 %
2549 12-12-2019 16:41:17 3.3 C 28 %
2550 12-12-2019 16:51:17 3.1 C 30 %
Sensor: Nr:Datum:Temp:Feuchte:
Aussen-T/F 2551 12-12-2019 17:01:17 2.6 C 30 %
2552 12-12-2019 17:11:17 1.7 C 35 %
2553 12-12-2019 17:21:17 1.2 C 36 %
2554 12-12-2019 17:31:17 1.1 C 38 %
2555 12-12-2019 17:41:17 0.9 C 41 %
2556 12-12-2019 17:51:17 1 C 40 %
2557 12-12-2019 18:01:17 1.1 C 40 %
2558 12-12-2019 18:11:17 1.1 C 40 %
2559 12-12-2019 18:21:17 1.1 C 40 %
2560 12-12-2019 18:31:17 1 C 40 %
2561 12-12-2019 18:41:17 0.9 C 41 %
2562 12-12-2019 18:51:17 0.7 C 41 %
2563 12-12-2019 19:01:17 0.7 C 41 %
2564 12-12-2019 19:11:17 0.6 C 41 %
2565 12-12-2019 19:21:17 0.6 C 42 %
2566 12-12-2019 19:31:17 0.6 C 42 %
2567 12-12-2019 19:41:17 0.7 C 42 %
2568 12-12-2019 19:51:17 0.7 C 41 %
2569 12-12-2019 20:01:17 0.6 C 41 %
2570 12-12-2019 20:11:17 0.6 C 41 %
2571 12-12-2019 20:21:17 0.6 C 41 %
2572 12-12-2019 20:31:17 0.6 C 41 %
2573 12-12-2019 20:41:17 0.6 C 41 %
2574 12-12-2019 20:51:17 1.3 C 42 %
2575 12-12-2019 21:01:17 1.6 C 38 %
Sensor: Nr:Datum:Temp:Feuchte:
Aussen-T/F 2576 12-12-2019 21:11:17 1.6 C 36 %
2577 12-12-2019 21:21:17 1.3 C 36 %
2578 12-12-2019 21:31:17 1.3 C 35 %
2579 12-12-2019 21:41:17 1 C 35 %
2580 12-12-2019 21:51:17 0.7 C 37 %
2581 12-12-2019 22:01:17 1.2 C 37 %
2582 12-12-2019 22:11:17 0.9 C 37 %
2583 12-12-2019 22:21:18 0.4 C 38 %
2584 12-12-2019 22:31:17 0.3 C 39 %
2585 12-12-2019 22:41:17 0.2 C 40 %
2586 12-12-2019 22:51:17 0.4 C 39 %
2587 12-12-2019 23:01:18 1.1 C 37 %
2588 12-12-2019 23:11:18 1.5 C 35 %
2589 12-12-2019 23:21:17 1.9 C 32 %
2590 12-12-2019 23:31:17 1.6 C 31 %
2591 12-12-2019 23:41:17 1.4 C 32 %
2592 12-12-2019 23:51:17 1.5 C 31 %
2593 13-12-2019 00:01:17 0.9 C 33 %
2594 13-12-2019 00:11:17 0.6 C 35 %
2595 13-12-2019 00:21:17 1 C 33 %
2596 13-12-2019 00:31:18 0.7 C 34 %
2597 13-12-2019 00:41:18 0.9 C 35 %
2598 13-12-2019 00:51:17 1.3 C 32 %
2599 13-12-2019 01:01:18 1.7 C 30 %
2600 13-12-2019 01:11:18 1.8 C 29 %
Sensor: Nr:Datum:Temp:Feuchte:
Aussen-T/F 2601 13-12-2019 01:21:17 2 C 27 %
2602 13-12-2019 01:31:17 1.9 C 28 %
2603 13-12-2019 01:41:17 2 C 27 %
2604 13-12-2019 01:51:17 2 C 27 %
2605 13-12-2019 02:01:18 1.9 C 29 %
2606 13-12-2019 02:11:18 2 C 27 %
2607 13-12-2019 02:21:17 2 C 27 %
2608 13-12-2019 02:31:17 2 C 27 %
2609 13-12-2019 02:41:17 2 C 27 %
2610 13-12-2019 02:51:17 2 C 27 %
2611 13-12-2019 03:01:17 1.8 C 29 %
2612 13-12-2019 03:11:17 1.8 C 30 %
2613 13-12-2019 03:21:17 1.7 C 30 %
2614 13-12-2019 03:31:17 1.6 C 30 %
2615 13-12-2019 03:41:17 1.7 C 30 %
2616 13-12-2019 03:51:17 1.6 C 31 %
2617 13-12-2019 04:01:17 1.4 C 32 %
2618 13-12-2019 04:11:17 1.5 C 32 %
2619 13-12-2019 04:21:17 1.6 C 32 %
2620 13-12-2019 04:31:17 1.6 C 32 %
2621 13-12-2019 04:41:17 1.6 C 32 %
2622 13-12-2019 04:51:17 1.4 C 34 %
2623 13-12-2019 05:01:17 1.4 C 35 %
2624 13-12-2019 05:11:17 1.5 C 34 %
2625 13-12-2019 05:21:17 1.5 C 34 %
Sensor: Nr:Datum:Temp:Feuchte:
Aussen-T/F 2626 13-12-2019 05:31:18 1.7 C 33 %
2627 13-12-2019 05:41:18 1.7 C 32 %
2628 13-12-2019 05:51:17 1.8 C 33 %
2629 13-12-2019 06:01:17 1.9 C 32 %
2630 13-12-2019 06:11:17 2 C 31 %
2631 13-12-2019 06:21:17 2 C 31 %
2632 13-12-2019 06:31:17 2 C 32 %
2633 13-12-2019 06:41:17 1.7 C 35 %
2634 13-12-2019 06:51:17 1.8 C 37 %
2635 13-12-2019 07:01:17 1.8 C 37 %
2636 13-12-2019 07:11:18 1.7 C 39 %
2637 13-12-2019 07:21:17 1.8 C 38 %
2638 13-12-2019 07:31:17 1.8 C 40 %
2639 13-12-2019 07:41:17 1.8 C 39 %
2640 13-12-2019 07:51:17 1.9 C 38 %
2641 13-12-2019 08:01:17 1.8 C 38 %
2642 13-12-2019 08:11:17 1.8 C 39 %
2643 13-12-2019 08:21:17 1.7 C 40 %
2644 13-12-2019 08:31:17 1.7 C 41 %
2645 13-12-2019 08:41:17 1.6 C 41 %
2646 13-12-2019 08:51:17 1.7 C 41 %
2647 13-12-2019 09:01:17 1.9 C 40 %
2648 13-12-2019 09:11:17 1.9 C 40 %
2649 13-12-2019 09:21:17 1.9 C 40 %
2650 13-12-2019 09:31:17 1.7 C 42 %
Sensor: Nr:Datum:Temp:Feuchte:
Aussen-T/F 2651 13-12-2019 09:41:17 1.7 C 42 %
2652 13-12-2019 09:51:18 1.9 C 43 %
2653 13-12-2019 10:01:17 1.8 C 43 %
2654 13-12-2019 10:11:17 1.9 C 43 %
2655 13-12-2019 10:21:18 2 C 41 %
2656 13-12-2019 10:31:17 2.2 C 41 %
2657 13-12-2019 10:41:17 2.3 C 41 %
2658 13-12-2019 10:51:18 2.3 C 41 %
2659 13-12-2019 11:01:17 2.4 C 41 %
2660 13-12-2019 11:11:17 2.3 C 40 %
2661 13-12-2019 11:21:17 2.3 C 40 %
2662 13-12-2019 11:31:17 2.4 C 41 %
2663 13-12-2019 11:41:17 2.5 C 41 %
2664 13-12-2019 11:51:18 2.8 C 42 %
2665 13-12-2019 12:01:17 3 C 41 %
2666 13-12-2019 12:11:17 3.1 C 39 %
2667 13-12-2019 12:21:17 3.2 C 38 %
2668 13-12-2019 12:31:17 3.5 C 38 %
2669 13-12-2019 12:41:17 3.5 C 38 %
2670 13-12-2019 12:51:18 3.6 C 38 %
2671 13-12-2019 13:01:18 3.8 C 39 %
2672 13-12-2019 13:11:18 4.1 C 37 %
2673 13-12-2019 13:21:17 4.6 C 38 %
2674 13-12-2019 13:31:17 5.2 C 35 %
2675 13-12-2019 13:41:17 5.7 C 35 %
Sensor: Nr:Datum:Temp:Feuchte:
Aussen-T/F 2676 13-12-2019 13:51:17 6.4 C 31 %
2677 13-12-2019 14:01:17 6.7 C 30 %
2678 13-12-2019 14:11:17 7 C 28 %
2679 13-12-2019 14:21:17 6.8 C 29 %
2680 13-12-2019 14:31:17 6.8 C 28 %
2681 13-12-2019 14:41:17 6.7 C 28 %
2682 13-12-2019 14:51:18 6.4 C 29 %
2683 13-12-2019 15:01:18 6.3 C 29 %
2684 13-12-2019 15:11:18 6.3 C 29 %
2685 13-12-2019 15:21:17 6.2 C 30 %
2686 13-12-2019 15:31:17 5.9 C 30 %
2687 13-12-2019 15:41:17 5.8 C 31 %
2688 13-12-2019 15:51:17 5.5 C 31 %
2689 13-12-2019 16:01:18 5.3 C 30 %
2690 13-12-2019 16:11:18 5.4 C 30 %
2691 13-12-2019 16:21:17 5.3 C 30 %
2692 13-12-2019 16:31:17 5.1 C 30 %
2693 13-12-2019 16:41:17 4.8 C 31 %
2694 13-12-2019 16:51:17 4.5 C 31 %
2695 13-12-2019 17:01:17 4.6 C 31 %
2696 13-12-2019 17:11:17 4.5 C 31 %
2697 13-12-2019 17:21:17 4.3 C 34 %
2698 13-12-2019 17:31:18 4.3 C 34 %
2699 13-12-2019 17:41:18 4.2 C 33 %
2700 13-12-2019 17:51:17 4 C 33 %
Sensor: Nr:Datum:Temp:Feuchte:
Aussen-T/F 2701 13-12-2019 18:01:17 3.8 C 36 %
2702 13-12-2019 18:11:17 3.7 C 40 %
2703 13-12-2019 18:21:17 3.8 C 39 %
2704 13-12-2019 18:31:17 3.8 C 40 %
2705 13-12-2019 18:41:18 3.8 C 39 %
2706 13-12-2019 18:51:17 3.9 C 36 %
2707 13-12-2019 19:01:17 3.9 C 36 %
2708 13-12-2019 19:11:17 3.9 C 35 %
2709 13-12-2019 19:21:17 4 C 34 %
2710 13-12-2019 19:31:17 4.1 C 35 %
2711 13-12-2019 19:41:17 4 C 36 %
2712 13-12-2019 19:51:17 4.6 C 32 %
2713 13-12-2019 20:01:17 4.6 C 32 %
2714 13-12-2019 20:11:17 4.8 C 31 %
2715 13-12-2019 20:21:17 4.7 C 31 %
2716 13-12-2019 20:31:17 4.7 C 31 %
2717 13-12-2019 20:41:17 4.7 C 32 %
2718 13-12-2019 20:51:17 4.5 C 32 %
2719 13-12-2019 21:01:17 4.3 C 34 %
2720 13-12-2019 21:11:17 4 C 36 %
2721 13-12-2019 21:21:17 4.5 C 35 %
2722 13-12-2019 21:31:18 4.4 C 33 %
2723 13-12-2019 21:41:18 4.4 C 35 %
2724 13-12-2019 21:51:17 4.6 C 32 %
2725 13-12-2019 22:01:17 4.6 C 31 %
Sensor: Nr:Datum:Temp:Feuchte:
Aussen-T/F 2726 13-12-2019 22:11:17 4.6 C 30 %
2727 13-12-2019 22:21:17 4.7 C 30 %
2728 13-12-2019 22:31:18 4.7 C 30 %
2729 13-12-2019 22:41:18 3.8 C 34 %
2730 13-12-2019 22:51:17 3.8 C 36 %
2731 13-12-2019 23:01:17 4.5 C 32 %
2732 13-12-2019 23:11:17 5.1 C 29 %
2733 13-12-2019 23:21:17 5.2 C 28 %
2734 13-12-2019 23:31:17 5.2 C 28 %
2735 13-12-2019 23:41:17 5 C 30 %
2736 13-12-2019 23:51:17 5 C 30 %
2737 14-12-2019 00:01:17 4.4 C 32 %
2738 14-12-2019 00:11:17 4.5 C 30 %
2739 14-12-2019 00:21:17 4.6 C 30 %
2740 14-12-2019 00:31:18 4.3 C 33 %
2741 14-12-2019 00:41:18 4.7 C 32 %
2742 14-12-2019 00:51:17 5.1 C 28 %
2743 14-12-2019 01:01:17 5.4 C 27 %
2744 14-12-2019 01:11:17 5.3 C 27 %
2745 14-12-2019 01:21:17 5.2 C 26 %
2746 14-12-2019 01:31:17 5.1 C 26 %
2747 14-12-2019 01:41:17 5.3 C 25 %
2748 14-12-2019 01:51:17 5.2 C 25 %
2749 14-12-2019 02:01:17 5 C 26 %
2750 14-12-2019 02:11:17 4.5 C 30 %
Sensor: Nr:Datum:Temp:Feuchte:
Aussen-T/F 2751 14-12-2019 02:21:17 4.6 C 29 %
2752 14-12-2019 02:31:18 4.7 C 29 %
2753 14-12-2019 02:41:18 4.8 C 28 %
2754 14-12-2019 02:51:17 4.5 C 30 %
2755 14-12-2019 03:01:18 4.2 C 33 %
2756 14-12-2019 03:11:18 4.1 C 36 %
2757 14-12-2019 03:21:17 3.9 C 38 %
2758 14-12-2019 03:31:17 3.9 C 39 %
2759 14-12-2019 03:41:17 3.9 C 36 %
2760 14-12-2019 03:51:18 3.8 C 36 %
2761 14-12-2019 04:01:17 3.8 C 40 %
2762 14-12-2019 04:11:17 3.8 C 41 %
2763 14-12-2019 04:21:17 3.7 C 42 %
2764 14-12-2019 04:31:18 3.5 C 42 %
2765 14-12-2019 04:41:18 3.5 C 42 %
2766 14-12-2019 04:51:17 3.4 C 42 %
2767 14-12-2019 05:01:17 3.4 C 41 %
2768 14-12-2019 05:11:17 3.4 C 41 %
2769 14-12-2019 05:21:17 3.4 C 42 %
2770 14-12-2019 05:31:18 3.4 C 42 %
2771 14-12-2019 05:41:18 3.4 C 43 %
2772 14-12-2019 05:51:17 3.4 C 43 %
2773 14-12-2019 06:01:18 3.4 C 42 %
2774 14-12-2019 06:11:18 3.7 C 43 %
2775 14-12-2019 06:21:17 4 C 42 %
Sensor: Nr:Datum:Temp:Feuchte:
Aussen-T/F 2776 14-12-2019 06:31:17 5 C 40 %
2777 14-12-2019 06:41:17 5.2 C 39 %
2778 14-12-2019 06:51:18 5.6 C 36 %
2779 14-12-2019 07:01:17 5.6 C 36 %
2780 14-12-2019 07:11:18 5.7 C 36 %
2781 14-12-2019 07:21:17 5.8 C 36 %
2782 14-12-2019 07:31:17 5.8 C 36 %
2783 14-12-2019 07:41:17 6.3 C 37 %
2784 14-12-2019 07:51:17 6.5 C 36 %
2785 14-12-2019 08:01:17 6.8 C 35 %
2786 14-12-2019 08:11:17 7 C 28 %
2787 14-12-2019 08:21:17 7.2 C 26 %
2788 14-12-2019 08:31:18 7.1 C 25 %
2789 14-12-2019 08:41:18 6.9 C 25 %
2790 14-12-2019 08:51:17 6.7 C 25 %
2791 14-12-2019 09:01:17 6.9 C 23 %
2792 14-12-2019 09:11:17 6.7 C 23 %
2793 14-12-2019 09:21:18 6.5 C 23 %
2794 14-12-2019 09:31:18 6.7 C 20 %
2795 14-12-2019 09:41:18 6.5 C 21 %
2796 14-12-2019 09:51:17 6.7 C 21 %
2797 14-12-2019 10:01:17 6.7 C 21 %
2798 14-12-2019 10:11:17 6.6 C 23 %
2799 14-12-2019 10:21:17 6.6 C 25 %
2800 14-12-2019 10:31:17 6.7 C 25 %
Sensor: Nr:Datum:Temp:Feuchte:
Aussen-T/F 2801 14-12-2019 10:41:17 6.4 C 26 %
2802 14-12-2019 10:51:17 5.9 C 29 %
2803 14-12-2019 11:01:18 5.9 C 29 %
2804 14-12-2019 11:11:18 6.4 C 27 %
2805 14-12-2019 11:21:17 6.7 C 26 %
2806 14-12-2019 11:31:17 6.3 C 26 %
2807 14-12-2019 11:41:17 6.4 C 25 %
2808 14-12-2019 11:51:17 6.9 C 20 %
2809 14-12-2019 12:01:17 7 C 20 %
2810 14-12-2019 12:11:17 7.2 C 20 %
2811 14-12-2019 12:21:18 7 C 20 %
2812 14-12-2019 12:31:17 7.3 C 20 %
2813 14-12-2019 12:41:17 7.6 C 20 %
2814 14-12-2019 12:51:17 7.8 C 20 %
2815 14-12-2019 13:01:17 7.9 C 20 %
2816 14-12-2019 13:11:17 8 C 20 %
2817 14-12-2019 13:21:17 8.4 C 20 %
2818 14-12-2019 13:31:17 8.4 C 20 %
2819 14-12-2019 13:41:17 8.3 C 20 %
2820 14-12-2019 13:51:17 8.4 C 20 %
2821 14-12-2019 14:01:18 8.5 C 20 %
2822 14-12-2019 14:11:18 8.4 C 20 %
2823 14-12-2019 14:21:17 8.4 C 20 %
2824 14-12-2019 14:31:18 8.7 C 20 %
2825 14-12-2019 14:41:18 8.8 C 20 %
Sensor: Nr:Datum:Temp:Feuchte:
Aussen-T/F 2826 14-12-2019 14:51:18 8.6 C 20 %
2827 14-12-2019 15:01:17 7.3 C 23 %
2828 14-12-2019 15:11:17 6.8 C 28 %
2829 14-12-2019 15:21:17 6.6 C 30 %
2830 14-12-2019 15:31:17 6.7 C 28 %
2831 14-12-2019 15:41:18 6.8 C 28 %
2832 14-12-2019 15:51:17 7.1 C 26 %
2833 14-12-2019 16:01:17 7 C 26 %
2834 14-12-2019 16:11:17 6.9 C 26 %
2835 14-12-2019 16:21:17 6.9 C 27 %
2836 14-12-2019 16:31:18 7.2 C 25 %
2837 14-12-2019 16:41:18 7.6 C 25 %
2838 14-12-2019 16:51:17 7.5 C 25 %
2839 14-12-2019 17:01:17 7.6 C 25 %
2840 14-12-2019 17:11:17 7.6 C 25 %
2841 14-12-2019 17:21:17 7.4 C 25 %
2842 14-12-2019 17:31:18 7.2 C 26 %
2843 14-12-2019 17:41:18 6.9 C 27 %
2844 14-12-2019 17:51:17 7.1 C 26 %
2845 14-12-2019 18:01:17 7.1 C 26 %
2846 14-12-2019 18:11:17 7.3 C 26 %
2847 14-12-2019 18:22:17 7.6 C 25 %
2848 14-12-2019 18:31:17 7.8 C 25 %
2849 14-12-2019 18:41:17 7.4 C 25 %
2850 14-12-2019 18:52:17 7 C 26 %
Sensor: Nr:Datum:Temp:Feuchte:
Aussen-T/F 2851 14-12-2019 19:01:18 6.7 C 27 %
2852 14-12-2019 19:11:18 6.2 C 28 %
2853 14-12-2019 19:21:17 6.4 C 26 %
2854 14-12-2019 19:31:17 6.1 C 26 %
2855 14-12-2019 19:41:17 6.4 C 25 %
2856 14-12-2019 19:52:17 6.4 C 25 %
2857 14-12-2019 20:01:18 6.6 C 25 %
2858 14-12-2019 20:11:18 6.7 C 25 %
2859 14-12-2019 20:21:17 6.9 C 25 %
2860 14-12-2019 20:31:17 5.8 C 27 %
2861 14-12-2019 20:41:17 5.9 C 27 %
2862 14-12-2019 20:52:17 7 C 25 %
2863 14-12-2019 21:01:17 7.2 C 25 %
2864 14-12-2019 21:11:17 7 C 25 %
2865 14-12-2019 21:22:17 7.1 C 25 %
2866 14-12-2019 21:31:18 6.7 C 26 %
2867 14-12-2019 21:41:18 6.8 C 26 %
2868 14-12-2019 21:52:17 6.9 C 26 %
2869 14-12-2019 22:02:17 7.1 C 25 %
2870 14-12-2019 22:11:17 6.8 C 26 %
2871 14-12-2019 22:22:17 6.9 C 26 %
2872 14-12-2019 22:31:17 7.3 C 25 %
2873 14-12-2019 22:41:17 7 C 26 %
2874 14-12-2019 22:52:17 7.3 C 25 %
2875 14-12-2019 23:02:17 7.1 C 25 %
Sensor: Nr:Datum:Temp:Feuchte:
Aussen-T/F 2876 14-12-2019 23:12:17 7.3 C 25 %
2877 14-12-2019 23:22:17 7 C 26 %
2878 14-12-2019 23:31:18 7 C 26 %
2879 14-12-2019 23:41:18 7.4 C 25 %
2880 14-12-2019 23:51:18 7 C 25 %
2881 15-12-2019 00:02:17 6.4 C 27 %
2882 15-12-2019 00:11:17 6 C 28 %
2883 15-12-2019 00:22:17 5.6 C 30 %
2884 15-12-2019 00:31:18 5.3 C 31 %
2885 15-12-2019 00:41:18 5.1 C 32 %
2886 15-12-2019 00:52:17 5.2 C 32 %
2887 15-12-2019 01:02:17 5.2 C 32 %
2888 15-12-2019 01:12:17 5.3 C 33 %
2889 15-12-2019 01:22:17 5.5 C 33 %
2890 15-12-2019 01:31:18 5.7 C 31 %
2891 15-12-2019 01:41:18 5.6 C 31 %
2892 15-12-2019 01:52:17 5.6 C 31 %
2893 15-12-2019 02:02:17 5.9 C 31 %
2894 15-12-2019 02:12:17 5.8 C 32 %
2895 15-12-2019 02:22:17 5.9 C 32 %
2896 15-12-2019 02:32:18 5.7 C 35 %
2897 15-12-2019 02:42:18 5.8 C 37 %
2898 15-12-2019 02:52:17 5.9 C 39 %
2899 15-12-2019 03:02:18 5.9 C 40 %
2900 15-12-2019 03:12:18 5.9 C 41 %
Sensor: Nr:Datum:Temp:Feuchte:
Aussen-T/F 2901 15-12-2019 03:22:17 6 C 41 %
2902 15-12-2019 03:32:17 6 C 42 %
2903 15-12-2019 03:42:17 6.3 C 42 %
2904 15-12-2019 03:52:17 6.4 C 42 %
2905 15-12-2019 04:02:17 6.8 C 42 %
2906 15-12-2019 04:12:17 7.3 C 41 %
2907 15-12-2019 04:22:17 7.3 C 41 %
2908 15-12-2019 04:32:17 7.5 C 41 %
2909 15-12-2019 04:42:17 7.9 C 40 %
2910 15-12-2019 04:52:17 8 C 39 %
2911 15-12-2019 05:02:17 8.2 C 38 %
2912 15-12-2019 05:12:17 8.2 C 37 %
2913 15-12-2019 05:22:17 8.4 C 37 %
2914 15-12-2019 05:32:18 9 C 34 %
2915 15-12-2019 05:42:18 10 C 30 %
2916 15-12-2019 05:52:17 10.2 C 30 %
2917 15-12-2019 06:02:17 10.3 C 29 %
2918 15-12-2019 06:12:17 10.3 C 29 %
2919 15-12-2019 06:22:17 10.1 C 29 %
2920 15-12-2019 06:32:17 10.5 C 28 %
2921 15-12-2019 06:42:17 10.8 C 27 %
2922 15-12-2019 06:52:17 10.7 C 27 %
2923 15-12-2019 07:02:17 10.5 C 27 %
2924 15-12-2019 07:12:17 10.9 C 27 %
2925 15-12-2019 07:22:17 10.3 C 27 %
Sensor: Nr:Datum:Temp:Feuchte:
Aussen-T/F 2926 15-12-2019 07:32:17 10.6 C 27 %
2927 15-12-2019 07:42:17 10.5 C 27 %
2928 15-12-2019 07:52:17 10.7 C 27 %
2929 15-12-2019 08:02:17 10.7 C 27 %
2930 15-12-2019 08:12:17 11 C 26 %
2931 15-12-2019 08:22:17 10.9 C 27 %
2932 15-12-2019 08:32:18 10.6 C 27 %
2933 15-12-2019 08:42:18 10.2 C 28 %
2934 15-12-2019 08:52:17 9.5 C 34 %
2935 15-12-2019 09:02:17 9.2 C 34 %
2936 15-12-2019 09:12:17 8.9 C 35 %
2937 15-12-2019 09:22:17 8.7 C 33 %
2938 15-12-2019 09:32:17 8.5 C 34 %
2939 15-12-2019 09:42:17 8.2 C 35 %
2940 15-12-2019 09:52:18 8 C 36 %
2941 15-12-2019 10:02:18 8.1 C 34 %
2942 15-12-2019 10:12:18 8.2 C 32 %
2943 15-12-2019 10:22:18 8.2 C 34 %
2944 15-12-2019 10:32:17 8.1 C 33 %
2945 15-12-2019 10:42:17 8.5 C 31 %
2946 15-12-2019 10:52:17 8.7 C 30 %
2947 15-12-2019 11:02:17 8.4 C 30 %
2948 15-12-2019 11:12:17 8.5 C 30 %
2949 15-12-2019 11:22:17 8.5 C 28 %
2950 15-12-2019 11:32:17 8.6 C 28 %
Sensor: Nr:Datum:Temp:Feuchte:
Aussen-T/F 2951 15-12-2019 11:42:17 8.6 C 28 %
2952 15-12-2019 11:52:17 8.3 C 27 %
2953 15-12-2019 12:02:17 8.3 C 27 %
2954 15-12-2019 12:12:17 8.1 C 27 %
2955 15-12-2019 12:22:17 8.1 C 28 %
2956 15-12-2019 12:32:17 7.9 C 29 %
2957 15-12-2019 12:42:17 8.2 C 28 %
2958 15-12-2019 12:52:18 8.4 C 28 %
2959 15-12-2019 13:02:18 8.7 C 27 %
2960 15-12-2019 13:12:18 9.1 C 25 %
2961 15-12-2019 13:22:17 9.3 C 23 %
2962 15-12-2019 13:32:17 9.2 C 21 %
2963 15-12-2019 13:42:17 9.2 C 20 %
2964 15-12-2019 13:52:18 9.2 C 20 %
2965 15-12-2019 14:02:17 9.2 C 20 %
2966 15-12-2019 14:12:17 9.3 C 20 %
2967 15-12-2019 14:22:17 9.3 C 20 %
2968 15-12-2019 14:32:17 9.1 C 20 %
2969 15-12-2019 14:42:17 9.1 C 20 %
2970 15-12-2019 14:52:17 9 C 20 %
2971 15-12-2019 15:02:17 9 C 20 %
2972 15-12-2019 15:12:17 8.9 C 20 %
2973 15-12-2019 15:22:17 8.9 C 20 %
2974 15-12-2019 15:32:17 8.8 C 20 %
2975 15-12-2019 15:42:17 8.7 C 20 %
Sensor: Nr:Datum:Temp:Feuchte:
Aussen-T/F 2976 15-12-2019 15:52:17 8.7 C 20 %
2977 15-12-2019 16:02:17 8.4 C 20 %
2978 15-12-2019 16:12:17 8.2 C 20 %
2979 15-12-2019 16:22:18 8.4 C 20 %
2980 15-12-2019 16:32:17 7.9 C 20 %
2981 15-12-2019 16:42:17 7.6 C 20 %
2982 15-12-2019 16:52:17 8 C 20 %
2983 15-12-2019 17:02:17 7.4 C 20 %
2984 15-12-2019 17:12:17 7.4 C 20 %
2985 15-12-2019 17:22:17 7.8 C 20 %
2986 15-12-2019 17:32:17 7.2 C 21 %
2987 15-12-2019 17:42:17 7.6 C 20 %
2988 15-12-2019 17:52:17 7.7 C 20 %
2989 15-12-2019 18:02:17 7.5 C 20 %
2990 15-12-2019 18:12:17 8.2 C 20 %
2991 15-12-2019 18:22:17 7.5 C 20 %
2992 15-12-2019 18:32:17 6.9 C 25 %
2993 15-12-2019 18:42:17 6.2 C 27 %
2994 15-12-2019 18:52:18 5.9 C 29 %
2995 15-12-2019 19:02:17 5.4 C 30 %
2996 15-12-2019 19:12:17 5.3 C 31 %
2997 15-12-2019 19:22:17 4.9 C 32 %
2998 15-12-2019 19:32:18 5.3 C 32 %
2999 15-12-2019 19:42:18 5 C 33 %
3000 15-12-2019 19:52:17 5.4 C 33 %
Sensor: Nr:Datum:Temp:Feuchte:
Aussen-T/F 3001 15-12-2019 20:02:17 5.2 C 33 %
3002 15-12-2019 20:12:17 4.7 C 35 %
3003 15-12-2019 20:22:17 4.4 C 36 %
3004 15-12-2019 20:32:17 4.3 C 37 %
3005 15-12-2019 20:42:17 3.9 C 39 %
3006 15-12-2019 20:52:17 3.7 C 40 %
3007 15-12-2019 21:02:17 3.5 C 41 %
3008 15-12-2019 21:12:17 3.3 C 41 %
3009 15-12-2019 21:22:17 3.1 C 41 %
3010 15-12-2019 21:32:18 2.8 C 42 %
3011 15-12-2019 21:42:18 2.9 C 43 %
3012 15-12-2019 21:52:17 3.3 C 43 %
3013 15-12-2019 22:02:17 3.3 C 44 %
3014 15-12-2019 22:12:17 3.3 C 43 %
3015 15-12-2019 22:22:17 3.5 C 43 %
3016 15-12-2019 22:32:17 3.5 C 43 %
3017 15-12-2019 22:42:17 3.4 C 43 %
3018 15-12-2019 22:52:18 3.3 C 43 %
3019 15-12-2019 23:02:17 3.5 C 43 %
3020 15-12-2019 23:12:18 3.6 C 43 %
3021 15-12-2019 23:22:17 3.7 C 43 %
3022 15-12-2019 23:32:18 3.5 C 42 %
3023 15-12-2019 23:42:18 3.3 C 42 %
3024 15-12-2019 23:52:17 3.8 C 43 %
3025 16-12-2019 00:02:17 4 C 42 %
Sensor: Nr:Datum:Temp:Feuchte:
Aussen-T/F 3026 16-12-2019 00:12:17 4.4 C 42 %
3027 16-12-2019 00:22:17 4.4 C 42 %
3028 16-12-2019 00:32:17 4.5 C 42 %
3029 16-12-2019 00:42:17 4.5 C 42 %
3030 16-12-2019 00:52:18 4.7 C 42 %
3031 16-12-2019 01:02:17 5.1 C 41 %
3032 16-12-2019 01:12:17 5 C 41 %
3033 16-12-2019 01:22:17 5.2 C 42 %
3034 16-12-2019 01:32:17 5.2 C 41 %
3035 16-12-2019 01:42:18 5.3 C 42 %
3036 16-12-2019 01:52:17 5.5 C 42 %
3037 16-12-2019 02:02:18 5.4 C 42 %
3038 16-12-2019 02:12:18 5.5 C 42 %
3039 16-12-2019 02:22:17 5.7 C 42 %
3040 16-12-2019 02:32:17 5.7 C 42 %
3041 16-12-2019 02:42:17 5.9 C 42 %
3042 16-12-2019 02:52:18 5.8 C 41 %
3043 16-12-2019 03:02:17 5.8 C 41 %
3044 16-12-2019 03:12:17 5.9 C 41 %
3045 16-12-2019 03:22:17 5.9 C 41 %
3046 16-12-2019 03:32:18 5.9 C 41 %
3047 16-12-2019 03:42:18 5.8 C 41 %
3048 16-12-2019 03:52:17 6 C 41 %
3049 16-12-2019 04:02:17 6 C 41 %
3050 16-12-2019 04:12:17 6 C 41 %
Sensor: Nr:Datum:Temp:Feuchte:
Aussen-T/F 3051 16-12-2019 04:22:17 5.9 C 41 %
3052 16-12-2019 04:32:17 6.1 C 41 %
3053 16-12-2019 04:42:17 6.2 C 41 %
3054 16-12-2019 04:52:17 6.3 C 41 %
3055 16-12-2019 05:02:17 6.4 C 41 %
3056 16-12-2019 05:12:17 6.4 C 41 %
3057 16-12-2019 05:22:17 6.5 C 41 %
3058 16-12-2019 05:32:17 6.6 C 41 %
3059 16-12-2019 05:42:17 6.6 C 41 %
3060 16-12-2019 05:52:17 6.8 C 41 %
3061 16-12-2019 06:02:17 6.9 C 41 %
3062 16-12-2019 06:12:17 6.9 C 41 %
3063 16-12-2019 06:22:17 6.8 C 40 %
3064 16-12-2019 06:32:17 6.7 C 40 %
3065 16-12-2019 06:42:17 6.8 C 40 %
3066 16-12-2019 06:52:17 6.8 C 40 %
3067 16-12-2019 07:02:17 6.8 C 40 %
3068 16-12-2019 07:12:17 6.7 C 40 %
3069 16-12-2019 07:22:17 6.8 C 40 %
3070 16-12-2019 07:32:18 6.9 C 41 %
3071 16-12-2019 07:42:18 6.9 C 41 %
3072 16-12-2019 07:52:17 7 C 40 %
3073 16-12-2019 08:02:17 7.1 C 40 %
3074 16-12-2019 08:12:17 7 C 40 %
3075 16-12-2019 08:22:17 7.1 C 40 %
Sensor: Nr:Datum:Temp:Feuchte:
Aussen-T/F 3076 16-12-2019 08:32:17 7.1 C 40 %
3077 16-12-2019 08:42:17 7.1 C 40 %
3078 16-12-2019 08:52:17 7.2 C 40 %
3079 16-12-2019 09:02:17 7.3 C 40 %
3080 16-12-2019 09:12:17 7.5 C 40 %
3081 16-12-2019 09:22:18 7.4 C 40 %
3082 16-12-2019 09:32:17 7.5 C 40 %
3083 16-12-2019 09:42:17 7.5 C 40 %
3084 16-12-2019 09:52:17 7.6 C 40 %
3085 16-12-2019 10:02:18 7.6 C 40 %
3086 16-12-2019 10:12:18 7.7 C 40 %
3087 16-12-2019 10:22:17 7.8 C 40 %
3088 16-12-2019 10:32:17 7.9 C 40 %
3089 16-12-2019 10:42:17 8.1 C 40 %
3090 16-12-2019 10:52:17 8.2 C 40 %
3091 16-12-2019 11:02:17 8.3 C 40 %
3092 16-12-2019 11:12:17 8.5 C 40 %
3093 16-12-2019 11:22:17 8.9 C 40 %
3094 16-12-2019 11:32:18 8.8 C 39 %
3095 16-12-2019 11:42:18 9.1 C 39 %
3096 16-12-2019 11:52:17 9.4 C 39 %
3097 16-12-2019 12:02:17 9.3 C 38 %
3098 16-12-2019 12:12:17 9.3 C 37 %
3099 16-12-2019 12:22:17 9.3 C 37 %
3100 16-12-2019 12:32:17 9.4 C 37 %
Sensor: Nr:Datum:Temp:Feuchte:
Aussen-T/F 3101 16-12-2019 12:42:17 9.4 C 38 %
3102 16-12-2019 12:52:17 9.8 C 38 %
3103 16-12-2019 13:02:17 9.9 C 36 %
3104 16-12-2019 13:12:17 9.9 C 36 %
3105 16-12-2019 13:22:17 10 C 35 %
3106 16-12-2019 13:32:17 10.2 C 34 %
3107 16-12-2019 13:42:17 10.2 C 35 %
3108 16-12-2019 13:52:18 10.3 C 34 %
3109 16-12-2019 14:02:17 10.1 C 34 %
3110 16-12-2019 14:12:17 10.2 C 34 %
3111 16-12-2019 14:22:17 10.3 C 34 %
3112 16-12-2019 14:32:17 10.2 C 33 %
3113 16-12-2019 14:42:17 10.1 C 34 %
3114 16-12-2019 14:52:18 10.1 C 34 %
3115 16-12-2019 15:02:17 9.9 C 35 %
3116 16-12-2019 15:12:17 9.8 C 35 %
3117 16-12-2019 15:22:17 9.6 C 36 %
3118 16-12-2019 15:32:18 9.3 C 37 %
3119 16-12-2019 15:42:18 9.1 C 39 %
3120 16-12-2019 15:52:17 9 C 40 %
3121 16-12-2019 16:02:17 8.7 C 40 %
3122 16-12-2019 16:12:17 8.5 C 40 %
3123 16-12-2019 16:22:17 8.4 C 40 %
3124 16-12-2019 16:32:18 8.2 C 41 %
3125 16-12-2019 16:42:18 8 C 40 %
Sensor: Nr:Datum:Temp:Feuchte:
Aussen-T/F 3126 16-12-2019 16:52:17 7.7 C 41 %
3127 16-12-2019 17:02:17 7.4 C 41 %
3128 16-12-2019 17:12:17 7.3 C 41 %
3129 16-12-2019 17:22:17 7.5 C 41 %
3130 16-12-2019 17:32:17 7.3 C 41 %
3131 16-12-2019 17:42:17 7.2 C 41 %
3132 16-12-2019 17:52:17 7 C 41 %
3133 16-12-2019 18:02:17 7.1 C 41 %
3134 16-12-2019 18:12:17 7.4 C 41 %
3135 16-12-2019 18:22:17 7.5 C 41 %
3136 16-12-2019 18:32:17 8.2 C 40 %
3137 16-12-2019 18:42:17 8.1 C 38 %
3138 16-12-2019 18:52:17 8.7 C 37 %
3139 16-12-2019 19:02:18 8.5 C 35 %
3140 16-12-2019 19:12:18 7.9 C 36 %
3141 16-12-2019 19:22:17 7.7 C 37 %
3142 16-12-2019 19:32:17 8.5 C 40 %
3143 16-12-2019 19:42:17 7.9 C 37 %
3144 16-12-2019 19:52:18 8 C 37 %
3145 16-12-2019 20:02:17 7.9 C 37 %
3146 16-12-2019 20:12:17 8.1 C 36 %
3147 16-12-2019 20:22:17 7.7 C 37 %
3148 16-12-2019 20:32:17 8 C 39 %
3149 16-12-2019 20:42:17 7.9 C 36 %
3150 16-12-2019 20:52:17 7.8 C 36 %
Sensor: Nr:Datum:Temp:Feuchte:
Aussen-T/F 3151 16-12-2019 21:02:17 7.3 C 37 %
3152 16-12-2019 21:12:17 7.2 C 40 %
3153 16-12-2019 21:22:17 7.5 C 39 %
3154 16-12-2019 21:32:17 7.2 C 38 %
3155 16-12-2019 21:42:17 7 C 40 %
3156 16-12-2019 21:52:17 6.7 C 41 %
3157 16-12-2019 22:02:17 6.9 C 41 %
3158 16-12-2019 22:12:17 7.5 C 40 %
3159 16-12-2019 22:22:17 7.4 C 38 %
3160 16-12-2019 22:32:17 7.9 C 37 %
3161 16-12-2019 22:42:17 7.8 C 36 %
3162 16-12-2019 22:52:18 7.3 C 37 %
3163 16-12-2019 23:02:17 7.3 C 39 %
3164 16-12-2019 23:12:17 7.3 C 39 %
3165 16-12-2019 23:22:17 7.5 C 40 %
3166 16-12-2019 23:32:17 7.6 C 39 %
3167 16-12-2019 23:42:17 7.6 C 39 %
3168 16-12-2019 23:52:18 7.8 C 39 %
3169 17-12-2019 00:02:17 7.6 C 37 %
3170 17-12-2019 00:12:17 7.5 C 38 %
3171 17-12-2019 00:22:17 7.6 C 38 %
3172 17-12-2019 00:32:18 7.3 C 39 %
3173 17-12-2019 00:42:18 7.2 C 40 %
3174 17-12-2019 00:52:17 7.4 C 39 %
3175 17-12-2019 01:02:17 7.2 C 39 %
Sensor: Nr:Datum:Temp:Feuchte:
Aussen-T/F 3176 17-12-2019 01:12:17 7.4 C 40 %
3177 17-12-2019 01:22:17 7.8 C 39 %
3178 17-12-2019 01:32:17 7.3 C 37 %
3179 17-12-2019 01:42:17 7.4 C 38 %
3180 17-12-2019 01:52:17 7.4 C 37 %
3181 17-12-2019 02:02:18 7.4 C 37 %
3182 17-12-2019 02:12:18 7.6 C 37 %
3183 17-12-2019 02:22:17 7.3 C 37 %
3184 17-12-2019 02:32:17 7.1 C 37 %
3185 17-12-2019 02:42:17 7.5 C 36 %
3186 17-12-2019 02:52:18 7.6 C 36 %
3187 17-12-2019 03:02:17 8 C 35 %
3188 17-12-2019 03:12:17 8.1 C 35 %
3189 17-12-2019 03:22:17 8.4 C 35 %
3190 17-12-2019 03:32:17 8.8 C 32 %
3191 17-12-2019 03:42:17 8.9 C 32 %
3192 17-12-2019 03:52:18 8.8 C 32 %
3193 17-12-2019 04:02:17 8.5 C 32 %
3194 17-12-2019 04:12:17 8.5 C 32 %
3195 17-12-2019 04:22:17 8.4 C 32 %
3196 17-12-2019 04:32:17 8.4 C 32 %
3197 17-12-2019 04:42:17 8 C 32 %
3198 17-12-2019 04:52:18 8.3 C 33 %
3199 17-12-2019 05:02:17 8.5 C 33 %
3200 17-12-2019 05:12:17 8.5 C 33 %
Sensor: Nr:Datum:Temp:Feuchte:
Aussen-T/F 3201 17-12-2019 05:22:17 8.2 C 33 %
3202 17-12-2019 05:32:17 8.1 C 34 %
3203 17-12-2019 05:42:17 7.9 C 35 %
3204 17-12-2019 05:52:17 7.9 C 36 %
3205 17-12-2019 06:02:17 7.8 C 36 %
3206 17-12-2019 06:12:17 7.3 C 36 %
3207 17-12-2019 06:22:18 7.3 C 38 %
3208 17-12-2019 06:32:17 7.5 C 38 %
3209 17-12-2019 06:42:17 7.6 C 36 %
3210 17-12-2019 06:52:17 7.6 C 38 %
3211 17-12-2019 07:02:17 7.7 C 36 %
3212 17-12-2019 07:12:17 7.6 C 37 %
3213 17-12-2019 07:22:17 7.5 C 36 %
3214 17-12-2019 07:32:18 7 C 37 %
3215 17-12-2019 07:42:18 7.4 C 38 %
3216 17-12-2019 07:52:17 7.2 C 36 %
3217 17-12-2019 08:02:17 7.2 C 36 %
3218 17-12-2019 08:12:17 6.9 C 37 %
3219 17-12-2019 08:22:17 6.9 C 38 %
3220 17-12-2019 08:32:17 7 C 38 %
3221 17-12-2019 08:42:18 6.9 C 37 %
3222 17-12-2019 08:52:17 6.9 C 37 %
3223 17-12-2019 09:02:17 6.5 C 38 %
3224 17-12-2019 09:12:17 6.4 C 39 %
3225 17-12-2019 09:22:18 6.5 C 40 %
Sensor: Nr:Datum:Temp:Feuchte:
Aussen-T/F 3226 17-12-2019 09:32:17 6.4 C 40 %
3227 17-12-2019 09:42:17 6.6 C 40 %
3228 17-12-2019 09:52:17 6.3 C 39 %
3229 17-12-2019 10:02:18 6.4 C 40 %
3230 17-12-2019 10:12:18 6.4 C 40 %
3231 17-12-2019 10:22:17 6.4 C 39 %
3232 17-12-2019 10:32:17 6.8 C 40 %
3233 17-12-2019 10:42:17 7.2 C 37 %
3234 17-12-2019 10:52:17 8 C 36 %
3235 17-12-2019 11:02:17 8.6 C 34 %
3236 17-12-2019 11:12:17 8.5 C 32 %
3237 17-12-2019 11:22:17 8.7 C 32 %
3238 17-12-2019 11:32:17 9 C 32 %
3239 17-12-2019 11:42:17 9.1 C 32 %
3240 17-12-2019 11:52:17 9 C 32 %
3241 17-12-2019 12:02:17 9 C 34 %
3242 17-12-2019 12:12:17 9.2 C 34 %
3243 17-12-2019 12:22:17 9.5 C 33 %
3244 17-12-2019 12:32:17 9.7 C 32 %
3245 17-12-2019 12:42:17 9.8 C 32 %
3246 17-12-2019 12:52:17 9.6 C 32 %
3247 17-12-2019 13:02:17 10.1 C 31 %
3248 17-12-2019 13:12:17 10.4 C 30 %
3249 17-12-2019 13:22:17 10.6 C 30 %
3250 17-12-2019 13:32:17 11 C 29 %
Sensor: Nr:Datum:Temp:Feuchte:
Aussen-T/F 3251 17-12-2019 13:42:17 11.6 C 28 %
3252 17-12-2019 13:52:18 12.3 C 26 %
3253 17-12-2019 14:02:17 12.5 C 26 %
3254 17-12-2019 14:12:17 12.4 C 26 %
3255 17-12-2019 14:22:17 11.6 C 27 %
3256 17-12-2019 14:32:17 11.4 C 27 %
3257 17-12-2019 14:42:17 11.5 C 27 %
3258 17-12-2019 14:52:17 11.8 C 27 %
3259 17-12-2019 15:02:17 12 C 26 %
3260 17-12-2019 15:12:17 12 C 26 %
3261 17-12-2019 15:22:17 11.8 C 27 %
3262 17-12-2019 15:32:17 11.8 C 27 %
3263 17-12-2019 15:42:17 12.3 C 25 %
3264 17-12-2019 15:52:18 12.2 C 25 %
3265 17-12-2019 16:02:17 12.4 C 25 %
3266 17-12-2019 16:12:17 12.4 C 25 %
3267 17-12-2019 16:22:17 12.5 C 25 %
3268 17-12-2019 16:32:18 12.6 C 25 %
3269 17-12-2019 16:42:18 12.2 C 25 %
3270 17-12-2019 16:52:17 11.8 C 25 %
3271 17-12-2019 17:02:17 11.2 C 26 %
3272 17-12-2019 17:12:18 11.5 C 25 %
3273 17-12-2019 17:22:17 12 C 24 %
3274 17-12-2019 17:32:18 13.1 C 20 %
3275 17-12-2019 17:42:18 13.4 C 20 %
Sensor: Nr:Datum:Temp:Feuchte:
Aussen-T/F 3276 17-12-2019 17:52:17 13.8 C 20 %
3277 17-12-2019 18:02:17 13.4 C 20 %
3278 17-12-2019 18:12:17 13.2 C 20 %
3279 17-12-2019 18:22:17 13.6 C 20 %
3280 17-12-2019 18:32:17 13.7 C 20 %
3281 17-12-2019 18:42:17 13.1 C 21 %
3282 17-12-2019 18:52:17 12.7 C 25 %
3283 17-12-2019 19:02:17 12.8 C 25 %
3284 17-12-2019 19:12:17 13.1 C 22 %
3285 17-12-2019 19:22:17 12.8 C 25 %
3286 17-12-2019 19:32:18 11.7 C 29 %
3287 17-12-2019 19:42:18 11.6 C 29 %
3288 17-12-2019 19:52:17 11.6 C 30 %
3289 17-12-2019 20:02:18 11.6 C 30 %
3290 17-12-2019 20:12:18 11.5 C 31 %
3291 17-12-2019 20:22:17 11.6 C 31 %
3292 17-12-2019 20:32:17 11.3 C 33 %
3293 17-12-2019 20:42:17 11.2 C 35 %
3294 17-12-2019 20:52:17 11 C 36 %
3295 17-12-2019 21:02:17 10.9 C 36 %
3296 17-12-2019 21:12:17 10.5 C 38 %
3297 17-12-2019 21:22:17 10.3 C 39 %
3298 17-12-2019 21:32:17 10.4 C 38 %
3299 17-12-2019 21:42:17 11.5 C 31 %
3300 17-12-2019 21:52:17 11.3 C 31 %
Sensor: Nr:Datum:Temp:Feuchte:
Aussen-T/F 3301 17-12-2019 22:02:17 13 C 25 %
3302 17-12-2019 22:12:17 12.5 C 26 %
3303 17-12-2019 22:22:17 13.1 C 25 %
3304 17-12-2019 22:32:17 13.4 C 25 %
3305 17-12-2019 22:42:17 13.2 C 25 %
3306 17-12-2019 22:52:17 13.1 C 25 %
3307 17-12-2019 23:02:17 12.4 C 26 %
3308 17-12-2019 23:12:17 11.9 C 29 %
3309 17-12-2019 23:22:17 11.3 C 30 %
3310 17-12-2019 23:32:17 11.1 C 31 %
3311 17-12-2019 23:42:17 11 C 30 %
3312 17-12-2019 23:52:17 10.8 C 33 %
3313 18-12-2019 00:02:17 10.4 C 35 %
3314 18-12-2019 00:12:17 10.4 C 34 %
3315 18-12-2019 00:22:17 10.5 C 34 %
3316 18-12-2019 00:32:18 10.9 C 31 %
3317 18-12-2019 00:42:18 11 C 30 %
3318 18-12-2019 00:52:17 11 C 30 %
3319 18-12-2019 01:02:17 10.8 C 30 %
3320 18-12-2019 01:12:17 11 C 29 %
3321 18-12-2019 01:22:17 11.1 C 29 %
3322 18-12-2019 01:32:18 10.9 C 30 %
3323 18-12-2019 01:42:18 10.4 C 30 %
3324 18-12-2019 01:52:17 10.8 C 30 %
3325 18-12-2019 02:02:17 11.1 C 30 %
Sensor: Nr:Datum:Temp:Feuchte:
Aussen-T/F 3326 18-12-2019 02:12:17 11.1 C 29 %
3327 18-12-2019 02:22:17 11.2 C 30 %
3328 18-12-2019 02:32:17 11.3 C 29 %
3329 18-12-2019 02:42:18 10.9 C 30 %
3330 18-12-2019 02:52:17 10.9 C 31 %
3331 18-12-2019 03:02:17 10.6 C 33 %
3332 18-12-2019 03:12:17 10.3 C 35 %
3333 18-12-2019 03:22:18 10.3 C 37 %
3334 18-12-2019 03:32:17 10.1 C 37 %
3335 18-12-2019 03:42:17 10 C 38 %
3336 18-12-2019 03:52:18 10.1 C 38 %
3337 18-12-2019 04:02:18 10 C 38 %
3338 18-12-2019 04:12:18 9.9 C 38 %
3339 18-12-2019 04:22:17 9.8 C 35 %
3340 18-12-2019 04:32:18 9.6 C 34 %
3341 18-12-2019 04:42:18 9.5 C 33 %
3342 18-12-2019 04:52:17 9.3 C 33 %
3343 18-12-2019 05:02:18 9.2 C 33 %
3344 18-12-2019 05:12:18 9.1 C 33 %
3345 18-12-2019 05:22:17 8.8 C 35 %
3346 18-12-2019 05:32:17 8.7 C 36 %
3347 18-12-2019 05:42:17 8.2 C 36 %
3348 18-12-2019 05:52:17 8.2 C 39 %
3349 18-12-2019 06:02:18 8.1 C 39 %
3350 18-12-2019 06:12:18 8 C 37 %
Sensor: Nr:Datum:Temp:Feuchte:
Aussen-T/F 3351 18-12-2019 06:22:17 8 C 37 %
3352 18-12-2019 06:32:18 7.9 C 37 %
3353 18-12-2019 06:42:18 7.5 C 37 %
3354 18-12-2019 06:52:17 7.4 C 39 %
3355 18-12-2019 07:02:17 7.2 C 40 %
3356 18-12-2019 07:12:17 7.3 C 40 %
3357 18-12-2019 07:22:17 7.3 C 40 %
3358 18-12-2019 07:32:17 7.1 C 39 %
3359 18-12-2019 07:42:17 6.8 C 40 %
3360 18-12-2019 07:52:17 6.9 C 41 %
3361 18-12-2019 08:02:17 6.7 C 41 %
3362 18-12-2019 08:12:17 6.5 C 41 %
3363 18-12-2019 08:22:17 6.5 C 41 %
3364 18-12-2019 08:32:17 6.3 C 41 %
3365 18-12-2019 08:42:17 6.4 C 42 %
3366 18-12-2019 08:52:17 6.6 C 42 %
3367 18-12-2019 09:02:17 6.5 C 41 %
3368 18-12-2019 09:12:17 6.1 C 40 %
3369 18-12-2019 09:22:17 6 C 41 %
3370 18-12-2019 09:32:17 6.5 C 42 %
3371 18-12-2019 09:42:17 6.7 C 42 %
3372 18-12-2019 09:52:17 6.9 C 41 %
3373 18-12-2019 10:02:17 7 C 40 %
3374 18-12-2019 10:12:18 7.1 C 40 %
3375 18-12-2019 10:22:17 7.5 C 38 %
Sensor: Nr:Datum:Temp:Feuchte:
Aussen-T/F 3376 18-12-2019 10:32:17 7.5 C 36 %
3377 18-12-2019 10:42:17 7.4 C 36 %
3378 18-12-2019 10:52:17 6.9 C 38 %
3379 18-12-2019 11:02:17 6.8 C 38 %
3380 18-12-2019 11:12:17 6.8 C 38 %
3381 18-12-2019 11:22:17 6.6 C 38 %
3382 18-12-2019 11:32:18 6.7 C 39 %
3383 18-12-2019 11:42:18 6.9 C 38 %
3384 18-12-2019 11:52:17 7.6 C 35 %
3385 18-12-2019 12:02:17 8.1 C 33 %
3386 18-12-2019 12:12:17 8 C 32 %
3387 18-12-2019 12:22:17 8.3 C 31 %
3388 18-12-2019 12:32:17 8.6 C 30 %
3389 18-12-2019 12:42:17 8.8 C 29 %
3390 18-12-2019 12:52:17 8.7 C 29 %
3391 18-12-2019 13:02:17 8.4 C 30 %
3392 18-12-2019 13:12:17 8.2 C 30 %
3393 18-12-2019 13:22:17 7.9 C 31 %
3394 18-12-2019 13:32:18 7.8 C 32 %
3395 18-12-2019 13:42:18 7.7 C 33 %
3396 18-12-2019 13:52:17 7.8 C 32 %
3397 18-12-2019 14:02:18 7.8 C 33 %
3398 18-12-2019 14:12:18 7.7 C 33 %
3399 18-12-2019 14:22:17 7.5 C 34 %
3400 18-12-2019 14:32:17 7.3 C 35 %
Sensor: Nr:Datum:Temp:Feuchte:
Aussen-T/F 3401 18-12-2019 14:42:17 7.2 C 35 %
3402 18-12-2019 14:52:17 7.2 C 35 %
3403 18-12-2019 15:02:17 7.2 C 35 %
3404 18-12-2019 15:12:17 7 C 36 %
3405 18-12-2019 15:22:17 7 C 36 %
3406 18-12-2019 15:32:17 6.7 C 37 %
3407 18-12-2019 15:42:17 6.8 C 37 %
3408 18-12-2019 15:52:17 6.7 C 36 %
3409 18-12-2019 16:02:17 6.6 C 36 %
3410 18-12-2019 16:12:17 6.5 C 36 %
3411 18-12-2019 16:22:17 6.4 C 36 %
3412 18-12-2019 16:32:17 6 C 36 %
3413 18-12-2019 16:42:17 5.8 C 37 %
3414 18-12-2019 16:52:17 5.7 C 39 %
3415 18-12-2019 17:02:17 5.3 C 38 %
3416 18-12-2019 17:12:17 4.9 C 40 %
3417 18-12-2019 17:22:17 5 C 42 %
3418 18-12-2019 17:32:17 4.4 C 41 %
3419 18-12-2019 17:42:17 4.2 C 42 %
3420 18-12-2019 17:52:18 4.1 C 42 %
3421 18-12-2019 18:02:17 4.1 C 43 %
3422 18-12-2019 18:12:17 4.1 C 43 %
3423 18-12-2019 18:22:17 4.4 C 43 %
3424 18-12-2019 18:32:17 4.5 C 43 %
3425 18-12-2019 18:42:17 4.3 C 42 %
Sensor: Nr:Datum:Temp:Feuchte:
Aussen-T/F 3426 18-12-2019 18:52:17 4.6 C 43 %
3427 18-12-2019 19:02:17 5 C 42 %
3428 18-12-2019 19:12:17 4.7 C 42 %
3429 18-12-2019 19:22:17 4.3 C 42 %
3430 18-12-2019 19:32:18 4.9 C 43 %
3431 18-12-2019 19:42:18 4.7 C 42 %
3432 18-12-2019 19:52:17 4.6 C 42 %
3433 18-12-2019 20:02:17 5 C 42 %
3434 18-12-2019 20:12:17 5 C 41 %
3435 18-12-2019 20:22:17 4.5 C 41 %
3436 18-12-2019 20:32:17 4.5 C 41 %
3437 18-12-2019 20:42:18 4.1 C 41 %
3438 18-12-2019 20:52:17 3.9 C 42 %
3439 18-12-2019 21:02:17 3.7 C 43 %
3440 18-12-2019 21:12:17 3.6 C 42 %
3441 18-12-2019 21:22:17 3.6 C 43 %
3442 18-12-2019 21:32:17 3.7 C 43 %
3443 18-12-2019 21:42:17 3.6 C 43 %
3444 18-12-2019 21:52:17 3.4 C 43 %
3445 18-12-2019 22:02:17 3.1 C 43 %
3446 18-12-2019 22:12:17 3.1 C 43 %
3447 18-12-2019 22:22:17 2.7 C 43 %
3448 18-12-2019 22:32:17 2.6 C 43 %
3449 18-12-2019 22:42:17 2.5 C 43 %
3450 18-12-2019 22:52:17 2.4 C 43 %
Sensor: Nr:Datum:Temp:Feuchte:
Aussen-T/F 3451 18-12-2019 23:02:17 2.4 C 43 %
3452 18-12-2019 23:12:17 2.3 C 43 %
3453 18-12-2019 23:22:18 2.3 C 43 %
3454 18-12-2019 23:32:17 2 C 43 %
3455 18-12-2019 23:42:17 2 C 43 %
3456 18-12-2019 23:52:17 2 C 43 %
3457 19-12-2019 00:02:18 2.3 C 44 %
3458 19-12-2019 00:12:18 2 C 43 %
3459 19-12-2019 00:22:17 2 C 43 %
3460 19-12-2019 00:32:17 2.1 C 43 %
3461 19-12-2019 00:42:17 2.4 C 44 %
3462 19-12-2019 00:52:18 2.3 C 43 %
3463 19-12-2019 01:02:17 2.1 C 43 %
3464 19-12-2019 01:12:17 2 C 43 %
3465 19-12-2019 01:22:17 2 C 43 %
3466 19-12-2019 01:32:18 1.6 C 44 %
3467 19-12-2019 01:42:18 1.9 C 44 %
3468 19-12-2019 01:52:17 2.3 C 43 %
3469 19-12-2019 02:02:17 2.2 C 43 %
3470 19-12-2019 02:12:17 2 C 43 %
3471 19-12-2019 02:22:17 2 C 43 %
3472 19-12-2019 02:32:18 2 C 43 %
3473 19-12-2019 02:42:18 1.8 C 44 %
3474 19-12-2019 02:52:17 2.1 C 43 %
3475 19-12-2019 03:02:18 1.5 C 44 %
Sensor: Nr:Datum:Temp:Feuchte:
Aussen-T/F 3476 19-12-2019 03:12:18 1.6 C 44 %
3477 19-12-2019 03:22:17 1.6 C 44 %
3478 19-12-2019 03:32:17 1.8 C 44 %
3479 19-12-2019 03:42:17 1.7 C 44 %
3480 19-12-2019 03:52:17 1.7 C 44 %
3481 19-12-2019 04:02:17 1.6 C 44 %
3482 19-12-2019 04:12:17 1.5 C 44 %
3483 19-12-2019 04:22:18 1.5 C 44 %
3484 19-12-2019 04:32:17 1.5 C 44 %
3485 19-12-2019 04:42:17 1.4 C 44 %
3486 19-12-2019 04:52:18 1.6 C 44 %
3487 19-12-2019 05:02:17 1.4 C 44 %
3488 19-12-2019 05:12:17 1.5 C 44 %
3489 19-12-2019 05:22:17 1.4 C 44 %
3490 19-12-2019 05:32:17 1.3 C 44 %
3491 19-12-2019 05:42:17 1.3 C 44 %
3492 19-12-2019 05:52:17 1.1 C 44 %
3493 19-12-2019 06:02:17 1.1 C 44 %
3494 19-12-2019 06:12:17 1.2 C 44 %
3495 19-12-2019 06:22:17 1 C 44 %
3496 19-12-2019 06:32:17 1.1 C 44 %
3497 19-12-2019 06:42:18 1 C 43 %
3498 19-12-2019 06:52:17 0.7 C 45 %
3499 19-12-2019 07:02:17 1 C 44 %
3500 19-12-2019 07:12:17 0.9 C 45 %
Sensor: Nr:Datum:Temp:Feuchte:
Aussen-T/F 3501 19-12-2019 07:22:17 1.7 C 44 %
3502 19-12-2019 07:32:17 3.5 C 43 %
3503 19-12-2019 07:42:18 3.2 C 42 %
3504 19-12-2019 07:52:17 3.1 C 42 %
3505 19-12-2019 08:02:18 4.6 C 42 %
3506 19-12-2019 08:12:18 3.8 C 42 %
3507 19-12-2019 08:22:17 3.7 C 42 %
3508 19-12-2019 08:32:18 4.6 C 41 %
3509 19-12-2019 08:42:18 4 C 41 %
3510 19-12-2019 08:52:17 3.3 C 41 %
3511 19-12-2019 09:02:17 4 C 41 %
3512 19-12-2019 09:12:17 4.4 C 41 %
3513 19-12-2019 09:22:17 4.1 C 41 %
3514 19-12-2019 09:32:17 4.6 C 41 %
3515 19-12-2019 09:42:17 4.4 C 41 %
3516 19-12-2019 09:52:17 4.5 C 41 %
3517 19-12-2019 10:02:17 4.7 C 41 %
3518 19-12-2019 10:12:17 4.9 C 41 %
3519 19-12-2019 10:22:17 5.2 C 41 %
3520 19-12-2019 10:32:17 7 C 40 %
3521 19-12-2019 10:42:17 7.2 C 40 %
3522 19-12-2019 10:52:18 6.7 C 40 %
3523 19-12-2019 11:02:17 6.4 C 39 %
3524 19-12-2019 11:12:17 6.3 C 39 %
3525 19-12-2019 11:22:17 6.3 C 40 %
Sensor: Nr:Datum:Temp:Feuchte:
Aussen-T/F 3526 19-12-2019 11:32:17 6.4 C 40 %
3527 19-12-2019 11:42:17 6.6 C 40 %
3528 19-12-2019 11:52:18 6.7 C 40 %
3529 19-12-2019 12:02:17 6.6 C 40 %
3530 19-12-2019 12:12:17 6.7 C 40 %
3531 19-12-2019 12:22:17 6.7 C 40 %
3532 19-12-2019 12:32:17 7 C 39 %
3533 19-12-2019 12:42:17 7 C 39 %
3534 19-12-2019 12:52:17 7.1 C 39 %
3535 19-12-2019 13:02:17 7.3 C 39 %
3536 19-12-2019 13:12:17 7.1 C 38 %
3537 19-12-2019 13:22:17 7.2 C 39 %
3538 19-12-2019 13:32:17 7.2 C 39 %
3539 19-12-2019 13:42:17 7.3 C 38 %
3540 19-12-2019 13:52:17 7.3 C 38 %
3541 19-12-2019 14:02:17 7.3 C 38 %
3542 19-12-2019 14:12:17 7.1 C 38 %
3543 19-12-2019 14:22:17 7.1 C 38 %
3544 19-12-2019 14:32:17 7.2 C 38 %
3545 19-12-2019 14:42:17 7.3 C 37 %
3546 19-12-2019 14:52:17 7.9 C 36 %
3547 19-12-2019 15:02:17 8.1 C 34 %
3548 19-12-2019 15:12:17 8.1 C 33 %
3549 19-12-2019 15:22:17 8.4 C 32 %
3550 19-12-2019 15:32:18 8.6 C 32 %
Sensor: Nr:Datum:Temp:Feuchte:
Aussen-T/F 3551 19-12-2019 15:42:18 8.7 C 31 %
3552 19-12-2019 15:52:17 8.8 C 31 %
3553 19-12-2019 16:02:17 8.7 C 30 %
3554 19-12-2019 16:12:17 8.3 C 31 %
3555 19-12-2019 16:22:18 8.1 C 31 %
3556 19-12-2019 16:32:17 7.9 C 32 %
3557 19-12-2019 16:42:17 7.9 C 31 %
3558 19-12-2019 16:52:17 7.6 C 32 %
3559 19-12-2019 17:02:17 7.4 C 32 %
3560 19-12-2019 17:12:17 6 C 35 %
3561 19-12-2019 17:22:17 5.7 C 37 %
3562 19-12-2019 17:32:17 5.5 C 39 %
3563 19-12-2019 17:42:17 5 C 39 %
3564 19-12-2019 17:52:17 4.9 C 41 %
3565 19-12-2019 18:02:17 5.2 C 42 %
3566 19-12-2019 18:12:18 4.9 C 42 %
3567 19-12-2019 18:22:17 5.2 C 42 %
3568 19-12-2019 18:32:17 5 C 41 %
3569 19-12-2019 18:42:17 5 C 41 %
3570 19-12-2019 18:52:18 5.8 C 42 %
3571 19-12-2019 19:02:17 5.7 C 41 %
3572 19-12-2019 19:12:17 5.2 C 39 %
3573 19-12-2019 19:22:18 4.7 C 40 %
3574 19-12-2019 19:32:17 4.9 C 42 %
3575 19-12-2019 19:42:17 4.7 C 42 %
Sensor: Nr:Datum:Temp:Feuchte:
Aussen-T/F 3576 19-12-2019 19:52:17 4.8 C 42 %
3577 19-12-2019 20:02:17 5 C 42 %
3578 19-12-2019 20:12:17 5 C 41 %
3579 19-12-2019 20:22:17 4.8 C 42 %
3580 19-12-2019 20:32:17 5.1 C 42 %
3581 19-12-2019 20:42:17 6 C 41 %
3582 19-12-2019 20:52:17 6 C 38 %
3583 19-12-2019 21:02:17 5.8 C 38 %
3584 19-12-2019 21:12:18 5.8 C 39 %
3585 19-12-2019 21:22:17 5.7 C 39 %
3586 19-12-2019 21:32:17 5.8 C 40 %
3587 19-12-2019 21:42:17 6 C 40 %
3588 19-12-2019 21:52:17 5.7 C 40 %
3589 19-12-2019 22:02:17 5.6 C 40 %
3590 19-12-2019 22:12:17 5.8 C 41 %
3591 19-12-2019 22:22:18 6.2 C 41 %
3592 19-12-2019 22:32:18 5.9 C 40 %
3593 19-12-2019 22:42:18 5.1 C 38 %
3594 19-12-2019 22:52:17 5 C 41 %
3595 19-12-2019 23:02:17 5.4 C 43 %
3596 19-12-2019 23:12:17 5.5 C 42 %
3597 19-12-2019 23:22:17 5.5 C 42 %
3598 19-12-2019 23:32:17 5.4 C 42 %
3599 19-12-2019 23:42:17 5.4 C 42 %
3600 19-12-2019 23:52:17 5.1 C 41 %
Sensor: Nr:Datum:Temp:Feuchte:
Aussen-T/F 3601 20-12-2019 00:02:17 4.8 C 42 %
3602 20-12-2019 00:12:17 4.3 C 41 %
3603 20-12-2019 00:22:17 4 C 41 %
3604 20-12-2019 00:32:17 3.9 C 43 %
3605 20-12-2019 00:42:17 3.7 C 42 %
3606 20-12-2019 00:52:17 3.4 C 43 %
3607 20-12-2019 01:02:17 3.1 C 42 %
3608 20-12-2019 01:12:17 3 C 43 %
3609 20-12-2019 01:22:17 3.3 C 44 %
3610 20-12-2019 01:32:17 3.1 C 43 %
3611 20-12-2019 01:42:17 3.1 C 43 %
3612 20-12-2019 01:52:17 2.8 C 44 %
3613 20-12-2019 02:02:17 2.8 C 44 %
3614 20-12-2019 02:12:17 2.6 C 44 %
3615 20-12-2019 02:22:17 2.5 C 44 %
3616 20-12-2019 02:32:18 3.2 C 44 %
3617 20-12-2019 02:42:18 3.4 C 44 %
3618 20-12-2019 02:52:17 3.8 C 44 %
3619 20-12-2019 03:02:17 4.7 C 42 %
3620 20-12-2019 03:12:17 4.2 C 41 %
3621 20-12-2019 03:22:17 4.6 C 41 %
3622 20-12-2019 03:32:17 4.4 C 40 %
3623 20-12-2019 03:42:17 4.4 C 40 %
3624 20-12-2019 03:52:17 4.6 C 41 %
3625 20-12-2019 04:02:17 4.4 C 40 %
Sensor: Nr:Datum:Temp:Feuchte:
Aussen-T/F 3626 20-12-2019 04:12:17 4.2 C 40 %
3627 20-12-2019 04:22:17 4 C 41 %
3628 20-12-2019 04:32:18 4.8 C 42 %
3629 20-12-2019 04:42:18 4.5 C 41 %
3630 20-12-2019 04:52:17 4.7 C 40 %
3631 20-12-2019 05:02:17 4.7 C 40 %
3632 20-12-2019 05:12:17 5.3 C 38 %
3633 20-12-2019 05:22:17 5.2 C 36 %
3634 20-12-2019 05:32:17 5.3 C 36 %
3635 20-12-2019 05:42:17 5.4 C 35 %
3636 20-12-2019 05:52:18 5.5 C 35 %
3637 20-12-2019 06:02:18 5.2 C 35 %
3638 20-12-2019 06:12:18 5.3 C 35 %
3639 20-12-2019 06:22:17 5.6 C 35 %
3640 20-12-2019 06:32:17 6 C 32 %
3641 20-12-2019 06:42:17 6 C 31 %
3642 20-12-2019 06:52:17 5.7 C 32 %
3643 20-12-2019 07:02:17 5.8 C 31 %
3644 20-12-2019 07:12:17 5.9 C 31 %
3645 20-12-2019 07:22:17 6.1 C 31 %
3646 20-12-2019 07:32:17 5.9 C 33 %
3647 20-12-2019 07:42:17 6.4 C 31 %
3648 20-12-2019 07:52:17 6.8 C 30 %
3649 20-12-2019 08:02:17 7.1 C 27 %
3650 20-12-2019 08:12:17 6.4 C 31 %
Sensor: Nr:Datum:Temp:Feuchte:
Aussen-T/F 3651 20-12-2019 08:22:17 6.4 C 32 %
3652 20-12-2019 08:32:18 6.5 C 32 %
3653 20-12-2019 08:42:18 6.3 C 32 %
3654 20-12-2019 08:52:17 6.3 C 33 %
3655 20-12-2019 09:02:17 6.5 C 33 %
3656 20-12-2019 09:12:17 6.7 C 31 %
3657 20-12-2019 09:22:17 6.5 C 33 %
3658 20-12-2019 09:32:17 6.4 C 35 %
3659 20-12-2019 09:42:17 6.5 C 35 %
3660 20-12-2019 09:52:17 6.5 C 34 %
3661 20-12-2019 10:02:17 6.2 C 31 %
3662 20-12-2019 10:12:17 6 C 33 %
3663 20-12-2019 10:22:17 5.7 C 35 %
3664 20-12-2019 10:32:17 5.8 C 40 %
3665 20-12-2019 10:42:17 5.9 C 42 %
3666 20-12-2019 10:52:17 6 C 42 %
3667 20-12-2019 11:02:17 6.1 C 42 %
3668 20-12-2019 11:12:17 6 C 42 %
3669 20-12-2019 11:22:17 6.3 C 42 %
3670 20-12-2019 11:32:17 6.5 C 42 %
3671 20-12-2019 11:42:17 6.7 C 41 %
3672 20-12-2019 11:52:17 6.8 C 40 %
3673 20-12-2019 12:02:18 7 C 39 %
3674 20-12-2019 12:12:18 7.3 C 39 %
3675 20-12-2019 12:22:18 7.5 C 39 %
Sensor: Nr:Datum:Temp:Feuchte:
Aussen-T/F 3676 20-12-2019 12:32:17 7.7 C 39 %
3677 20-12-2019 12:42:18 8 C 39 %
3678 20-12-2019 12:52:17 8.1 C 38 %
3679 20-12-2019 13:02:18 8.1 C 39 %
3680 20-12-2019 13:12:18 8.2 C 39 %
3681 20-12-2019 13:22:17 8.3 C 37 %
3682 20-12-2019 13:32:17 8.4 C 36 %
3683 20-12-2019 13:42:17 8.6 C 37 %
3684 20-12-2019 13:52:17 8.5 C 36 %
3685 20-12-2019 14:02:17 8.6 C 36 %
3686 20-12-2019 14:12:17 8.6 C 35 %
3687 20-12-2019 14:22:17 8.7 C 36 %
3688 20-12-2019 14:32:17 8.7 C 36 %
3689 20-12-2019 14:42:17 8.5 C 35 %
3690 20-12-2019 14:52:18 8.3 C 36 %
3691 20-12-2019 15:02:17 8.2 C 37 %
3692 20-12-2019 15:12:17 8.3 C 38 %
3693 20-12-2019 15:22:17 8.3 C 39 %
3694 20-12-2019 15:32:17 8.2 C 40 %
3695 20-12-2019 15:42:17 8.3 C 41 %
3696 20-12-2019 15:52:17 8.2 C 40 %
3697 20-12-2019 16:02:17 8.2 C 40 %
3698 20-12-2019 16:12:18 8.3 C 40 %
3699 20-12-2019 16:22:17 8.3 C 41 %
3700 20-12-2019 16:32:17 8.4 C 41 %
Sensor: Nr:Datum:Temp:Feuchte:
Aussen-T/F 3701 20-12-2019 16:42:17 8.4 C 41 %
3702 20-12-2019 16:52:18 8.6 C 41 %
3703 20-12-2019 17:02:17 9 C 41 %
3704 20-12-2019 17:12:18 9 C 40 %
3705 20-12-2019 17:22:17 9.1 C 36 %
3706 20-12-2019 17:32:17 8.7 C 38 %
3707 20-12-2019 17:42:17 8.8 C 37 %
3708 20-12-2019 17:52:18 8.7 C 38 %
3709 20-12-2019 18:02:17 8.9 C 37 %
3710 20-12-2019 18:12:17 8.9 C 36 %
3711 20-12-2019 18:22:17 8.9 C 37 %
3712 20-12-2019 18:32:17 8.9 C 37 %
3713 20-12-2019 18:42:17 9.7 C 33 %
3714 20-12-2019 18:52:18 9.5 C 31 %
3715 20-12-2019 19:02:17 9.8 C 30 %
3716 20-12-2019 19:12:17 10.1 C 28 %
3717 20-12-2019 19:22:17 9.9 C 29 %
3718 20-12-2019 19:32:17 9.8 C 29 %
3719 20-12-2019 19:42:17 10 C 27 %
3720 20-12-2019 19:52:18 9.7 C 29 %
3721 20-12-2019 20:02:18 9.6 C 28 %
3722 20-12-2019 20:12:18 9.5 C 28 %
3723 20-12-2019 20:22:17 9.5 C 27 %
3724 20-12-2019 20:32:18 9 C 28 %
3725 20-12-2019 20:42:18 9 C 27 %
Sensor: Nr:Datum:Temp:Feuchte:
Aussen-T/F 3726 20-12-2019 20:52:17 8.9 C 28 %
3727 20-12-2019 21:02:18 8.5 C 28 %
3728 20-12-2019 21:12:18 8.6 C 28 %
3729 20-12-2019 21:22:17 8.9 C 27 %
3730 20-12-2019 21:32:17 8.7 C 27 %
3731 20-12-2019 21:42:17 8.3 C 28 %
3732 20-12-2019 21:52:17 8.3 C 28 %
3733 20-12-2019 22:02:17 8.3 C 28 %
3734 20-12-2019 22:12:17 8.1 C 28 %
3735 20-12-2019 22:22:17 8.7 C 27 %
3736 20-12-2019 22:32:17 8.9 C 26 %
3737 20-12-2019 22:42:17 8.7 C 27 %
3738 20-12-2019 22:52:17 8.7 C 27 %
3739 20-12-2019 23:02:17 8.5 C 27 %
3740 20-12-2019 23:12:17 8.4 C 27 %
3741 20-12-2019 23:22:17 8.2 C 28 %
3742 20-12-2019 23:32:17 8 C 28 %
3743 20-12-2019 23:42:17 8.3 C 27 %
3744 20-12-2019 23:52:18 8.1 C 27 %
3745 21-12-2019 00:02:17 7.9 C 28 %
3746 21-12-2019 00:12:17 7.7 C 28 %
3747 21-12-2019 00:22:17 7.5 C 30 %
3748 21-12-2019 00:32:17 7.5 C 30 %
3749 21-12-2019 00:42:17 7.2 C 30 %
3750 21-12-2019 00:52:18 7 C 30 %
Sensor: Nr:Datum:Temp:Feuchte:
Aussen-T/F 3751 21-12-2019 01:02:17 6.9 C 32 %
3752 21-12-2019 01:12:17 7.3 C 31 %
3753 21-12-2019 01:22:17 7.4 C 31 %
3754 21-12-2019 01:32:17 7.3 C 32 %
3755 21-12-2019 01:42:17 7.5 C 31 %
3756 21-12-2019 01:52:17 7.5 C 32 %
3757 21-12-2019 02:02:17 7.9 C 30 %
3758 21-12-2019 02:12:17 8 C 29 %
3759 21-12-2019 02:22:17 8.2 C 28 %
3760 21-12-2019 02:32:18 7.8 C 30 %
3761 21-12-2019 02:42:18 7.8 C 30 %
3762 21-12-2019 02:52:17 7.8 C 30 %
3763 21-12-2019 03:02:17 7.5 C 30 %
3764 21-12-2019 03:12:17 7.5 C 31 %
3765 21-12-2019 03:22:17 7.4 C 31 %
3766 21-12-2019 03:32:18 7.3 C 31 %
3767 21-12-2019 03:42:18 7.1 C 31 %
3768 21-12-2019 03:52:17 7.1 C 32 %
3769 21-12-2019 04:02:17 6.9 C 33 %
3770 21-12-2019 04:12:17 6.7 C 36 %
3771 21-12-2019 04:22:17 6.4 C 37 %
3772 21-12-2019 04:32:18 6 C 38 %
3773 21-12-2019 04:42:18 5.9 C 38 %
3774 21-12-2019 04:52:17 5.7 C 40 %
3775 21-12-2019 05:02:17 6 C 40 %
Sensor: Nr:Datum:Temp:Feuchte:
Aussen-T/F 3776 21-12-2019 05:12:17 5.6 C 39 %
3777 21-12-2019 05:22:17 5.4 C 38 %
3778 21-12-2019 05:32:18 5.4 C 38 %
3779 21-12-2019 05:42:18 5.1 C 38 %
3780 21-12-2019 05:52:17 5.3 C 40 %
3781 21-12-2019 06:02:17 4.9 C 41 %
3782 21-12-2019 06:12:17 4.8 C 41 %
3783 21-12-2019 06:22:18 4.3 C 40 %
3784 21-12-2019 06:32:17 4.3 C 42 %
3785 21-12-2019 06:42:17 5 C 40 %
3786 21-12-2019 06:52:18 3.8 C 41 %
3787 21-12-2019 07:02:17 3.8 C 43 %
3788 21-12-2019 07:12:18 3.5 C 42 %
3789 21-12-2019 07:22:17 3.4 C 43 %
3790 21-12-2019 07:32:17 3.3 C 43 %
3791 21-12-2019 07:42:17 3 C 42 %
3792 21-12-2019 07:52:17 3 C 43 %
3793 21-12-2019 08:02:17 3.1 C 44 %
3794 21-12-2019 08:12:17 3.6 C 44 %
3795 21-12-2019 08:22:17 3.7 C 44 %
3796 21-12-2019 08:32:17 3.9 C 43 %
3797 21-12-2019 08:42:17 4.6 C 43 %
3798 21-12-2019 08:52:17 4.9 C 42 %
3799 21-12-2019 09:02:17 5 C 39 %
3800 21-12-2019 09:12:17 4.5 C 38 %
Sensor: Nr:Datum:Temp:Feuchte:
Aussen-T/F 3801 21-12-2019 09:22:17 4.4 C 38 %
3802 21-12-2019 09:32:17 4.4 C 39 %
3803 21-12-2019 09:42:17 4.6 C 40 %
3804 21-12-2019 09:52:17 4.6 C 38 %
3805 21-12-2019 10:02:17 4.8 C 38 %
3806 21-12-2019 10:12:17 4.8 C 37 %
3807 21-12-2019 10:22:17 5.1 C 37 %
3808 21-12-2019 10:32:17 5.2 C 36 %
3809 21-12-2019 10:42:17 5.1 C 37 %
3810 21-12-2019 10:52:17 5.2 C 37 %
3811 21-12-2019 11:02:17 5.3 C 37 %
3812 21-12-2019 11:12:17 5.3 C 37 %
3813 21-12-2019 11:22:17 5.4 C 37 %
3814 21-12-2019 11:32:17 5.8 C 37 %
3815 21-12-2019 11:42:17 5.9 C 37 %
3816 21-12-2019 11:52:17 5.8 C 37 %
3817 21-12-2019 12:02:17 5.8 C 36 %
3818 21-12-2019 12:12:17 6.2 C 36 %
3819 21-12-2019 12:22:17 6.2 C 35 %
3820 21-12-2019 12:32:17 7 C 32 %
3821 21-12-2019 12:42:17 6.8 C 33 %
3822 21-12-2019 12:52:17 8 C 30 %
3823 21-12-2019 13:02:17 7.8 C 30 %
3824 21-12-2019 13:12:17 7.1 C 30 %
3825 21-12-2019 13:22:17 6.9 C 31 %
Sensor: Nr:Datum:Temp:Feuchte:
Aussen-T/F 3826 21-12-2019 13:32:17 7.2 C 30 %
3827 21-12-2019 13:42:17 8 C 28 %
3828 21-12-2019 13:52:18 7.7 C 28 %
3829 21-12-2019 14:02:17 8.3 C 27 %
3830 21-12-2019 14:12:17 8.8 C 26 %
3831 21-12-2019 14:22:17 8.2 C 27 %
3832 21-12-2019 14:32:18 8.2 C 27 %
3833 21-12-2019 14:42:18 8.5 C 27 %
3834 21-12-2019 14:52:17 8.8 C 26 %
3835 21-12-2019 15:02:18 9 C 25 %
3836 21-12-2019 15:12:18 8.7 C 26 %
3837 21-12-2019 15:22:18 8.8 C 25 %
3838 21-12-2019 15:32:17 8.7 C 25 %
3839 21-12-2019 15:42:17 8 C 26 %
3840 21-12-2019 15:52:17 7.5 C 28 %
3841 21-12-2019 16:02:17 7.7 C 27 %
3842 21-12-2019 16:12:17 7.6 C 29 %
3843 21-12-2019 16:22:17 7.4 C 30 %
3844 21-12-2019 16:32:17 7.4 C 30 %
3845 21-12-2019 16:42:17 7.7 C 28 %
3846 21-12-2019 16:52:17 7.9 C 27 %
3847 21-12-2019 17:02:17 7.6 C 29 %
3848 21-12-2019 17:12:17 7.3 C 30 %
3849 21-12-2019 17:22:17 7.2 C 30 %
3850 21-12-2019 17:32:17 7.3 C 30 %
Sensor: Nr:Datum:Temp:Feuchte:
Aussen-T/F 3851 21-12-2019 17:42:17 7.3 C 29 %
3852 21-12-2019 17:52:17 7.2 C 29 %
3853 21-12-2019 18:02:17 7.6 C 27 %
3854 21-12-2019 18:12:17 7.6 C 27 %
3855 21-12-2019 18:22:17 7.6 C 26 %
3856 21-12-2019 18:32:18 7.9 C 25 %
3857 21-12-2019 18:42:18 7.7 C 26 %
3858 21-12-2019 18:52:17 7.5 C 26 %
3859 21-12-2019 19:02:17 7.3 C 27 %
3860 21-12-2019 19:12:17 7 C 27 %
3861 21-12-2019 19:22:17 7 C 27 %
3862 21-12-2019 19:32:17 6.9 C 30 %
3863 21-12-2019 19:42:17 6.8 C 30 %
3864 21-12-2019 19:52:17 7 C 27 %
3865 21-12-2019 20:02:17 7.1 C 26 %
3866 21-12-2019 20:12:17 7.1 C 26 %
3867 21-12-2019 20:22:17 7.1 C 26 %
3868 21-12-2019 20:32:17 6.9 C 28 %
3869 21-12-2019 20:42:17 7 C 27 %
3870 21-12-2019 20:52:17 6.8 C 27 %
3871 21-12-2019 21:02:18 6.4 C 29 %
3872 21-12-2019 21:12:18 6.1 C 30 %
3873 21-12-2019 21:22:17 6.1 C 31 %
3874 21-12-2019 21:32:17 6.3 C 31 %
3875 21-12-2019 21:42:17 5.9 C 31 %
Sensor: Nr:Datum:Temp:Feuchte:
Aussen-T/F 3876 21-12-2019 21:52:18 5.1 C 34 %
3877 21-12-2019 22:02:18 4.9 C 36 %
3878 21-12-2019 22:12:18 5.2 C 34 %
3879 21-12-2019 22:22:17 5.7 C 30 %
3880 21-12-2019 22:32:17 6.1 C 27 %
3881 21-12-2019 22:42:17 6.1 C 27 %
3882 21-12-2019 22:52:17 6 C 27 %
3883 21-12-2019 23:02:17 5.8 C 27 %
3884 21-12-2019 23:12:17 5.8 C 27 %
3885 21-12-2019 23:22:17 6.3 C 26 %
3886 21-12-2019 23:32:18 6.5 C 25 %
3887 21-12-2019 23:42:18 6.7 C 25 %
3888 21-12-2019 23:52:17 6.3 C 26 %
3889 22-12-2019 00:02:17 6.8 C 26 %
3890 22-12-2019 00:12:17 6.9 C 26 %
3891 22-12-2019 00:22:17 6.8 C 26 %
3892 22-12-2019 00:32:17 6.8 C 26 %
3893 22-12-2019 00:42:17 6.7 C 27 %
3894 22-12-2019 00:52:17 6.3 C 30 %
3895 22-12-2019 01:02:17 6.2 C 30 %
3896 22-12-2019 01:12:18 5.8 C 35 %
3897 22-12-2019 01:22:17 5.8 C 36 %
3898 22-12-2019 01:32:17 5.8 C 39 %
3899 22-12-2019 01:42:17 5.7 C 40 %
3900 22-12-2019 01:52:17 5.7 C 40 %
Sensor: Nr:Datum:Temp:Feuchte:
Aussen-T/F 3901 22-12-2019 02:02:17 5.7 C 38 %
3902 22-12-2019 02:12:18 5.7 C 38 %
3903 22-12-2019 02:22:17 5.8 C 38 %
3904 22-12-2019 02:32:17 5.9 C 37 %
3905 22-12-2019 02:42:17 5.9 C 36 %
3906 22-12-2019 02:52:18 6 C 35 %
3907 22-12-2019 03:02:17 6.1 C 35 %
3908 22-12-2019 03:12:17 6.2 C 34 %
3909 22-12-2019 03:22:17 6.2 C 35 %
3910 22-12-2019 03:32:17 6.2 C 34 %
3911 22-12-2019 03:42:17 6.1 C 35 %
3912 22-12-2019 03:52:17 6.2 C 35 %
3913 22-12-2019 04:02:18 6.2 C 35 %
3914 22-12-2019 04:12:18 6 C 35 %
3915 22-12-2019 04:22:17 6.2 C 34 %
3916 22-12-2019 04:32:17 6.2 C 34 %
3917 22-12-2019 04:42:17 6.3 C 33 %
3918 22-12-2019 04:52:17 6.3 C 33 %
3919 22-12-2019 05:02:17 6.2 C 34 %
3920 22-12-2019 05:12:17 5.8 C 34 %
3921 22-12-2019 05:22:17 5.4 C 36 %
3922 22-12-2019 05:32:17 5.7 C 40 %
3923 22-12-2019 05:42:17 6.1 C 38 %
3924 22-12-2019 05:52:17 5.5 C 35 %
3925 22-12-2019 06:02:17 5.1 C 39 %
Sensor: Nr:Datum:Temp:Feuchte:
Aussen-T/F 3926 22-12-2019 06:12:17 5.3 C 41 %
3927 22-12-2019 06:22:17 4.9 C 41 %
3928 22-12-2019 06:32:17 5.4 C 42 %
3929 22-12-2019 06:42:17 5.9 C 41 %
3930 22-12-2019 06:52:17 6.2 C 39 %
3931 22-12-2019 07:02:17 6.2 C 38 %
3932 22-12-2019 07:12:17 6 C 38 %
3933 22-12-2019 07:22:17 5.7 C 38 %
3934 22-12-2019 07:32:17 5.4 C 39 %
3935 22-12-2019 07:42:17 6 C 42 %
3936 22-12-2019 07:52:17 6.1 C 41 %
3937 22-12-2019 08:02:18 6.3 C 41 %
3938 22-12-2019 08:12:18 6.2 C 40 %
3939 22-12-2019 08:22:17 5.9 C 40 %
3940 22-12-2019 08:32:17 5.8 C 41 %
3941 22-12-2019 08:42:17 6.3 C 41 %
3942 22-12-2019 08:52:18 6.2 C 39 %
3943 22-12-2019 09:02:17 6 C 39 %
3944 22-12-2019 09:12:17 6.2 C 40 %
3945 22-12-2019 09:22:17 6.4 C 39 %
3946 22-12-2019 09:32:17 6.3 C 39 %
3947 22-12-2019 09:42:17 6.8 C 39 %
3948 22-12-2019 09:52:17 7 C 37 %
3949 22-12-2019 10:02:17 7.1 C 37 %
3950 22-12-2019 10:12:17 7.9 C 33 %
Sensor: Nr:Datum:Temp:Feuchte:
Aussen-T/F 3951 22-12-2019 10:22:17 8.1 C 33 %
3952 22-12-2019 10:32:17 8.8 C 30 %
3953 22-12-2019 10:42:17 9 C 29 %
3954 22-12-2019 10:52:17 9.3 C 28 %
3955 22-12-2019 11:02:17 9.5 C 28 %
3956 22-12-2019 11:12:17 10 C 26 %
3957 22-12-2019 11:22:17 10 C 26 %
3958 22-12-2019 11:32:18 10.4 C 26 %
3959 22-12-2019 11:42:18 10.2 C 26 %
3960 22-12-2019 11:52:17 10.4 C 26 %
3961 22-12-2019 12:02:17 10.5 C 25 %
3962 22-12-2019 12:12:17 10.5 C 26 %
3963 22-12-2019 12:22:17 10.5 C 25 %
3964 22-12-2019 12:32:17 10.7 C 26 %
3965 22-12-2019 12:42:17 10.8 C 26 %
3966 22-12-2019 12:52:17 11.2 C 25 %
3967 22-12-2019 13:02:17 11.1 C 25 %
3968 22-12-2019 13:12:17 10.8 C 25 %
3969 22-12-2019 13:22:17 10.7 C 25 %
3970 22-12-2019 13:32:17 10.7 C 25 %
3971 22-12-2019 13:42:17 10.7 C 25 %
3972 22-12-2019 13:52:17 10.8 C 25 %
3973 22-12-2019 14:02:17 11.1 C 23 %
3974 22-12-2019 14:12:17 11 C 23 %
3975 22-12-2019 14:22:17 10.8 C 23 %
Sensor: Nr:Datum:Temp:Feuchte:
Aussen-T/F 3976 22-12-2019 14:32:17 10.9 C 23 %
3977 22-12-2019 14:42:17 10.8 C 23 %
3978 22-12-2019 14:52:17 10.7 C 25 %
3979 22-12-2019 15:02:17 10.6 C 25 %
3980 22-12-2019 15:12:17 10.3 C 25 %
3981 22-12-2019 15:22:17 10.1 C 25 %
3982 22-12-2019 15:32:17 9.9 C 26 %
3983 22-12-2019 15:42:17 9.7 C 26 %
3984 22-12-2019 15:52:18 9.6 C 25 %
3985 22-12-2019 16:02:18 9.6 C 25 %
3986 22-12-2019 16:12:18 9.3 C 25 %
3987 22-12-2019 16:22:17 8.9 C 26 %
3988 22-12-2019 16:32:17 8.3 C 26 %
3989 22-12-2019 16:42:17 8.4 C 27 %
3990 22-12-2019 16:52:17 7.9 C 28 %
3991 22-12-2019 17:02:18 7.5 C 30 %
3992 22-12-2019 17:12:18 7.5 C 30 %
3993 22-12-2019 17:22:17 7.4 C 30 %
3994 22-12-2019 17:32:17 7.5 C 29 %
3995 22-12-2019 17:42:17 7.5 C 28 %
3996 22-12-2019 17:52:17 7.2 C 28 %
3997 22-12-2019 18:02:17 7.2 C 30 %
3998 22-12-2019 18:12:17 7.1 C 30 %
3999 22-12-2019 18:22:17 7.3 C 30 %
4000 22-12-2019 18:32:17 7.4 C 29 %
Sensor: Nr:Datum:Temp:Feuchte:
Aussen-T/F 4001 22-12-2019 18:42:17 7.5 C 29 %
4002 22-12-2019 18:52:17 7.2 C 29 %
4003 22-12-2019 19:02:17 7.1 C 30 %
4004 22-12-2019 19:12:17 7 C 31 %
4005 22-12-2019 19:22:17 7 C 32 %
4006 22-12-2019 19:32:17 7.1 C 31 %
4007 22-12-2019 19:42:17 7.5 C 30 %
4008 22-12-2019 19:52:17 8 C 27 %
4009 22-12-2019 20:02:17 7.9 C 27 %
4010 22-12-2019 20:12:17 8.1 C 26 %
4011 22-12-2019 20:22:17 8.3 C 25 %
4012 22-12-2019 20:32:17 8.2 C 25 %
4013 22-12-2019 20:42:17 8 C 25 %
4014 22-12-2019 20:52:17 8 C 25 %
4015 22-12-2019 21:02:17 8.1 C 25 %
4016 22-12-2019 21:12:17 8.1 C 25 %
4017 22-12-2019 21:22:17 7.8 C 25 %
4018 22-12-2019 21:32:17 8.1 C 25 %
4019 22-12-2019 21:42:17 7.8 C 26 %
4020 22-12-2019 21:52:17 7.7 C 26 %
4021 22-12-2019 22:02:17 7.9 C 26 %
4022 22-12-2019 22:12:17 7.6 C 26 %
4023 22-12-2019 22:22:17 7.5 C 26 %
4024 22-12-2019 22:32:17 7.1 C 27 %
4025 22-12-2019 22:42:17 6.9 C 28 %
Sensor: Nr:Datum:Temp:Feuchte:
Aussen-T/F 4026 22-12-2019 22:52:17 6.7 C 29 %
4027 22-12-2019 23:02:17 6.2 C 31 %
4028 22-12-2019 23:12:17 6.4 C 31 %
4029 22-12-2019 23:22:17 6.6 C 31 %
4030 22-12-2019 23:32:17 6.6 C 31 %
4031 22-12-2019 23:42:17 6.7 C 31 %
4032 22-12-2019 23:52:17 6.7 C 31 %
4033 23-12-2019 00:02:17 6.6 C 32 %
4034 23-12-2019 00:12:17 6.5 C 31 %
4035 23-12-2019 00:22:17 6.4 C 32 %
4036 23-12-2019 00:32:17 6.6 C 31 %
4037 23-12-2019 00:42:17 7 C 30 %
4038 23-12-2019 00:52:17 6.9 C 30 %
4039 23-12-2019 01:02:17 6.8 C 30 %
4040 23-12-2019 01:12:17 7.1 C 28 %
4041 23-12-2019 01:22:17 7 C 28 %
4042 23-12-2019 01:32:17 7.1 C 28 %
4043 23-12-2019 01:42:17 7.4 C 27 %
4044 23-12-2019 01:52:17 7.4 C 27 %
4045 23-12-2019 02:02:17 6.8 C 29 %
4046 23-12-2019 02:12:17 6.5 C 30 %
4047 23-12-2019 02:22:17 6.8 C 29 %
4048 23-12-2019 02:32:17 6.9 C 29 %
4049 23-12-2019 02:42:17 7.3 C 28 %
4050 23-12-2019 02:52:17 6.9 C 30 %
Sensor: Nr:Datum:Temp:Feuchte:
Aussen-T/F 4051 23-12-2019 03:02:17 6.8 C 31 %
4052 23-12-2019 03:12:17 6.4 C 31 %
4053 23-12-2019 03:22:17 6.5 C 30 %
4054 23-12-2019 03:32:17 7 C 28 %
4055 23-12-2019 03:42:17 6.6 C 29 %
4056 23-12-2019 03:52:17 7 C 28 %
4057 23-12-2019 04:02:17 6.9 C 30 %
4058 23-12-2019 04:12:17 7.1 C 28 %
4059 23-12-2019 04:22:17 6.8 C 30 %
4060 23-12-2019 04:32:17 6.9 C 31 %
4061 23-12-2019 04:42:17 6.5 C 31 %
4062 23-12-2019 04:52:17 6.1 C 31 %
4063 23-12-2019 05:02:17 6.4 C 32 %
4064 23-12-2019 05:12:17 7 C 30 %
4065 23-12-2019 05:22:17 7.1 C 30 %
4066 23-12-2019 05:32:17 7 C 30 %
4067 23-12-2019 05:42:17 6.8 C 31 %
4068 23-12-2019 05:52:17 6.3 C 32 %
4069 23-12-2019 06:02:18 6.3 C 34 %
4070 23-12-2019 06:12:18 6.6 C 33 %
4071 23-12-2019 06:22:17 6.9 C 31 %
4072 23-12-2019 06:32:18 7.1 C 30 %
4073 23-12-2019 06:42:18 6.9 C 31 %
4074 23-12-2019 06:52:17 6.9 C 31 %
4075 23-12-2019 07:02:17 6.8 C 32 %
Sensor: Nr:Datum:Temp:Feuchte:
Aussen-T/F 4076 23-12-2019 07:12:17 6.8 C 34 %
4077 23-12-2019 07:22:17 6.8 C 32 %
4078 23-12-2019 07:32:17 7.1 C 30 %
4079 23-12-2019 07:42:17 7.4 C 29 %
4080 23-12-2019 07:52:17 7.1 C 30 %
4081 23-12-2019 08:02:17 7.3 C 30 %
4082 23-12-2019 08:12:17 7.4 C 28 %
4083 23-12-2019 08:22:17 7.5 C 28 %
4084 23-12-2019 08:32:18 7.5 C 28 %
4085 23-12-2019 08:42:18 7.6 C 28 %
4086 23-12-2019 08:52:17 7.6 C 27 %
4087 23-12-2019 09:02:17 7.6 C 27 %
4088 23-12-2019 09:12:18 7.7 C 27 %
4089 23-12-2019 09:22:17 7.8 C 27 %
4090 23-12-2019 09:32:18 7.8 C 27 %
4091 23-12-2019 09:42:18 7.8 C 27 %
4092 23-12-2019 09:52:18 7.9 C 26 %
4093 23-12-2019 10:02:17 7.3 C 30 %
4094 23-12-2019 10:12:18 7 C 33 %
4095 23-12-2019 10:22:17 7 C 35 %
4096 23-12-2019 10:32:18 6.8 C 35 %
4097 23-12-2019 10:42:18 6.9 C 34 %
4098 23-12-2019 10:52:17 7.4 C 30 %
4099 23-12-2019 11:02:18 7.8 C 28 %
4100 23-12-2019 11:12:18 8.1 C 28 %
Sensor: Nr:Datum:Temp:Feuchte:
Aussen-T/F 4101 23-12-2019 11:22:17 8.4 C 26 %
4102 23-12-2019 11:32:18 8.3 C 26 %
4103 23-12-2019 11:42:18 8.6 C 26 %
4104 23-12-2019 11:52:17 8.9 C 25 %
4105 23-12-2019 12:02:18 9.1 C 25 %
4106 23-12-2019 12:12:18 9.1 C 25 %
4107 23-12-2019 12:22:17 8.9 C 25 %
4108 23-12-2019 12:32:17 9 C 25 %
4109 23-12-2019 12:42:17 9.3 C 25 %
4110 23-12-2019 12:52:17 8.4 C 26 %
4111 23-12-2019 13:02:17 8.4 C 26 %
4112 23-12-2019 13:12:17 8.3 C 27 %
4113 23-12-2019 13:22:17 8.2 C 27 %
4114 23-12-2019 13:32:18 8.1 C 29 %
4115 23-12-2019 13:42:18 8.2 C 28 %
4116 23-12-2019 13:52:17 8.5 C 28 %
4117 23-12-2019 14:02:17 8.9 C 27 %
4118 23-12-2019 14:12:17 8.9 C 26 %
4119 23-12-2019 14:22:18 9 C 25 %
4120 23-12-2019 14:32:17 9.1 C 25 %
4121 23-12-2019 14:42:17 9.1 C 25 %
4122 23-12-2019 14:52:17 8.9 C 25 %
4123 23-12-2019 15:02:18 8.7 C 26 %
4124 23-12-2019 15:12:18 9.1 C 25 %
4125 23-12-2019 15:22:17 9.1 C 25 %
Sensor: Nr:Datum:Temp:Feuchte:
Aussen-T/F 4126 23-12-2019 15:32:17 9 C 25 %
4127 23-12-2019 15:42:17 9 C 25 %
4128 23-12-2019 15:52:17 8.8 C 25 %
4129 23-12-2019 16:02:17 8.8 C 25 %
4130 23-12-2019 16:12:17 8.6 C 26 %
4131 23-12-2019 16:22:18 8.5 C 25 %
4132 23-12-2019 16:32:17 8.4 C 25 %
4133 23-12-2019 16:42:17 8.5 C 25 %
4134 23-12-2019 16:52:18 8.5 C 25 %
4135 23-12-2019 17:02:17 8.2 C 25 %
4136 23-12-2019 17:12:17 8.4 C 25 %
4137 23-12-2019 17:22:17 8 C 25 %
4138 23-12-2019 17:32:17 7.9 C 25 %
4139 23-12-2019 17:42:18 7.8 C 25 %
4140 23-12-2019 17:52:17 7.8 C 25 %
4141 23-12-2019 18:02:17 7.9 C 25 %
4142 23-12-2019 18:12:17 8 C 23 %
4143 23-12-2019 18:22:17 7.9 C 23 %
4144 23-12-2019 18:32:17 7.9 C 25 %
4145 23-12-2019 18:42:17 7.6 C 25 %
4146 23-12-2019 18:52:17 7.5 C 26 %
4147 23-12-2019 19:02:17 7.3 C 26 %
4148 23-12-2019 19:12:17 6.7 C 29 %
4149 23-12-2019 19:22:17 6.4 C 30 %
4150 23-12-2019 19:32:17 7.4 C 26 %
Sensor: Nr:Datum:Temp:Feuchte:
Aussen-T/F 4151 23-12-2019 19:42:17 7 C 26 %
4152 23-12-2019 19:52:17 7 C 27 %
4153 23-12-2019 20:02:17 7 C 28 %
4154 23-12-2019 20:12:17 6.5 C 30 %
4155 23-12-2019 20:22:17 6.8 C 30 %
4156 23-12-2019 20:32:18 6.8 C 30 %
4157 23-12-2019 20:42:18 6.9 C 30 %
4158 23-12-2019 20:52:17 6.9 C 30 %
4159 23-12-2019 21:02:18 6.7 C 30 %
4160 23-12-2019 21:12:18 7.1 C 28 %
4161 23-12-2019 21:22:17 7 C 28 %
4162 23-12-2019 21:32:17 6.7 C 31 %
4163 23-12-2019 21:42:17 6.5 C 31 %
4164 23-12-2019 21:52:17 6.5 C 32 %
4165 23-12-2019 22:02:18 6.4 C 31 %
4166 23-12-2019 22:12:18 5.8 C 32 %
4167 23-12-2019 22:22:17 5.4 C 37 %
4168 23-12-2019 22:32:17 5.7 C 33 %
4169 23-12-2019 22:42:17 5.3 C 34 %
4170 23-12-2019 22:52:17 5.5 C 34 %
4171 23-12-2019 23:02:17 5.4 C 33 %
4172 23-12-2019 23:12:17 5.5 C 32 %
4173 23-12-2019 23:22:18 5.4 C 30 %
4174 23-12-2019 23:32:17 5.8 C 30 %
4175 23-12-2019 23:42:17 4.8 C 33 %
Sensor: Nr:Datum:Temp:Feuchte:
Aussen-T/F 4176 23-12-2019 23:52:17 4.8 C 36 %
4177 24-12-2019 00:02:17 5.6 C 35 %
4178 24-12-2019 00:12:17 5.8 C 32 %
4179 24-12-2019 00:22:17 5.7 C 32 %
4180 24-12-2019 00:32:18 6 C 32 %
4181 24-12-2019 00:42:18 6.1 C 31 %
4182 24-12-2019 00:52:17 6.3 C 31 %
4183 24-12-2019 01:02:17 5.6 C 32 %
4184 24-12-2019 01:12:17 5.9 C 32 %
4185 24-12-2019 01:22:17 6.1 C 30 %
4186 24-12-2019 01:32:17 6.3 C 30 %
4187 24-12-2019 01:42:17 5.9 C 31 %
4188 24-12-2019 01:52:17 5.7 C 33 %
4189 24-12-2019 02:02:17 5.7 C 35 %
4190 24-12-2019 02:12:17 5.8 C 35 %
4191 24-12-2019 02:22:17 5.6 C 35 %
4192 24-12-2019 02:32:18 5.5 C 36 %
4193 24-12-2019 02:42:18 5.5 C 36 %
4194 24-12-2019 02:52:17 6.6 C 30 %
4195 24-12-2019 03:02:18 6.7 C 29 %
4196 24-12-2019 03:12:18 6.3 C 30 %
4197 24-12-2019 03:22:17 5.7 C 31 %
4198 24-12-2019 03:32:17 5.5 C 31 %
4199 24-12-2019 03:42:17 5.7 C 31 %
4200 24-12-2019 03:52:17 5 C 32 %
Sensor: Nr:Datum:Temp:Feuchte:
Aussen-T/F 4201 24-12-2019 04:02:17 5 C 38 %
4202 24-12-2019 04:12:17 5.2 C 37 %
4203 24-12-2019 04:22:17 5.2 C 36 %
4204 24-12-2019 04:32:17 4.8 C 37 %
4205 24-12-2019 04:42:17 4.8 C 39 %
4206 24-12-2019 04:52:17 5.3 C 38 %
4207 24-12-2019 05:02:18 5.4 C 35 %
4208 24-12-2019 05:12:18 5.2 C 35 %
4209 24-12-2019 05:22:17 4.7 C 37 %
4210 24-12-2019 05:32:18 5 C 37 %
4211 24-12-2019 05:42:18 4.6 C 36 %
4212 24-12-2019 05:52:17 4.9 C 37 %
4213 24-12-2019 06:02:18 4.3 C 36 %
4214 24-12-2019 06:12:18 4.6 C 39 %
4215 24-12-2019 06:22:17 4.6 C 38 %
4216 24-12-2019 06:32:17 4.6 C 39 %
4217 24-12-2019 06:42:17 4.5 C 38 %
4218 24-12-2019 06:52:17 4.5 C 39 %
4219 24-12-2019 07:02:17 4.8 C 37 %
4220 24-12-2019 07:12:17 5 C 36 %
4221 24-12-2019 07:22:17 5.4 C 34 %
4222 24-12-2019 07:32:17 5.6 C 33 %
4223 24-12-2019 07:42:17 5.6 C 32 %
4224 24-12-2019 07:52:17 5.8 C 32 %
4225 24-12-2019 08:02:17 5.8 C 31 %
Sensor: Nr:Datum:Temp:Feuchte:
Aussen-T/F 4226 24-12-2019 08:12:17 6 C 30 %
4227 24-12-2019 08:22:17 6.2 C 29 %
4228 24-12-2019 08:32:17 6.2 C 30 %
4229 24-12-2019 08:42:17 6.3 C 30 %
4230 24-12-2019 08:52:18 6.4 C 30 %
4231 24-12-2019 09:02:17 6.5 C 29 %
4232 24-12-2019 09:12:17 6.8 C 29 %
4233 24-12-2019 09:22:17 6.8 C 28 %
4234 24-12-2019 09:32:17 6.8 C 29 %
4235 24-12-2019 09:42:17 6.8 C 28 %
4236 24-12-2019 09:52:17 6.5 C 30 %
4237 24-12-2019 10:02:17 6.4 C 30 %
4238 24-12-2019 10:12:17 6.2 C 31 %
4239 24-12-2019 10:22:17 6.2 C 33 %
4240 24-12-2019 10:32:17 6.3 C 37 %
4241 24-12-2019 10:42:17 6.8 C 37 %
4242 24-12-2019 10:52:17 6.7 C 33 %
4243 24-12-2019 11:02:17 6.8 C 35 %
4244 24-12-2019 11:12:17 6.9 C 34 %
4245 24-12-2019 11:22:17 7.5 C 32 %
4246 24-12-2019 11:32:17 8 C 30 %
4247 24-12-2019 11:42:17 8.2 C 29 %
4248 24-12-2019 11:52:18 8 C 29 %
4249 24-12-2019 12:02:17 7.8 C 30 %
4250 24-12-2019 12:12:17 7.6 C 30 %
Sensor: Nr:Datum:Temp:Feuchte:
Aussen-T/F 4251 24-12-2019 12:22:17 8 C 28 %
4252 24-12-2019 12:32:17 8.2 C 27 %
4253 24-12-2019 12:42:17 8.4 C 27 %
4254 24-12-2019 12:52:18 8.9 C 27 %
4255 24-12-2019 13:02:17 9.2 C 25 %
4256 24-12-2019 13:12:17 9.3 C 25 %
4257 24-12-2019 13:22:17 9.3 C 25 %
4258 24-12-2019 13:32:17 9.2 C 26 %
4259 24-12-2019 13:42:17 9.3 C 26 %
4260 24-12-2019 13:52:17 9.3 C 26 %
4261 24-12-2019 14:02:18 9.4 C 25 %
4262 24-12-2019 14:12:18 9.5 C 25 %
4263 24-12-2019 14:22:17 9.6 C 25 %
4264 24-12-2019 14:32:18 9.7 C 25 %
4265 24-12-2019 14:42:18 9.3 C 26 %
4266 24-12-2019 14:52:17 9.2 C 27 %
4267 24-12-2019 15:02:18 9.1 C 27 %
4268 24-12-2019 15:12:18 9.5 C 26 %
4269 24-12-2019 15:22:17 9.8 C 25 %
4270 24-12-2019 15:32:17 10 C 22 %
4271 24-12-2019 15:42:17 10.1 C 20 %
4272 24-12-2019 15:52:17 10.5 C 20 %
4273 24-12-2019 16:02:17 10.1 C 20 %
4274 24-12-2019 16:12:17 10 C 20 %
4275 24-12-2019 16:22:17 10.2 C 20 %
Sensor: Nr:Datum:Temp:Feuchte:
Aussen-T/F 4276 24-12-2019 16:32:17 9.8 C 20 %
4277 24-12-2019 16:42:17 9.7 C 21 %
4278 24-12-2019 16:52:17 10.1 C 20 %
4279 24-12-2019 17:02:17 9.8 C 20 %
4280 24-12-2019 17:12:17 9.4 C 20 %
4281 24-12-2019 17:22:18 9.6 C 20 %
4282 24-12-2019 17:32:17 8.8 C 20 %
4283 24-12-2019 17:42:17 9.1 C 20 %
4284 24-12-2019 17:52:17 9.3 C 20 %
4285 24-12-2019 18:02:17 9 C 20 %
4286 24-12-2019 18:12:17 8.5 C 26 %
4287 24-12-2019 18:22:17 8.9 C 25 %
4288 24-12-2019 18:32:17 8.2 C 28 %
4289 24-12-2019 18:42:17 7.8 C 31 %
4290 24-12-2019 18:52:17 7.5 C 35 %
4291 24-12-2019 19:02:17 7.6 C 31 %
4292 24-12-2019 19:12:17 7.3 C 31 %
4293 24-12-2019 19:22:17 6.7 C 35 %
4294 24-12-2019 19:32:17 6.5 C 40 %
4295 24-12-2019 19:42:17 6.5 C 36 %
4296 24-12-2019 19:52:17 6.2 C 36 %
4297 24-12-2019 20:02:17 6.7 C 35 %
4298 24-12-2019 20:12:17 7.3 C 30 %
4299 24-12-2019 20:22:17 7.2 C 32 %
4300 24-12-2019 20:32:18 7.1 C 30 %
Sensor: Nr:Datum:Temp:Feuchte:
Aussen-T/F 4301 24-12-2019 20:42:18 7.3 C 31 %
4302 24-12-2019 20:52:17 7.3 C 30 %
4303 24-12-2019 21:02:17 7.1 C 31 %
4304 24-12-2019 21:12:17 7.7 C 30 %
4305 24-12-2019 21:22:17 7.4 C 30 %
4306 24-12-2019 21:32:17 7.6 C 30 %
4307 24-12-2019 21:42:17 7.9 C 29 %
4308 24-12-2019 21:52:17 8.1 C 28 %
4309 24-12-2019 22:02:17 8.6 C 26 %
4310 24-12-2019 22:12:17 8.5 C 26 %
4311 24-12-2019 22:22:17 8.3 C 26 %
4312 24-12-2019 22:32:17 8.4 C 26 %
4313 24-12-2019 22:42:17 8.2 C 27 %
4314 24-12-2019 22:52:17 8 C 28 %
4315 24-12-2019 23:02:17 8.4 C 27 %
4316 24-12-2019 23:12:17 8.4 C 27 %
4317 24-12-2019 23:22:17 8.4 C 27 %
4318 24-12-2019 23:32:17 8.5 C 27 %
4319 24-12-2019 23:42:17 8.5 C 27 %
4320 24-12-2019 23:52:17 8.4 C 27 %
Sensor: Nr:Datum:Temp:Feuchte:
G-T/H 1 25-11-2019 00:00:18 8.9 C 73 %
2 25-11-2019 00:10:18 8.9 C 73 %
3 25-11-2019 00:20:17 8.9 C 73 %
4 25-11-2019 00:30:17 8.9 C 73 %
5 25-11-2019 00:40:17 8.9 C 73 %
6 25-11-2019 00:50:18 8.9 C 73 %
7 25-11-2019 01:00:18 8.9 C 73 %
8 25-11-2019 01:10:18 8.9 C 73 %
9 25-11-2019 01:20:17 8.9 C 73 %
10 25-11-2019 01:30:17 8.9 C 73 %
11 25-11-2019 01:40:17 8.9 C 73 %
12 25-11-2019 01:50:17 8.9 C 73 %
13 25-11-2019 02:00:17 8.9 C 73 %
14 25-11-2019 02:10:17 8.9 C 73 %
15 25-11-2019 02:20:17 8.9 C 73 %
16 25-11-2019 02:30:17 8.8 C 73 %
17 25-11-2019 02:40:17 8.9 C 73 %
18 25-11-2019 02:50:17 8.8 C 73 %
19 25-11-2019 03:00:17 8.8 C 73 %
20 25-11-2019 03:10:17 8.8 C 73 %
21 25-11-2019 03:20:17 8.8 C 73 %
22 25-11-2019 03:30:17 8.8 C 73 %
23 25-11-2019 03:40:17 8.8 C 73 %
24 25-11-2019 03:50:17 8.8 C 73 %
25 25-11-2019 04:00:17 8.8 C 73 %
Sensor: Nr:Datum:Temp:Feuchte:
G-T/H 26 25-11-2019 04:10:17 8.8 C 73 %
27 25-11-2019 04:20:17 8.8 C 73 %
28 25-11-2019 04:30:17 8.8 C 73 %
29 25-11-2019 04:40:17 8.8 C 73 %
30 25-11-2019 04:50:17 8.8 C 73 %
31 25-11-2019 05:00:17 8.8 C 73 %
32 25-11-2019 05:10:17 8.8 C 73 %
33 25-11-2019 05:20:17 8.8 C 73 %
34 25-11-2019 05:30:17 8.8 C 73 %
35 25-11-2019 05:40:17 8.8 C 73 %
36 25-11-2019 05:50:17 8.8 C 73 %
37 25-11-2019 06:00:17 8.8 C 73 %
38 25-11-2019 06:10:17 8.8 C 73 %
39 25-11-2019 06:20:17 8.8 C 73 %
40 25-11-2019 06:30:17 8.8 C 73 %
41 25-11-2019 06:40:17 8.8 C 73 %
42 25-11-2019 06:50:17 8.8 C 73 %
43 25-11-2019 07:00:17 8.8 C 73 %
44 25-11-2019 07:10:17 8.8 C 73 %
45 25-11-2019 07:20:17 8.8 C 73 %
46 25-11-2019 07:30:17 8.9 C 73 %
47 25-11-2019 07:40:17 8.8 C 73 %
48 25-11-2019 07:50:17 8.8 C 73 %
49 25-11-2019 08:00:17 8.8 C 73 %
50 25-11-2019 08:10:17 8.9 C 73 %
Sensor: Nr:Datum:Temp:Feuchte:
G-T/H 51 25-11-2019 08:20:17 8.8 C 73 %
52 25-11-2019 08:30:18 8.8 C 73 %
53 25-11-2019 08:40:18 8.8 C 73 %
54 25-11-2019 08:50:17 8.8 C 73 %
55 25-11-2019 09:00:17 8.8 C 73 %
56 25-11-2019 09:10:17 8.8 C 73 %
57 25-11-2019 09:20:17 8.8 C 73 %
58 25-11-2019 09:30:17 8.8 C 73 %
59 25-11-2019 09:40:17 8.8 C 73 %
60 25-11-2019 09:50:17 8.8 C 73 %
61 25-11-2019 10:00:17 8.8 C 73 %
62 25-11-2019 10:10:17 8.9 C 73 %
63 25-11-2019 10:20:17 8.9 C 73 %
64 25-11-2019 10:30:17 8.9 C 74 %
65 25-11-2019 10:40:17 8.9 C 74 %
66 25-11-2019 10:50:17 8.9 C 74 %
67 25-11-2019 11:00:17 8.9 C 74 %
68 25-11-2019 11:10:17 8.9 C 74 %
69 25-11-2019 11:20:17 8.9 C 74 %
70 25-11-2019 11:30:17 8.9 C 74 %
71 25-11-2019 11:40:17 8.9 C 74 %
72 25-11-2019 11:50:17 8.9 C 74 %
73 25-11-2019 12:00:17 9 C 73 %
74 25-11-2019 12:10:17 8.9 C 74 %
75 25-11-2019 12:20:17 8.9 C 74 %
Sensor: Nr:Datum:Temp:Feuchte:
G-T/H 76 25-11-2019 12:30:17 9 C 73 %
77 25-11-2019 12:40:17 9 C 73 %
78 25-11-2019 12:50:17 9 C 73 %
79 25-11-2019 13:00:17 9 C 73 %
80 25-11-2019 13:10:17 9 C 73 %
81 25-11-2019 13:20:17 9 C 73 %
82 25-11-2019 13:30:17 9 C 73 %
83 25-11-2019 13:40:17 9 C 73 %
84 25-11-2019 13:50:17 9 C 73 %
85 25-11-2019 14:00:17 9 C 73 %
86 25-11-2019 14:10:17 9 C 73 %
87 25-11-2019 14:20:17 9 C 74 %
88 25-11-2019 14:30:17 9.1 C 74 %
89 25-11-2019 14:40:17 9.1 C 74 %
90 25-11-2019 14:50:17 9.1 C 74 %
91 25-11-2019 15:00:17 9.1 C 74 %
92 25-11-2019 15:10:17 9.1 C 74 %
93 25-11-2019 15:20:17 9.1 C 74 %
94 25-11-2019 15:30:17 9.1 C 74 %
95 25-11-2019 15:40:17 9.2 C 74 %
96 25-11-2019 15:50:17 9.2 C 74 %
97 25-11-2019 16:00:17 9.2 C 74 %
98 25-11-2019 16:10:17 9.1 C 74 %
99 25-11-2019 16:20:17 9.2 C 74 %
100 25-11-2019 16:30:17 9.2 C 74 %
Sensor: Nr:Datum:Temp:Feuchte:
G-T/H 101 25-11-2019 16:40:17 9.2 C 74 %
102 25-11-2019 16:50:17 9.2 C 74 %
103 25-11-2019 17:00:17 9.2 C 74 %
104 25-11-2019 17:10:17 9.2 C 74 %
105 25-11-2019 17:20:17 9.2 C 74 %
106 25-11-2019 17:30:17 9.2 C 74 %
107 25-11-2019 17:40:17 9.3 C 74 %
108 25-11-2019 17:50:17 9.3 C 74 %
109 25-11-2019 18:00:18 9.3 C 74 %
110 25-11-2019 18:10:18 9.2 C 74 %
111 25-11-2019 18:20:17 9.3 C 74 %
112 25-11-2019 18:30:17 9.3 C 74 %
113 25-11-2019 18:40:17 9.3 C 74 %
114 25-11-2019 18:50:17 9.3 C 74 %
115 25-11-2019 19:00:17 9.3 C 74 %
116 25-11-2019 19:10:17 9.3 C 74 %
117 25-11-2019 19:20:17 9.4 C 74 %
118 25-11-2019 19:30:17 9.4 C 74 %
119 25-11-2019 19:40:17 9.4 C 74 %
120 25-11-2019 19:50:17 9.4 C 74 %
121 25-11-2019 20:00:17 9.4 C 74 %
122 25-11-2019 20:10:17 9.4 C 74 %
123 25-11-2019 20:20:17 9.4 C 74 %
124 25-11-2019 20:30:17 9.4 C 74 %
125 25-11-2019 20:40:17 9.4 C 74 %
Sensor: Nr:Datum:Temp:Feuchte:
G-T/H 126 25-11-2019 20:50:17 9.4 C 74 %
127 25-11-2019 21:00:17 9.4 C 74 %
128 25-11-2019 21:10:17 9.4 C 74 %
129 25-11-2019 21:20:17 9.4 C 74 %
130 25-11-2019 21:30:17 9.4 C 75 %
131 25-11-2019 21:40:17 9.4 C 75 %
132 25-11-2019 21:50:17 9.4 C 75 %
133 25-11-2019 22:00:17 9.4 C 75 %
134 25-11-2019 22:10:17 9.4 C 74 %
135 25-11-2019 22:20:17 9.4 C 74 %
136 25-11-2019 22:30:17 9.5 C 74 %
137 25-11-2019 22:40:17 9.5 C 74 %
138 25-11-2019 22:50:17 9.5 C 74 %
139 25-11-2019 23:00:17 9.5 C 74 %
140 25-11-2019 23:10:17 9.5 C 74 %
141 25-11-2019 23:20:17 9.5 C 74 %
142 25-11-2019 23:30:17 9.5 C 74 %
143 25-11-2019 23:40:17 9.5 C 74 %
144 25-11-2019 23:50:17 9.5 C 74 %
145 26-11-2019 00:00:17 9.5 C 74 %
146 26-11-2019 00:10:17 9.5 C 74 %
147 26-11-2019 00:20:17 9.5 C 74 %
148 26-11-2019 00:30:17 9.5 C 74 %
149 26-11-2019 00:40:17 9.5 C 74 %
150 26-11-2019 00:50:17 9.5 C 74 %
Sensor: Nr:Datum:Temp:Feuchte:
G-T/H 151 26-11-2019 01:00:17 9.5 C 74 %
152 26-11-2019 01:10:17 9.5 C 74 %
153 26-11-2019 01:20:17 9.5 C 74 %
154 26-11-2019 01:30:17 9.5 C 74 %
155 26-11-2019 01:40:17 9.5 C 74 %
156 26-11-2019 01:50:17 9.5 C 74 %
157 26-11-2019 02:00:17 9.5 C 74 %
158 26-11-2019 02:10:17 9.5 C 74 %
159 26-11-2019 02:20:17 9.5 C 74 %
160 26-11-2019 02:30:17 9.5 C 74 %
161 26-11-2019 02:40:17 9.5 C 74 %
162 26-11-2019 02:50:17 9.5 C 74 %
163 26-11-2019 03:00:17 9.5 C 74 %
164 26-11-2019 03:10:17 9.5 C 74 %
165 26-11-2019 03:20:17 9.5 C 74 %
166 26-11-2019 03:30:17 9.5 C 74 %
167 26-11-2019 03:40:17 9.5 C 74 %
168 26-11-2019 03:50:17 9.5 C 74 %
169 26-11-2019 04:00:17 9.5 C 74 %
170 26-11-2019 04:10:17 9.5 C 74 %
171 26-11-2019 04:20:17 9.5 C 74 %
172 26-11-2019 04:30:18 9.5 C 74 %
173 26-11-2019 04:40:18 9.5 C 74 %
174 26-11-2019 04:50:17 9.5 C 74 %
175 26-11-2019 05:00:18 9.5 C 74 %
Sensor: Nr:Datum:Temp:Feuchte:
G-T/H 176 26-11-2019 05:10:18 9.5 C 74 %
177 26-11-2019 05:20:17 9.5 C 74 %
178 26-11-2019 05:30:17 9.5 C 74 %
179 26-11-2019 05:40:17 9.5 C 74 %
180 26-11-2019 05:50:17 9.5 C 74 %
181 26-11-2019 06:00:17 9.5 C 74 %
182 26-11-2019 06:10:17 9.5 C 74 %
183 26-11-2019 06:20:17 9.5 C 74 %
184 26-11-2019 06:30:17 9.5 C 74 %
185 26-11-2019 06:40:17 9.5 C 74 %
186 26-11-2019 06:50:17 9.5 C 74 %
187 26-11-2019 07:00:17 9.5 C 74 %
188 26-11-2019 07:10:17 9.5 C 74 %
189 26-11-2019 07:20:17 9.5 C 75 %
190 26-11-2019 07:30:17 9.5 C 75 %
191 26-11-2019 07:40:17 9.5 C 75 %
192 26-11-2019 07:50:17 9.5 C 75 %
193 26-11-2019 08:00:17 9.5 C 75 %
194 26-11-2019 08:10:17 9.6 C 75 %
195 26-11-2019 08:20:17 9.6 C 75 %
196 26-11-2019 08:30:17 9.5 C 75 %
197 26-11-2019 08:40:17 9.6 C 75 %
198 26-11-2019 08:50:17 9.5 C 75 %
199 26-11-2019 09:00:17 9.6 C 75 %
200 26-11-2019 09:10:17 9.6 C 75 %
Sensor: Nr:Datum:Temp:Feuchte:
G-T/H 201 26-11-2019 09:20:17 9.6 C 75 %
202 26-11-2019 09:30:17 9.6 C 75 %
203 26-11-2019 09:40:17 9.6 C 75 %
204 26-11-2019 09:50:17 9.6 C 75 %
205 26-11-2019 10:00:17 9.6 C 75 %
206 26-11-2019 10:10:17 9.6 C 75 %
207 26-11-2019 10:20:17 9.6 C 75 %
208 26-11-2019 10:30:17 9.7 C 75 %
209 26-11-2019 10:40:17 9.6 C 75 %
210 26-11-2019 10:50:17 9.6 C 75 %
211 26-11-2019 11:00:17 9.6 C 75 %
212 26-11-2019 11:10:17 9.6 C 75 %
213 26-11-2019 11:20:17 9.7 C 75 %
214 26-11-2019 11:30:17 9.7 C 75 %
215 26-11-2019 11:40:17 9.7 C 75 %
216 26-11-2019 11:50:17 9.7 C 75 %
217 26-11-2019 12:00:17 9.7 C 75 %
218 26-11-2019 12:10:17 9.7 C 75 %
219 26-11-2019 12:20:17 9.7 C 75 %
220 26-11-2019 12:30:17 9.7 C 75 %
221 26-11-2019 12:40:17 9.8 C 76 %
222 26-11-2019 12:50:17 9.8 C 76 %
223 26-11-2019 13:00:17 9.8 C 76 %
224 26-11-2019 13:10:17 9.8 C 76 %
225 26-11-2019 13:20:17 9.8 C 76 %
Sensor: Nr:Datum:Temp:Feuchte:
G-T/H 226 26-11-2019 13:30:17 9.8 C 76 %
227 26-11-2019 13:40:17 9.8 C 76 %
228 26-11-2019 13:50:17 9.8 C 76 %
229 26-11-2019 14:00:17 9.8 C 76 %
230 26-11-2019 14:10:17 9.9 C 76 %
231 26-11-2019 14:20:17 9.9 C 76 %
232 26-11-2019 14:30:17 9.9 C 76 %
233 26-11-2019 14:40:17 9.9 C 76 %
234 26-11-2019 14:50:17 9.9 C 76 %
235 26-11-2019 15:00:17 10 C 75 %
236 26-11-2019 15:10:17 10 C 75 %
237 26-11-2019 15:20:17 10 C 75 %
238 26-11-2019 15:30:17 10 C 75 %
239 26-11-2019 15:40:17 10 C 75 %
240 26-11-2019 15:50:17 10 C 75 %
241 26-11-2019 16:00:17 10 C 75 %
242 26-11-2019 16:10:17 10.1 C 75 %
243 26-11-2019 16:20:17 10.1 C 75 %
244 26-11-2019 16:30:17 10.1 C 75 %
245 26-11-2019 16:40:17 10.1 C 75 %
246 26-11-2019 16:50:17 10.2 C 75 %
247 26-11-2019 17:00:17 10.1 C 75 %
248 26-11-2019 17:10:17 10.2 C 75 %
249 26-11-2019 17:20:17 10.1 C 75 %
250 26-11-2019 17:30:17 10.2 C 75 %
Sensor: Nr:Datum:Temp:Feuchte:
G-T/H 251 26-11-2019 17:40:17 10.2 C 75 %
252 26-11-2019 17:50:17 10.2 C 75 %
253 26-11-2019 18:00:17 10.2 C 75 %
254 26-11-2019 18:10:17 10.2 C 75 %
255 26-11-2019 18:20:17 10.2 C 75 %
256 26-11-2019 18:30:17 10.2 C 75 %
257 26-11-2019 18:40:17 10.3 C 75 %
258 26-11-2019 18:50:17 10.3 C 75 %
259 26-11-2019 19:00:17 10.3 C 75 %
260 26-11-2019 19:10:17 10.3 C 75 %
261 26-11-2019 19:20:17 10.3 C 75 %
262 26-11-2019 19:30:17 10.3 C 75 %
263 26-11-2019 19:40:17 10.3 C 75 %
264 26-11-2019 19:50:17 10.4 C 75 %
265 26-11-2019 20:00:17 10.3 C 75 %
266 26-11-2019 20:10:17 10.4 C 75 %
267 26-11-2019 20:20:17 10.4 C 75 %
268 26-11-2019 20:30:17 10.4 C 76 %
269 26-11-2019 20:40:17 10.4 C 76 %
270 26-11-2019 20:50:17 10.4 C 76 %
271 26-11-2019 21:00:17 10.4 C 76 %
272 26-11-2019 21:10:17 10.4 C 76 %
273 26-11-2019 21:20:17 10.4 C 76 %
274 26-11-2019 21:30:17 10.4 C 76 %
275 26-11-2019 21:40:17 10.4 C 76 %
Sensor: Nr:Datum:Temp:Feuchte:
G-T/H 276 26-11-2019 21:50:17 10.4 C 76 %
277 26-11-2019 22:00:17 10.5 C 76 %
278 26-11-2019 22:10:17 10.5 C 76 %
279 26-11-2019 22:20:17 10.5 C 76 %
280 26-11-2019 22:30:17 10.4 C 76 %
281 26-11-2019 22:40:17 10.5 C 76 %
282 26-11-2019 22:50:17 10.5 C 76 %
283 26-11-2019 23:00:17 10.5 C 76 %
284 26-11-2019 23:10:17 10.5 C 76 %
285 26-11-2019 23:20:17 10.5 C 76 %
286 26-11-2019 23:30:17 10.5 C 76 %
287 26-11-2019 23:40:17 10.5 C 76 %
288 26-11-2019 23:50:17 10.5 C 76 %
289 27-11-2019 00:00:17 10.5 C 76 %
290 27-11-2019 00:10:17 10.5 C 76 %
291 27-11-2019 00:20:17 10.6 C 76 %
292 27-11-2019 00:30:17 10.5 C 76 %
293 27-11-2019 00:40:17 10.6 C 76 %
294 27-11-2019 00:50:17 10.6 C 76 %
295 27-11-2019 01:00:17 10.6 C 76 %
296 27-11-2019 01:10:17 10.6 C 76 %
297 27-11-2019 01:20:17 10.6 C 76 %
298 27-11-2019 01:30:17 10.6 C 76 %
299 27-11-2019 01:40:17 10.6 C 76 %
300 27-11-2019 01:50:17 10.6 C 76 %
Sensor: Nr:Datum:Temp:Feuchte:
G-T/H 301 27-11-2019 02:00:17 10.6 C 76 %
302 27-11-2019 02:10:17 10.6 C 76 %
303 27-11-2019 02:20:17 10.6 C 76 %
304 27-11-2019 02:30:17 10.6 C 76 %
305 27-11-2019 02:40:17 10.6 C 76 %
306 27-11-2019 02:50:17 10.6 C 76 %
307 27-11-2019 03:00:17 10.6 C 76 %
308 27-11-2019 03:10:17 10.6 C 76 %
309 27-11-2019 03:20:17 10.6 C 76 %
310 27-11-2019 03:30:17 10.6 C 76 %
311 27-11-2019 03:40:17 10.6 C 76 %
312 27-11-2019 03:50:17 10.6 C 76 %
313 27-11-2019 04:00:17 10.6 C 76 %
314 27-11-2019 04:10:17 10.6 C 76 %
315 27-11-2019 04:20:17 10.6 C 76 %
316 27-11-2019 04:30:17 10.6 C 76 %
317 27-11-2019 04:40:17 10.6 C 76 %
318 27-11-2019 04:50:17 10.6 C 76 %
319 27-11-2019 05:00:17 10.6 C 76 %
320 27-11-2019 05:10:17 10.7 C 76 %
321 27-11-2019 05:20:17 10.7 C 76 %
322 27-11-2019 05:30:17 10.6 C 76 %
323 27-11-2019 05:40:17 10.6 C 76 %
324 27-11-2019 05:50:17 10.6 C 76 %
325 27-11-2019 06:00:18 10.7 C 76 %
Sensor: Nr:Datum:Temp:Feuchte:
G-T/H 326 27-11-2019 06:10:18 10.7 C 76 %
327 27-11-2019 06:20:17 10.7 C 76 %
328 27-11-2019 06:30:17 10.6 C 76 %
329 27-11-2019 06:40:17 10.6 C 76 %
330 27-11-2019 06:50:17 10.7 C 76 %
331 27-11-2019 07:00:17 10.7 C 76 %
332 27-11-2019 07:10:17 10.6 C 76 %
333 27-11-2019 07:20:17 10.6 C 76 %
334 27-11-2019 07:30:17 10.7 C 76 %
335 27-11-2019 07:40:17 10.7 C 76 %
336 27-11-2019 07:50:17 10.7 C 76 %
337 27-11-2019 08:00:17 10.7 C 76 %
338 27-11-2019 08:10:17 10.7 C 76 %
339 27-11-2019 08:20:17 10.7 C 76 %
340 27-11-2019 08:30:17 10.7 C 76 %
341 27-11-2019 08:40:17 10.7 C 76 %
342 27-11-2019 08:50:17 10.6 C 76 %
343 27-11-2019 09:00:17 10.7 C 76 %
344 27-11-2019 09:10:17 10.7 C 76 %
345 27-11-2019 09:20:17 10.7 C 76 %
346 27-11-2019 09:30:17 10.7 C 76 %
347 27-11-2019 09:40:17 10.7 C 76 %
348 27-11-2019 09:50:17 10.7 C 76 %
349 27-11-2019 10:00:17 10.7 C 76 %
350 27-11-2019 10:10:17 10.7 C 76 %
Sensor: Nr:Datum:Temp:Feuchte:
G-T/H 351 27-11-2019 10:20:17 10.7 C 76 %
352 27-11-2019 10:30:17 10.7 C 76 %
353 27-11-2019 10:40:17 10.7 C 76 %
354 27-11-2019 10:50:17 10.7 C 76 %
355 27-11-2019 11:00:17 10.7 C 76 %
356 27-11-2019 11:10:17 10.8 C 76 %
357 27-11-2019 11:20:17 10.8 C 76 %
358 27-11-2019 11:30:17 10.7 C 76 %
359 27-11-2019 11:40:17 10.7 C 76 %
360 27-11-2019 11:50:17 10.8 C 76 %
361 27-11-2019 12:00:17 10.8 C 76 %